[[{"header":{"parameterUnit":"m.s-1","parameterCategory":1,"la1":30.6,"la2":28.766,"lo1":-90.7593,"lo2":-88.6598,"dy":0.0162,"dx":0.0183,"nx":116,"ny":114,"refTime":"2024-02-26T18:00:00:Z","depth":0,"parameterNumber":2,"parameterNumberName":"U-component_of_WINDS"},"data":[0.0,0.0,0.0,0.0,0.0,0.0,0.0,0.0,0.0,0.0,0.0,0.0,0.0,0.0,0.0,0.0,0.0,0.0,0.0,0.0,0.0,0.0,0.0,0.0,0.0,0.0,0.0,0.0,0.0,0.0,0.0,0.0,0.0,0.0,0.0,0.0,0.0,0.0,0.0,0.0,0.0,0.0,0.0,0.0,0.0,0.0,0.0,0.0,0.0,0.0,0.0,0.0,0.0,0.0,0.0,0.0,0.0,0.0,0.0,0.0,0.0,0.0,0.0,0.0,0.0,0.0,0.0,0.0,0.0,0.0,0.0,0.0,0.0,0.0,0.0,0.0,0.0,0.0,0.0,0.0,0.0,0.0,0.0,0.0,0.0,0.0,0.0,0.0,0.0,0.0,0.0,0.0,0.0,0.0,0.0,0.0,0.0,0.0,0.0,0.0,0.0,0.0,0.0,0.0,0.0,0.0,0.0,0.0,0.0,0.0,0.0,0.0,0.0,0.0,0.0,0.0,0.0,0.0,0.0,0.0,0.0,0.0,0.0,0.0,0.0,0.0,0.0,0.0,0.0,0.0,0.0,0.0,0.0,0.0,0.0,0.0,0.0,0.0,0.0,0.0,0.0,0.0,0.0,0.0,0.0,0.0,0.0,0.0,0.0,0.0,0.0,0.0,0.0,0.0,0.0,0.0,0.0,0.0,0.0,0.0,0.0,0.0,0.0,0.0,0.0,0.0,0.0,0.0,0.0,0.0,0.0,0.0,0.0,0.0,0.0,0.0,0.0,0.0,0.0,0.0,0.0,0.0,0.0,0.0,0.0,0.0,0.0,0.0,0.0,0.0,0.0,0.0,0.0,0.0,0.0,0.0,0.0,0.0,0.0,0.0,0.0,0.0,0.0,0.0,0.0,0.0,0.0,0.0,0.0,0.0,0.0,0.0,0.0,0.0,0.0,0.0,0.0,0.0,0.0,0.0,0.0,0.0,0.0,0.0,0.0,0.0,0.0,0.0,0.0,0.0,0.0,0.0,0.0,0.0,0.0,0.0,0.0,0.0,0.0,0.0,0.0,0.0,0.0,0.0,0.0,0.0,0.0,0.0,0.0,0.0,0.0,0.0,0.0,0.0,0.0,0.0,0.0,0.0,0.0,0.0,0.0,0.0,0.0,0.0,0.0,0.0,0.0,0.0,0.0,0.0,0.0,0.0,0.0,0.0,0.0,0.0,0.0,0.0,0.0,0.0,0.0,0.0,0.0,0.0,0.0,0.0,0.0,0.0,0.0,0.0,0.0,0.0,0.0,0.0,0.0,0.0,0.0,0.0,0.0,0.0,0.0,0.0,0.0,0.0,0.0,0.0,0.0,0.0,0.0,0.0,0.0,0.0,0.0,0.0,0.0,0.0,0.0,0.0,0.0,0.0,0.0,0.0,0.0,0.0,0.0,0.0,0.0,0.0,0.0,0.0,0.0,0.0,0.0,0.0,0.0,0.0,0.0,0.0,0.0,0.0,0.0,0.0,0.0,0.0,0.0,0.0,0.0,0.0,0.0,0.0,0.0,0.0,0.0,0.0,0.0,0.0,0.0,0.0,0.0,0.0,0.0,0.0,0.0,0.0,0.0,0.0,0.0,0.0,0.0,0.0,0.0,0.0,0.0,0.0,0.0,0.0,0.0,0.0,0.0,0.0,0.0,0.0,0.0,0.0,0.0,0.0,0.0,0.0,0.0,0.0,0.0,0.0,0.0,0.0,0.0,0.0,0.0,0.0,0.0,0.0,0.0,0.0,0.0,0.0,0.0,0.0,0.0,0.0,0.0,0.0,0.0,0.0,0.0,0.0,0.0,0.0,0.0,0.0,0.0,0.0,0.0,0.0,0.0,0.0,0.0,0.0,0.0,0.0,0.0,0.0,0.0,0.0,0.0,0.0,0.0,0.0,0.0,0.0,0.0,0.0,0.0,0.0,0.0,0.0,0.0,0.0,0.0,0.0,0.0,0.0,0.0,0.0,0.0,0.0,0.0,0.0,0.0,0.0,0.0,0.0,0.0,0.0,0.0,0.0,0.0,0.0,0.0,0.0,0.0,0.0,0.0,0.0,0.0,0.0,0.0,0.0,0.0,0.0,0.0,0.0,0.0,0.0,0.0,0.0,0.0,0.0,0.0,0.0,0.0,0.0,0.0,0.0,0.0,0.0,0.0,0.0,0.0,0.0,0.0,0.0,0.0,0.0,0.0,0.0,0.0,0.0,0.0,0.0,0.0,0.0,0.0,0.0,0.0,0.0,0.0,0.0,0.0,0.0,0.0,0.0,0.0,0.0,0.0,0.0,0.0,0.0,0.0,0.0,0.0,0.0,0.0,0.0,0.0,0.0,0.0,0.0,0.0,0.0,0.0,0.0,0.0,0.0,0.0,0.0,0.0,0.0,0.0,0.0,0.0,0.0,0.0,0.0,0.0,0.0,0.0,0.0,0.0,0.0,0.0,0.0,0.0,0.0,0.0,0.0,0.0,0.0,0.0,0.0,0.0,0.0,0.0,0.0,0.0,0.0,0.0,0.0,0.0,0.0,0.0,0.0,0.0,0.0,0.0,0.0,0.0,0.0,0.0,0.0,0.0,0.0,0.0,0.0,0.0,0.0,0.0,0.0,0.0,0.0,0.0,0.0,0.0,0.0,0.0,0.0,0.0,0.0,0.0,0.0,0.0,0.0,0.0,0.0,0.0,0.0,0.0,0.0,0.0,0.0,0.0,0.0,0.0,0.0,0.0,0.0,0.0,0.0,0.0,0.0,0.0,0.0,0.0,0.0,0.0,0.0,0.0,0.0,0.0,0.0,0.0,0.0,0.0,0.0,0.0,0.0,0.0,0.0,0.0,0.0,0.0,0.0,0.0,0.0,0.0,0.0,0.0,0.0,0.0,0.0,0.0,0.0,0.0,0.0,0.0,0.0,0.0,0.0,0.0,0.0,0.0,0.0,0.0,0.0,0.0,0.0,0.0,0.0,0.0,0.0,0.0,0.0,0.0,0.0,0.0,0.0,0.0,0.0,0.0,0.0,0.0,0.0,0.0,0.0,0.0,0.0,0.0,0.0,0.0,0.0,0.0,0.0,0.0,0.0,0.0,0.0,0.0,0.0,0.0,0.0,0.0,0.0,0.0,0.0,0.0,0.0,0.0,0.0,0.0,0.0,0.0,0.0,0.0,0.0,0.0,0.0,0.0,0.0,0.0,0.0,0.0,0.0,0.0,0.0,0.0,0.0,0.0,0.0,0.0,0.0,0.0,0.0,0.0,0.0,0.0,0.0,0.0,0.0,0.0,0.0,0.0,0.0,0.0,0.0,0.0,0.0,0.0,0.0,0.0,0.0,0.0,0.0,0.0,0.0,0.0,0.0,0.0,0.0,0.0,0.0,0.0,0.0,0.0,0.0,0.0,0.0,0.0,0.0,0.0,0.0,0.0,0.0,0.0,0.0,0.0,0.0,0.0,0.0,0.0,0.0,0.0,0.0,0.0,0.0,0.0,0.0,0.0,0.0,0.0,0.0,0.0,0.0,0.0,0.0,0.0,0.0,0.0,0.0,0.0,0.0,0.0,0.0,0.0,0.0,0.0,0.0,0.0,0.0,0.0,0.0,0.0,0.0,0.0,0.0,0.0,0.0,0.0,0.0,0.0,0.0,0.0,0.0,0.0,0.0,0.0,0.0,0.0,0.0,0.0,0.0,0.0,0.0,0.0,0.0,0.0,0.0,0.0,0.0,0.0,0.0,0.0,0.0,0.0,0.0,0.0,0.0,0.0,0.0,0.0,0.0,0.0,0.0,0.0,0.0,0.0,0.0,0.0,0.0,0.0,0.0,0.0,0.0,0.0,0.0,0.0,0.0,0.0,0.0,0.0,0.0,0.0,0.0,0.0,0.0,0.0,0.0,0.0,0.0,0.0,0.0,0.0,0.0,0.0,0.0,0.0,0.0,0.0,0.0,0.0,0.0,0.0,0.0,0.0,0.0,0.0,0.0,0.0,0.0,0.0,0.0,0.0,0.0,0.0,0.0,0.0,0.0,0.0,0.0,0.0,0.0,0.0,0.0,0.0,0.0,0.0,0.0,0.0,0.0,0.0,0.0,0.0,0.0,0.0,0.0,0.0,0.0,0.0,0.0,0.0,0.0,0.0,0.0,0.0,0.0,0.0,0.0,0.0,0.0,0.0,0.0,0.0,0.0,0.0,0.0,0.0,0.0,0.0,0.0,0.0,0.0,0.0,0.0,0.0,0.0,0.0,0.0,0.0,0.0,0.0,0.0,0.0,0.0,0.0,0.0,0.0,0.0,0.0,0.0,0.0,0.0,0.0,0.0,0.0,0.0,0.0,0.0,0.0,0.0,0.0,0.0,0.0,0.0,0.0,0.0,0.0,0.0,0.0,0.0,0.0,0.0,0.0,0.0,0.0,0.0,0.0,0.0,0.0,0.0,0.0,0.0,0.0,0.0,0.0,0.0,0.0,0.0,0.0,0.0,0.0,0.0,0.0,0.0,0.0,0.0,0.0,0.0,0.0,0.0,0.0,0.0,0.0,0.0,0.0,0.0,0.0,0.0,0.0,0.0,0.0,0.0,0.0,0.0,0.0,0.0,0.0,0.0,0.0,0.0,0.0,0.0,0.0,0.0,0.0,0.0,0.0,0.0,0.0,0.0,0.0,0.0,0.0,0.0,0.0,0.0,0.0,0.0,0.0,0.0,0.0,0.0,0.0,0.0,0.0,0.0,0.0,0.0,0.0,0.0,0.0,0.0,0.0,0.0,0.0,0.0,0.0,0.0,0.0,0.0,0.0,0.0,0.0,0.0,0.0,0.0,0.0,0.0,0.0,0.0,0.0,0.0,0.0,0.0,0.0,0.0,0.0,0.0,0.0,0.0,0.0,0.0,0.0,0.0,0.0,0.0,0.0,0.0,0.0,0.0,0.0,0.0,0.0,0.0,0.0,0.0,0.0,0.0,0.0,0.0,0.0,0.0,0.0,0.0,0.0,0.0,0.0,0.0,0.0,0.0,0.0,0.0,0.0,0.0,0.0,0.0,0.0,0.0,0.0,0.0,0.0,0.0,0.0,0.0,0.0,0.0,0.0,0.0,0.0,0.0,0.0,0.0,0.0,0.0,0.0,0.0,0.0,0.0,0.0,0.0,0.0,0.0,0.0,0.0,0.0,0.0,0.0,0.0,0.0,0.0,0.0,0.0,0.0,0.0,0.0,0.0,0.0,0.0,0.0,0.0,0.0,0.0,0.0,0.0,0.0,0.0,0.0,0.0,0.0,0.0,0.0,0.0,0.0,0.0,0.0,0.0,0.0,0.0,0.0,0.0,0.0,0.0,0.0,0.0,0.0,0.0,0.0,0.0,0.0,0.0,0.0,0.0,0.0,0.0,0.0,0.0,0.0,0.0,0.0,0.0,0.0,0.0,0.0,0.0,0.0,0.0,0.0,0.0,0.0,0.0,0.0,0.0,0.0,0.0,0.0,0.0,0.0,0.0,0.0,0.0,0.0,0.0,0.0,0.0,0.0,0.0,0.0,0.0,0.0,0.0,0.0,0.0,0.0,0.0,0.0,0.0,0.0,0.0,0.0,0.0,0.0,0.0,0.0,0.0,0.0,0.0,0.0,0.0,0.0,0.0,0.0,0.0,0.0,0.0,0.0,0.0,0.0,0.0,0.0,0.0,0.0,0.0,0.0,0.0,0.0,0.0,0.0,0.0,0.0,0.0,0.0,0.0,0.0,0.0,0.0,0.0,0.0,0.0,0.0,0.0,0.0,0.0,0.0,0.0,0.0,0.0,0.0,0.0,0.0,0.0,0.0,0.0,0.0,0.0,0.0,0.0,0.0,0.0,0.0,0.0,0.0,0.0,0.0,0.0,0.0,0.0,0.0,0.0,0.0,0.0,0.0,0.0,0.0,0.0,0.0,0.0,0.0,0.0,0.0,0.0,0.0,0.0,0.0,0.0,0.0,0.0,0.0,0.0,0.0,0.0,0.0,0.0,0.0,0.0,0.0,0.0,0.0,0.0,0.0,0.0,0.0,0.0,0.0,0.0,0.0,0.0,0.0,0.0,0.0,0.0,0.0,0.0,0.0,0.0,-4.5201,-4.515,0.0,0.0,0.0,0.0,0.0,0.0,0.0,0.0,0.0,0.0,0.0,0.0,0.0,0.0,0.0,0.0,0.0,0.0,0.0,0.0,0.0,0.0,0.0,0.0,0.0,0.0,-3.4857,-3.5515,-3.5495,-3.5495,-3.5489,-3.5489,-3.5547,-3.5547,-3.5596,-3.5584,-3.5765,-3.6189,-3.6555,-3.7471,-3.8906,-3.9317,-3.9433,-3.9343,0.0,0.0,0.0,0.0,0.0,0.0,0.0,0.0,0.0,0.0,0.0,0.0,0.0,0.0,0.0,0.0,0.0,0.0,0.0,0.0,0.0,0.0,0.0,0.0,0.0,0.0,0.0,0.0,0.0,0.0,0.0,0.0,0.0,0.0,0.0,0.0,0.0,0.0,0.0,0.0,0.0,0.0,0.0,0.0,0.0,0.0,0.0,0.0,0.0,0.0,0.0,0.0,0.0,0.0,0.0,0.0,0.0,0.0,0.0,0.0,0.0,0.0,0.0,0.0,0.0,0.0,0.0,0.0,0.0,0.0,-4.7204,-4.6562,0.0,0.0,0.0,0.0,0.0,0.0,0.0,0.0,0.0,0.0,0.0,0.0,0.0,0.0,0.0,0.0,0.0,0.0,0.0,0.0,0.0,0.0,0.0,-3.2283,-3.3282,-3.3655,-3.4874,-3.5635,-3.5714,-3.5631,-3.5578,-3.5572,-3.5572,-3.559,-3.5581,-3.562,-3.6054,-3.7006,-3.7509,-3.8767,-4.0756,-4.2356,-4.2601,0.0,0.0,0.0,0.0,0.0,0.0,0.0,0.0,0.0,0.0,0.0,0.0,0.0,0.0,0.0,0.0,0.0,0.0,0.0,0.0,0.0,0.0,0.0,0.0,0.0,0.0,0.0,0.0,0.0,0.0,0.0,0.0,0.0,0.0,0.0,0.0,0.0,0.0,0.0,0.0,0.0,0.0,0.0,0.0,0.0,0.0,0.0,0.0,0.0,0.0,0.0,0.0,0.0,0.0,0.0,0.0,0.0,0.0,0.0,0.0,0.0,0.0,0.0,0.0,0.0,-4.9067,-4.9713,-5.1137,-5.1156,-5.1156,-5.1045,-4.8993,-4.8033,-4.7905,-4.75,0.0,0.0,0.0,0.0,0.0,0.0,0.0,0.0,0.0,0.0,0.0,0.0,0.0,0.0,0.0,0.0,0.0,0.0,0.0,0.0,0.0,-3.3075,-3.4061,-3.619,-3.5902,-3.5854,-3.6521,-3.5965,-3.5566,-3.5534,-3.5566,-3.559,-3.5581,-3.5596,-3.6312,-3.7755,-4.0492,-4.2303,-4.3263,-4.4166,-4.4448,-4.4171,-4.2963,0.0,0.0,0.0,0.0,0.0,0.0,0.0,0.0,0.0,0.0,0.0,0.0,0.0,0.0,0.0,0.0,0.0,0.0,0.0,0.0,0.0,0.0,0.0,0.0,0.0,0.0,0.0,0.0,0.0,0.0,0.0,0.0,0.0,0.0,0.0,0.0,0.0,0.0,0.0,0.0,0.0,0.0,0.0,-4.3601,-4.4367,0.0,0.0,0.0,0.0,0.0,0.0,0.0,0.0,0.0,0.0,0.0,0.0,0.0,-4.8624,-4.8451,-4.9917,-5.0637,-5.0615,-5.0768,-5.0954,-5.1195,-5.1306,-5.1343,-5.1343,-5.1009,0.0,-5.0299,-4.8899,0.0,0.0,0.0,0.0,0.0,0.0,0.0,0.0,0.0,0.0,0.0,0.0,0.0,0.0,0.0,0.0,0.0,0.0,0.0,0.0,0.0,-3.4037,-3.4974,-3.6009,-3.6627,-3.7028,-3.7287,-3.6643,-3.6228,-3.6177,-3.5804,-3.562,-3.5648,-3.6084,-3.7294,-3.9257,-4.195,-4.3437,-4.3737,-4.4509,-4.5142,-4.5521,-4.4443,-4.3643,-4.3115,-4.2704,0.0,0.0,0.0,0.0,0.0,0.0,0.0,0.0,0.0,0.0,0.0,0.0,0.0,0.0,0.0,0.0,0.0,0.0,0.0,0.0,0.0,0.0,0.0,0.0,0.0,0.0,0.0,0.0,0.0,0.0,0.0,0.0,0.0,0.0,0.0,0.0,0.0,0.0,0.0,-4.2454,-4.3741,-4.3995,-4.4436,-4.4587,0.0,0.0,0.0,0.0,0.0,0.0,0.0,0.0,0.0,-4.877,-4.974,-5.0193,-5.0102,-5.0768,-5.1321,-5.1727,-5.1823,-5.2196,-5.2791,-5.2754,-5.2791,-5.2884,-5.2772,-5.264,-5.2355,-5.0712,-5.0099,-5.0068,0.0,0.0,0.0,0.0,-4.6166,-4.69,0.0,0.0,0.0,0.0,0.0,0.0,0.0,0.0,0.0,0.0,0.0,0.0,-3.3688,-3.4853,-3.5771,-3.6374,-3.7385,-3.8024,-3.812,-3.7463,-3.6944,-3.6675,-3.617,-3.5917,-3.5991,-3.7347,-3.9008,-4.0874,-4.3031,-4.4072,-4.4066,-4.4887,-4.5494,-4.5911,-4.5542,-4.4984,-4.4303,-4.3525,-4.308,0.0,0.0,0.0,0.0,0.0,0.0,0.0,0.0,0.0,0.0,0.0,0.0,0.0,0.0,0.0,0.0,0.0,0.0,0.0,0.0,0.0,0.0,0.0,0.0,0.0,0.0,0.0,0.0,0.0,0.0,0.0,0.0,0.0,0.0,0.0,0.0,0.0,0.0,-4.2893,-4.3895,-4.395,-4.4931,-4.5471,0.0,0.0,0.0,0.0,0.0,0.0,-4.893,-4.9541,-5.0094,-5.0644,-5.125,-5.1528,-5.1509,-5.1693,-5.21,-5.2731,-5.2733,-5.3181,-5.3944,-5.3869,-5.3832,-5.3944,-5.3832,-5.3774,-5.3604,-5.214,-5.1395,-5.1086,-5.0158,-4.9728,-4.9512,-4.8743,-4.8847,-4.9377,0.0,0.0,0.0,0.0,0.0,0.0,0.0,0.0,0.0,0.0,0.0,-3.2759,-3.5291,-3.5481,-3.6353,-3.87,-3.8347,-3.827,-3.8915,-3.8252,-3.7479,-3.6627,-3.6629,-3.6691,-3.6723,-3.972,-4.1676,-4.2493,-4.4121,-4.4934,-4.4934,-4.5905,-4.589,-4.5167,-4.5978,-4.6212,-4.6026,-4.5214,-4.4405,-4.3637,0.0,0.0,0.0,0.0,0.0,0.0,0.0,0.0,0.0,0.0,0.0,0.0,0.0,0.0,0.0,0.0,0.0,0.0,0.0,0.0,0.0,0.0,0.0,0.0,0.0,0.0,0.0,0.0,0.0,0.0,0.0,0.0,0.0,0.0,0.0,0.0,0.0,0.0,0.0,-4.5612,-4.7184,0.0,0.0,0.0,0.0,-4.9183,-4.9311,-4.9867,-5.126,-5.1354,-5.1393,-5.136,-5.2122,-5.2475,-5.2324,-5.3198,-5.3643,-5.3639,-5.3699,-5.3757,-5.3794,-5.3794,-5.3794,-5.3794,-5.3794,-5.3794,-5.3738,-5.2715,-5.2285,-5.2132,-5.1185,-5.0792,-5.0692,-5.0517,-5.0394,-5.0326,0.0,0.0,0.0,0.0,0.0,0.0,0.0,0.0,-3.1907,-3.3037,-3.3799,-3.4791,-3.6228,-3.721,-3.8124,-3.8963,-3.9291,-3.9544,-3.9719,-3.8555,-3.7724,-3.7386,-3.6976,-3.7518,-3.9069,-4.116,-4.2605,-4.3368,-4.4417,-4.495,-4.495,-4.5278,-4.5556,-4.5784,-4.5592,-4.5805,-4.6262,-4.5399,-4.4905,-4.4551,-4.4041,-4.3172,0.0,0.0,0.0,0.0,0.0,0.0,0.0,0.0,0.0,0.0,0.0,0.0,0.0,0.0,0.0,0.0,0.0,0.0,0.0,0.0,0.0,0.0,0.0,0.0,0.0,0.0,0.0,0.0,0.0,0.0,0.0,0.0,0.0,0.0,0.0,0.0,0.0,-4.6488,-4.7136,0.0,-4.8589,-4.8664,-4.9311,-5.0847,-5.1013,-5.1403,-5.2211,-5.2359,-5.2584,-5.294,-5.3161,-5.3288,-5.325,-5.3548,-5.3955,-5.4491,-5.4553,-5.4613,-5.4707,-5.4593,-5.4352,-5.3926,-5.385,-5.3794,-5.3794,-5.3459,-5.3271,-5.3154,-5.2742,-5.2512,-5.2373,-5.227,-5.2171,-5.2129,0.0,0.0,0.0,0.0,0.0,0.0,0.0,0.0,-3.2342,-3.3506,-3.4724,-3.5911,-3.7077,-3.8278,-3.9085,-3.9346,-3.9891,-4.0176,-4.0048,-3.8906,-3.8243,-3.8227,-3.8093,-3.8869,-4.0696,-4.2237,-4.3379,-4.4148,-4.4671,-4.495,-4.495,-4.5216,-4.5695,-4.6301,-4.5984,-4.6271,-4.6797,-4.5921,-4.5387,-4.5098,-4.456,-4.3829,-4.3011,0.0,0.0,0.0,0.0,0.0,0.0,0.0,0.0,0.0,0.0,0.0,0.0,0.0,0.0,0.0,0.0,0.0,0.0,0.0,0.0,0.0,0.0,0.0,0.0,0.0,0.0,0.0,0.0,0.0,0.0,0.0,0.0,0.0,0.0,0.0,-4.6002,-4.731,-4.7972,-4.8694,-4.979,-5.0166,-5.0863,-5.2165,-5.2311,-5.2711,-5.3625,-5.3438,-5.3608,-5.426,-5.3922,-5.3716,-5.3716,-5.4012,-5.442,-5.4939,-5.5278,-5.5505,-5.5563,-5.5151,-5.4761,-5.4298,-5.3962,-5.3794,-5.3794,-5.3794,-5.3793,-5.3716,-5.3657,-5.3336,-5.2994,-5.2897,-5.2672,-5.2467,0.0,0.0,0.0,0.0,0.0,0.0,0.0,-3.2551,-3.2629,-3.4264,-3.5002,-3.6031,-3.7805,-3.8514,-3.9181,-4.002,-4.0106,-4.0048,-3.9969,-3.93,-3.8944,-3.8997,-3.9917,-4.0734,-4.1418,-4.3041,-4.4224,-4.4914,-4.4974,-4.501,-4.501,-4.5846,-4.6335,-4.6477,-4.722,-4.7636,-4.7712,-4.6871,-4.6048,-4.523,-4.5203,-4.4696,-4.3808,0.0,0.0,0.0,0.0,0.0,0.0,0.0,0.0,0.0,0.0,0.0,0.0,0.0,0.0,0.0,0.0,0.0,0.0,0.0,0.0,0.0,0.0,0.0,0.0,0.0,0.0,0.0,0.0,0.0,0.0,0.0,0.0,0.0,-4.4799,-4.6261,-4.7555,-4.8206,-4.9755,-5.0785,-5.0782,-5.148,-5.2306,-5.3186,-5.3261,-5.3924,-5.5412,-5.4631,-5.4465,-5.5174,-5.4297,-5.3831,-5.3831,-5.4611,-5.5057,-5.5094,-5.5912,-5.632,-5.632,-5.5429,-5.5057,-5.502,-5.4203,-5.3831,-5.3831,-5.3831,-5.3794,-5.3794,-5.3794,-5.3235,-5.2435,-5.2435,-5.1896,-5.1282,0.0,0.0,0.0,0.0,0.0,0.0,0.0,-3.2229,-3.3037,-3.3502,-3.568,-3.7363,-3.7801,-3.8993,-3.981,-4.0017,-4.0086,-3.9822,-3.9233,-3.915,-3.9144,-3.9223,-4.0501,-4.1571,-4.2342,-4.4482,-4.5378,-4.4914,-4.5545,-4.5569,-4.501,-4.519,-4.5328,-4.5437,-4.6213,-4.6605,-4.6727,-4.7117,-4.6809,-4.6031,-4.5513,-4.4801,-4.401,0.0,0.0,0.0,0.0,0.0,0.0,0.0,0.0,0.0,0.0,0.0,0.0,0.0,0.0,0.0,0.0,0.0,0.0,0.0,0.0,0.0,0.0,0.0,0.0,0.0,0.0,0.0,0.0,0.0,0.0,0.0,-4.558,-4.6694,-4.7301,-4.7721,-4.8476,-4.9843,-5.046,-5.1211,-5.2397,-5.2698,-5.317,-5.3996,-5.4565,-5.502,-5.5341,-5.5044,-5.4988,-5.5174,-5.4297,-5.4129,-5.4801,-5.4947,-5.5614,-5.6803,-5.6469,-5.6617,-5.7138,-5.632,-5.5949,-5.5912,-5.5057,-5.4686,-5.4611,-5.4054,-5.3794,-5.3794,-5.3794,-5.3626,-5.3403,-5.3403,-5.3234,-5.2969,0.0,0.0,0.0,0.0,0.0,0.0,0.0,-3.1794,-3.29,-3.3562,-3.5823,-3.7579,-3.8189,-3.929,-3.9986,-3.9954,-3.9986,-3.9706,-3.8947,-3.9061,0.0,0.0,0.0,-4.2382,-4.3134,-4.4855,-4.5468,-4.4914,-4.5407,-4.5444,-4.501,-4.495,-4.5152,-4.5615,-4.6074,-4.6503,-4.6856,-4.7053,-4.6858,-4.6374,-4.56,-4.5051,-4.4556,-4.3646,-4.3025,-4.2526,-4.1282,-4.0572,-4.0125,-3.9799,0.0,0.0,0.0,0.0,0.0,0.0,0.0,0.0,0.0,0.0,0.0,0.0,0.0,0.0,0.0,0.0,0.0,0.0,0.0,0.0,0.0,0.0,0.0,0.0,-4.6238,-4.7504,-4.8685,-4.8799,-4.9227,-5.0557,-5.0992,-5.1705,-5.3074,-5.3524,-5.4033,-5.4859,-5.528,-5.5788,-5.6462,-5.6033,-5.579,-5.5828,-5.5229,-5.4819,-5.469,-5.5579,-5.6395,-5.6989,-5.6878,-5.7212,-5.7955,-5.6432,-5.5949,-5.6246,-5.502,-5.4686,-5.4983,-5.45,-5.4314,0.0,0.0,0.0,0.0,0.0,-5.2938,-5.3119,0.0,0.0,0.0,0.0,0.0,0.0,0.0,-3.1441,-3.2499,-3.4118,-3.5649,-3.7171,-3.8629,-3.9457,-3.9873,-3.977,-3.9781,-3.9551,-3.8947,0.0,0.0,-4.0234,-4.1914,-4.3132,-4.3768,-4.468,-4.5062,-4.4914,-4.499,-4.5026,-4.501,-4.495,-4.5392,-4.6233,-4.6347,-4.6765,-4.7424,-4.6843,-4.656,-4.645,-4.5704,-4.5382,-4.5201,-4.4312,-4.393,-4.3663,-4.2068,-4.1428,-4.1256,-4.0616,0.0,0.0,0.0,0.0,0.0,0.0,0.0,0.0,0.0,0.0,0.0,0.0,0.0,0.0,0.0,0.0,0.0,0.0,0.0,0.0,0.0,0.0,0.0,0.0,-4.6873,-4.7972,-4.9302,-4.9662,-5.0037,-5.0729,-5.1555,-5.2381,-5.3261,-5.3958,-5.4747,-5.5555,-5.5617,-5.6311,-5.7865,0.0,0.0,0.0,0.0,-5.5658,-5.4429,-5.636,-5.71,-5.658,-5.7212,-5.7918,-5.8624,-5.6246,-5.5689,-5.6469,-5.4797,-5.4537,-5.528,-5.5206,-5.5094,-5.4946,-5.4128,-5.3423,-5.2791,-5.1955,-5.2029,-5.2527,0.0,0.0,0.0,0.0,0.0,0.0,0.0,-3.1833,-3.2507,-3.4255,-3.5721,-3.6964,-3.7912,-3.9155,-3.9688,-3.9137,-3.9099,-3.9069,0.0,0.0,-3.9819,-4.1236,-4.283,-4.3711,-4.3797,-4.5261,-4.567,-4.4914,-4.5596,-4.5633,-4.501,-4.495,-4.5026,-4.5288,-4.5961,-4.6328,-4.6518,-4.7086,-4.6956,-4.642,-4.6241,-4.5851,-4.5201,-4.4312,-4.3586,-4.2908,-4.1877,-4.1065,-4.0528,-4.0363,-4.0386,-4.0482,-4.0466,0.0,0.0,0.0,0.0,0.0,0.0,0.0,0.0,0.0,0.0,0.0,0.0,0.0,0.0,0.0,0.0,0.0,0.0,0.0,0.0,-4.7753,-4.8964,-4.9765,-4.9512,-5.059,-5.1436,-5.1652,-5.2419,-5.3261,-5.4071,-5.4296,-5.4747,-5.5555,-5.616,-5.663,-5.6948,-5.7342,-5.7285,-5.6631,-5.5827,-5.5919,-5.6888,-5.6657,-5.71,-5.8252,0.0,0.0,-5.8661,-5.6878,-5.684,-5.8141,-5.6506,-5.6283,-5.6989,-5.632,-5.5652,-5.4946,-5.4128,-5.4091,-5.4443,-5.3452,-5.3247,-5.3395,0.0,0.0,0.0,0.0,0.0,0.0,0.0,-3.2559,-3.3158,-3.4845,-3.5637,-3.651,-3.7662,-3.8418,-3.8707,-3.8397,-3.8046,-3.8185,0.0,-3.873,-3.9618,-4.195,-4.2865,-4.3662,-4.4372,-4.5247,-4.5428,-4.4914,-4.5331,-4.538,-4.5057,-4.4962,-4.4962,-4.5057,-4.5442,-4.5595,-4.5558,-4.6049,-4.606,-4.5703,-4.5703,-4.5495,-4.5164,-4.4766,-4.4069,-4.3257,-4.243,-4.1629,-4.0854,-4.0451,-4.0351,-4.0441,-4.0415,-4.0631,-4.0834,0.0,0.0,0.0,0.0,0.0,0.0,0.0,0.0,0.0,0.0,0.0,0.0,0.0,0.0,-4.5903,-4.5903,0.0,-4.7339,-4.8137,-4.8904,-4.9565,-5.0016,-5.1485,-5.2369,-5.1952,-5.2682,-5.3524,-5.4334,-5.4409,-5.4747,-5.5555,-5.5917,-5.6293,-5.6668,-5.7398,-5.7416,-5.6631,-5.6461,-5.659,-5.6999,-5.6918,-5.7286,-5.8103,-5.7695,-5.7918,-5.8624,-5.658,-5.6543,-5.8029,-5.6357,-5.6357,-5.7435,-5.6617,-5.6283,-5.6077,-5.4405,-5.3996,-5.4332,-5.3805,-5.3617,-5.3674,0.0,0.0,0.0,0.0,0.0,0.0,0.0,-3.3214,-3.3783,-3.5449,-3.557,-3.6068,-3.7463,-3.7732,-3.7732,-3.7602,-3.6974,0.0,0.0,-3.8514,-3.9614,-4.2406,-4.2927,-4.3738,-4.5007,-4.508,-4.5045,-4.495,-4.4926,-4.4974,-4.508,-4.4974,-4.4974,-4.5068,-4.501,-4.5038,-4.5141,-4.519,-4.5214,-4.5214,-4.519,-4.515,-4.5057,-4.5103,-4.4505,-4.3564,-4.2952,-4.2115,-4.1141,-4.0482,-4.0307,-4.0389,-4.0372,-4.0805,-4.1255,-4.079,-4.0928,0.0,0.0,0.0,0.0,0.0,0.0,0.0,0.0,0.0,-4.5885,-4.621,-4.6876,-4.7401,-4.7344,-4.6982,-4.7118,-4.8469,-4.8709,-4.9251,-5.0745,-5.2231,-5.289,-5.2231,-5.2907,-5.3712,-5.4334,-5.4409,-5.4747,-5.5555,-5.556,-5.5787,-5.6461,-5.7342,-5.7435,-5.6631,-5.7301,-5.7372,-5.6848,-5.731,-5.7604,-5.7732,-5.7732,-5.8066,-5.8624,-5.632,-5.606,-5.7435,-5.606,-5.6246,-5.7455,-5.6617,-5.658,-5.6783,-5.4568,-5.3716,-5.3774,-5.3657,-5.3674,-5.3674,0.0,0.0,0.0,0.0,0.0,0.0,0.0,0.0,-3.3899,-3.5577,-3.5653,-3.5917,-3.682,-3.7447,-3.7578,-3.696,0.0,0.0,-3.7932,-3.9353,-4.087,-4.2598,-4.407,-4.4946,-4.5181,-4.508,-4.5045,-4.508,-4.4974,-4.495,-4.5022,-4.495,-4.4926,-4.4938,-4.4926,-4.5343,-4.6051,-4.6001,-4.6013,-4.6051,-4.5936,-4.5469,-4.4852,-4.4852,-4.3976,-4.2743,-4.2585,-4.1573,-4.031,-4.0157,-4.0196,-4.0298,-4.0253,-4.0282,-4.0482,-4.1271,0.0,-4.0545,-4.2163,-4.3005,-4.3482,-4.3704,-4.4258,-4.5002,0.0,0.0,-4.6276,-4.7074,-4.7734,-4.8158,-4.8181,-4.8702,-4.9393,-5.0294,-5.0327,-5.0611,-5.1614,-5.2503,-5.3048,-5.3057,-5.377,-5.4296,-5.4409,-5.4409,-5.4747,-5.5555,-5.5593,-5.5613,-5.5726,-5.7098,-5.7492,-5.6631,-5.7378,-5.799,-5.8459,-5.785,-5.7925,-5.8586,-5.8586,-5.8624,-5.8661,-5.6952,-5.6655,-5.7509,-5.7323,-5.7364,-5.7518,-5.6657,-5.5912,-5.5186,-5.4123,-5.3714,-5.3657,-5.342,-5.3498,-5.3654,0.0,0.0,0.0,0.0,0.0,0.0,0.0,0.0,0.0,-3.5724,-3.5757,-3.5829,-3.614,-3.6431,-3.6458,0.0,0.0,0.0,-3.8531,-3.9331,-4.0854,-4.3295,-4.4086,-4.4685,-4.5148,-4.5091,-4.5045,-4.4998,-4.4938,-4.495,-4.501,-4.495,-4.4938,-4.4974,-4.5469,-4.5862,-4.6241,-4.6631,-4.6542,-4.6139,-4.6035,-4.548,-4.4751,-4.4699,-4.3706,-4.2439,-4.3046,-4.1895,0.0,0.0,-4.0587,-4.0243,-4.0215,-4.0864,-4.1657,-4.1552,-4.1934,0.0,-4.284,-4.3446,-4.4031,0.0,-4.5156,-4.5862,-4.6683,-4.7173,-4.7573,-4.7994,-4.8654,-4.9135,-4.9178,-4.9008,-4.9122,0.0,-5.04,-5.0986,-5.1898,-5.3057,-5.3866,-5.3967,-5.4267,-5.4422,-5.4409,-5.4422,-5.4572,-5.4897,-5.4897,-5.507,-5.5414,-5.6519,-5.7135,-5.7129,-5.7464,-5.8002,-5.8818,-5.7979,-5.7979,-5.8818,-5.8756,-5.8698,-5.8661,-5.7509,-5.6952,-5.684,-5.7806,-5.7678,-5.6826,-5.6452,-5.576,-5.4828,-5.395,-5.3578,-5.3558,-5.3359,-5.3359,-5.3457,0.0,0.0,0.0,0.0,0.0,0.0,0.0,0.0,0.0,0.0,-3.5801,-3.578,-3.5708,-3.5684,-3.5713,0.0,0.0,0.0,0.0,-3.9531,-4.1016,-4.3479,-4.4041,0.0,-4.5136,-4.5114,-4.5057,-4.4962,-4.4926,-4.495,-4.501,-4.495,-4.4938,-4.4986,-4.5558,-4.6064,-4.6543,-4.7059,-4.6944,-4.6388,-4.6334,-4.5652,-4.4646,-4.4592,-4.3879,-4.2976,-4.3555,-4.2362,0.0,0.0,-4.1322,-4.0662,-4.0836,-4.159,-4.2364,-4.2288,-4.334,-4.4336,-4.3519,0.0,0.0,-4.5398,-4.6031,-4.6721,-4.7515,-4.8077,-4.8503,-4.8559,-4.9183,-4.9646,-4.9452,-4.9042,-4.9083,-5.0109,-5.0598,-5.1299,-5.2564,-5.336,-5.4016,-5.4533,-5.4393,-5.4339,-5.4418,-5.4489,-5.4472,-5.4409,-5.4409,-5.4678,-5.5323,-5.6145,-5.6929,-5.7553,-5.7776,-5.8226,-5.8902,-5.8243,-5.8223,-5.8899,-5.8739,-5.8698,-5.8661,-5.7881,-5.7083,-5.6397,-5.755,-5.7289,-5.5988,-5.5949,-5.5407,-5.4509,-5.3759,-5.344,-5.342,-5.3318,-5.3277,-5.3297,0.0,0.0,0.0,0.0,0.0,0.0,0.0,0.0,0.0,0.0,0.0,0.0,0.0,0.0,0.0,0.0,0.0,0.0,0.0,-4.0227,-4.1904,-4.2795,-4.4287,-4.5098,-4.5192,-4.5136,-4.5103,-4.5103,-4.4974,-4.495,-4.501,-4.495,-4.4914,-4.4914,-4.4852,-4.576,-4.7259,-4.7205,-4.7137,-4.7081,-4.7066,-4.6045,-4.4496,-4.4496,-4.4554,-4.4524,-4.3926,0.0,0.0,0.0,-4.2338,-4.1771,-4.2497,-4.223,0.0,-4.3614,-4.479,-4.5328,0.0,0.0,-4.6402,-4.6385,-4.6882,-4.7605,-4.8439,-4.8613,-4.861,-4.861,-4.9183,-4.9457,-4.8672,-4.9089,-5.0094,-5.1737,-5.139,-5.1699,-5.4107,-5.3255,-5.2968,-5.4594,-5.4162,-5.3949,0.0,-5.4554,-5.4472,-5.4409,-5.4409,-5.4733,-5.5451,-5.6237,-5.7024,-5.777,-5.8574,-5.8984,-5.8984,-5.8902,-5.8879,-5.8899,-5.8739,-5.8698,-5.8661,-5.7881,-5.7124,-5.6384,-5.6441,-5.5993,-5.5229,-5.5096,-5.4496,-5.3711,-5.3437,-5.3318,-5.3297,-5.323,-5.3251,-5.3297,0.0,0.0,0.0,0.0,0.0,0.0,0.0,0.0,0.0,0.0,0.0,0.0,0.0,0.0,0.0,0.0,0.0,0.0,0.0,-4.0123,-4.1519,-4.2804,-4.3934,-4.4459,-4.4406,-4.4881,-4.5132,-4.5045,-4.4962,-4.4926,-4.495,-4.4926,-4.4889,-4.484,-4.5395,-4.5961,-4.6488,-4.6989,-4.6873,-4.6313,-4.6313,-4.5988,-4.5488,-4.5504,-4.5622,-4.5834,0.0,0.0,0.0,0.0,0.0,0.0,-4.2765,-4.3005,0.0,-4.4764,-4.5355,-4.5615,-4.5793,0.0,-4.669,-4.7727,-4.8137,-4.849,-4.9324,-4.9487,-4.9308,-4.8737,-4.873,-4.8612,-4.7772,-4.8296,-4.897,-4.9506,-5.0839,-5.2092,-5.2884,-5.3481,-5.4078,-5.4683,-5.4503,0.0,0.0,0.0,0.0,-5.4472,-5.4455,-5.5023,-5.6271,-5.6592,-5.7286,-5.8536,-5.8813,-5.8982,-5.9139,-5.8882,-5.8821,-5.8962,-5.8781,-5.8698,-5.8698,-5.8438,-5.7864,-5.7124,-5.7183,-5.6699,-5.5934,-5.5916,-5.5315,-5.4334,-5.4273,-5.3817,-5.323,-5.3225,-5.3209,-5.323,0.0,0.0,0.0,0.0,0.0,0.0,0.0,0.0,0.0,0.0,0.0,0.0,0.0,0.0,0.0,0.0,0.0,0.0,0.0,0.0,-4.1131,-4.2433,-4.3316,-4.3693,-4.3627,-4.4095,-4.427,-4.4155,-4.4098,-4.4192,-4.4459,-4.4459,-4.4574,-4.4815,-4.533,-4.5733,-4.6035,-4.6865,-4.6941,-4.6474,-4.6803,-4.6768,-4.6555,-4.6518,-4.6833,0.0,0.0,0.0,0.0,0.0,0.0,0.0,-4.3693,-4.4078,-4.4612,-4.5266,-4.5438,-4.5602,-4.6367,-4.6702,-4.7155,-4.8441,-4.8985,-4.9275,-4.9779,-4.9866,-4.9522,-4.8318,-4.8263,-4.8159,-4.7397,-4.7885,-4.8598,-4.9202,-5.0747,-5.2008,-5.2553,-5.3369,-5.4133,-5.4738,-5.4511,-5.4412,0.0,0.0,0.0,-5.4472,-5.479,-5.5508,-5.6683,-5.7022,-5.7791,-5.9025,-5.8982,-5.9002,-5.9177,-5.894,-5.8821,-5.8962,-5.8821,-5.8777,-5.8698,-5.8698,-5.8252,-5.7509,-5.7613,-5.7146,-5.6283,-5.6067,-5.5483,-5.4663,-5.4326,-5.3797,-5.3203,-5.3203,-5.3203,-5.3203,0.0,0.0,0.0,0.0,0.0,0.0,0.0,0.0,0.0,0.0,0.0,0.0,0.0,0.0,0.0,0.0,0.0,0.0,0.0,0.0,0.0,-4.1717,-4.2475,-4.2846,-4.2846,-4.2833,-4.2775,-4.2675,-4.265,-4.3019,-4.3777,-4.3701,-4.4082,-4.4815,-4.4672,-4.51,-4.5987,-4.687,-4.7288,-4.7428,-4.8353,-4.8276,-4.7592,-4.7604,0.0,0.0,0.0,0.0,0.0,0.0,0.0,0.0,0.0,-4.5331,-4.5126,-4.518,-4.5159,-4.5295,-4.621,-4.7003,-4.7769,-4.8554,-4.9364,-4.9973,-4.9868,-4.9838,-4.9315,-4.7507,-4.7834,-4.8215,0.0,0.0,-4.8994,-5.0671,-5.0984,-5.1555,-5.3088,-5.2868,-5.3162,0.0,0.0,0.0,0.0,0.0,0.0,-5.4463,0.0,-5.6076,-5.6686,-5.7584,-5.8446,-5.9196,-5.9081,-5.9043,-5.9196,-5.902,-5.8899,-5.8899,-5.8899,-5.8838,-5.8698,-5.8698,-5.8252,-5.7509,-5.7729,-5.7205,-5.6246,-5.5526,-5.5018,-5.4626,-5.3728,-5.3309,-5.3203,-5.3203,-5.3203,-5.3203,0.0,0.0,0.0,0.0,0.0,0.0,0.0,0.0,0.0,0.0,0.0,0.0,0.0,0.0,0.0,0.0,0.0,0.0,0.0,0.0,0.0,0.0,0.0,0.0,0.0,0.0,0.0,0.0,0.0,-4.3308,-4.4645,-4.399,-4.4106,0.0,-4.4802,-4.489,-4.5155,-4.6102,-4.6468,-4.6531,0.0,-4.8181,-4.8632,0.0,0.0,0.0,0.0,0.0,0.0,0.0,0.0,0.0,0.0,-4.5203,-4.5203,-4.5175,-4.5132,-4.543,-4.6877,-4.7364,-4.7808,-4.9248,-4.9754,-4.9768,-4.92,-4.9568,-4.9353,-4.7023,-4.7744,-4.8313,0.0,0.0,0.0,-4.9105,-5.0241,0.0,-5.2309,-5.2839,0.0,-5.45,0.0,-5.4339,-5.4489,-5.4538,0.0,0.0,-5.5621,-5.6144,-5.6882,-5.7656,-5.8446,-5.9253,-5.9082,-5.9043,-5.9196,-5.9061,-5.8982,-5.8982,-5.894,-5.8879,-5.8838,-5.8756,-5.8252,-5.7509,-5.7613,-5.7146,-5.6283,-5.6043,-5.5441,-5.4663,-5.4375,-5.3844,-5.3203,-5.3203,-5.3203,-5.3203,0.0,0.0,0.0,0.0,0.0,0.0,0.0,0.0,0.0,0.0,0.0,0.0,0.0,0.0,0.0,0.0,0.0,0.0,0.0,0.0,0.0,0.0,0.0,0.0,0.0,0.0,0.0,0.0,0.0,0.0,0.0,-4.2989,-4.322,-4.4383,-4.4272,-4.4498,-4.5024,0.0,0.0,0.0,0.0,0.0,0.0,0.0,0.0,0.0,0.0,0.0,0.0,0.0,0.0,-4.5291,-4.4995,-4.4926,-4.4926,-4.501,0.0,-4.5797,-4.7174,-4.7758,-4.8287,-4.9589,-4.9866,-4.9662,-4.8907,-4.9073,-4.8935,-4.7186,-4.765,0.0,-4.7132,0.0,0.0,0.0,0.0,0.0,-5.1939,-5.2551,-5.3299,0.0,-5.4538,0.0,-5.4439,-5.4472,-5.4811,0.0,-5.6073,-5.6671,-5.7446,-5.8219,-5.884,-5.929,-5.914,-5.9119,-5.9196,-5.9081,-5.9024,-5.91,-5.9041,-5.898,-5.8879,-5.8838,-5.8516,-5.8029,0.0,-5.7685,-5.6803,-5.6395,-5.5643,-5.4663,-5.4207,-5.3697,-5.3203,-5.3203,-5.3203,-5.3203,0.0,0.0,0.0,0.0,0.0,0.0,0.0,0.0,0.0,0.0,0.0,0.0,0.0,0.0,0.0,0.0,0.0,0.0,0.0,0.0,0.0,0.0,0.0,0.0,0.0,0.0,0.0,0.0,0.0,0.0,0.0,0.0,0.0,0.0,0.0,0.0,0.0,0.0,0.0,0.0,0.0,0.0,0.0,0.0,0.0,0.0,0.0,0.0,0.0,0.0,-4.6181,-4.5126,-4.4789,-4.4605,-4.4575,-4.4825,-4.543,-4.6237,-4.7327,-4.8137,-4.8907,-4.9703,-4.98,-4.9442,-4.8624,-4.8539,-4.839,-4.7402,0.0,-4.8028,-4.7869,-4.8383,-4.8922,-4.9062,0.0,-5.0289,-5.203,-5.2227,-5.2808,-5.4468,-5.4538,-5.4489,-5.4489,-5.4505,-5.4848,-5.5723,-5.6524,-5.7331,-5.8051,-5.8877,-5.929,-5.9272,-5.9215,-5.9177,-5.9196,-5.9081,-5.9063,-5.9215,-5.9177,-5.9061,-5.892,-5.8879,-5.8743,-5.8549,-5.8801,-5.8223,-5.7138,-5.6486,-5.5549,-5.4478,-5.3633,-5.3272,-5.3203,-5.3203,-5.3203,-5.3203,0.0,0.0,0.0,0.0,0.0,0.0,0.0,0.0,0.0,0.0,-3.5801,0.0,0.0,0.0,0.0,0.0,0.0,0.0,0.0,0.0,0.0,0.0,0.0,0.0,0.0,0.0,0.0,0.0,0.0,0.0,0.0,0.0,0.0,0.0,0.0,0.0,0.0,0.0,0.0,0.0,0.0,0.0,0.0,0.0,0.0,0.0,0.0,0.0,0.0,0.0,-4.711,-4.5071,-4.4713,-4.4605,-4.4729,-4.5341,-4.5803,-4.6441,-4.798,-4.8551,-4.8907,-4.9703,-4.9386,-4.8653,-4.7782,-4.8301,0.0,0.0,-4.8053,-4.972,-4.8308,-4.9207,-5.0363,-5.1006,0.0,0.0,0.0,0.0,-5.2686,0.0,0.0,0.0,-5.4426,-5.4472,0.0,0.0,-5.6862,-5.7331,-5.8051,-5.8877,-5.9253,-5.9215,-5.9119,-5.91,-5.9196,-5.9081,-5.9082,-5.9272,-5.9101,-5.9004,-5.9002,-5.8801,-5.8384,-5.7769,-5.8459,0.0,-5.5446,-5.5805,-5.5073,-5.3682,-5.3366,-5.3188,-5.3203,-5.3203,-5.3203,-5.3203,0.0,0.0,0.0,0.0,0.0,0.0,0.0,0.0,0.0,0.0,-3.5801,-3.5758,0.0,0.0,0.0,0.0,0.0,0.0,0.0,0.0,0.0,0.0,0.0,0.0,0.0,0.0,0.0,0.0,0.0,0.0,0.0,0.0,0.0,0.0,0.0,0.0,0.0,0.0,0.0,0.0,0.0,0.0,0.0,0.0,0.0,0.0,0.0,0.0,0.0,0.0,-4.7361,-4.5753,-4.5407,-4.5657,-4.6063,-4.5919,-4.6654,-4.7669,-4.8529,-4.9034,-4.9424,-4.9762,-4.9191,-4.8445,-4.8083,0.0,0.0,0.0,-4.8355,-4.925,-4.8884,0.0,0.0,0.0,0.0,0.0,0.0,0.0,0.0,0.0,0.0,0.0,0.0,-5.4522,-5.5237,-5.6792,-5.6975,-5.7519,-5.8652,-5.9102,-5.9272,-5.9272,-5.9158,-5.9158,-5.9253,-5.9063,-5.9101,-5.929,-5.9101,-5.9004,-5.8984,-5.8862,-5.833,-5.7509,-5.7918,-5.6874,-5.4959,-5.5188,-5.4531,-5.338,-5.3251,-5.3203,-5.3203,-5.3203,-5.3203,-5.3203,0.0,0.0,0.0,0.0,0.0,0.0,0.0,-3.5745,-3.5806,-3.5784,-3.5801,-3.5763,-3.5718,-3.5737,-3.58,0.0,0.0,0.0,0.0,0.0,0.0,0.0,0.0,0.0,0.0,0.0,0.0,0.0,0.0,0.0,0.0,0.0,0.0,0.0,0.0,0.0,0.0,0.0,0.0,0.0,0.0,0.0,0.0,0.0,0.0,0.0,0.0,0.0,0.0,0.0,-4.7726,-4.6975,-4.643,-4.6847,-4.7352,-4.6531,-4.7327,-4.8618,-4.9024,-4.9378,-4.9676,-4.9783,-4.8971,-4.8225,-4.8459,-4.753,0.0,0.0,-4.8739,-4.8808,-4.9345,0.0,0.0,0.0,0.0,0.0,0.0,0.0,0.0,0.0,0.0,0.0,0.0,0.0,0.0,-5.6827,-5.7276,-5.801,-5.9253,-5.929,-5.929,-5.929,-5.9234,-5.9234,-5.929,-5.9101,-5.9101,-5.929,-5.9063,-5.8965,-5.8984,-5.8882,-5.8371,-5.7509,-5.7509,-5.652,-5.4879,-5.4741,-5.4179,-5.3339,-5.323,-5.3225,-5.3209,-5.3225,-5.3203,-5.3203,0.0,0.0,0.0,0.0,0.0,0.0,0.0,-3.5745,-3.5806,-3.5784,-3.5801,-3.5806,-3.578,-3.5775,-3.6076,0.0,0.0,0.0,0.0,0.0,0.0,0.0,0.0,0.0,0.0,0.0,0.0,0.0,0.0,0.0,0.0,0.0,0.0,0.0,0.0,0.0,0.0,0.0,0.0,0.0,0.0,0.0,0.0,0.0,0.0,0.0,0.0,0.0,0.0,0.0,0.0,-4.8695,-4.7808,-4.7548,-4.7538,-4.734,0.0,0.0,-4.9467,-4.9377,-4.8956,-4.9631,-4.8596,-4.7626,-4.8412,0.0,0.0,-4.7952,-4.9283,-5.0161,-4.9431,-4.9997,0.0,0.0,0.0,0.0,0.0,0.0,0.0,0.0,0.0,0.0,0.0,0.0,0.0,-5.6877,-5.8293,-5.9158,-5.929,-5.929,-5.929,-5.929,-5.9234,-5.9234,-5.929,-5.9101,-5.9101,-5.929,-5.9022,-5.8922,-5.8984,-5.8801,-5.8252,-5.7509,-5.7509,-5.652,0.0,-5.4741,-5.4219,-5.344,-5.3272,-5.3251,-5.3277,-5.3209,-5.3203,-5.3203,0.0,0.0,0.0,0.0,0.0,0.0,0.0,-3.5793,-3.5806,-3.5784,-3.5801,-3.5806,-3.5784,-3.6289,-3.6711,0.0,0.0,0.0,0.0,0.0,0.0,0.0,0.0,0.0,0.0,0.0,0.0,-4.0605,0.0,0.0,0.0,0.0,0.0,0.0,0.0,0.0,0.0,0.0,0.0,0.0,0.0,0.0,0.0,0.0,0.0,0.0,0.0,0.0,0.0,0.0,0.0,0.0,-4.7144,-4.7788,0.0,0.0,-4.8348,-4.85,-4.921,-4.9024,-4.8562,-4.829,-4.7748,-4.7486,-4.844,0.0,0.0,-4.836,-4.8922,-4.9163,-4.9317,-5.0028,-5.0668,0.0,0.0,0.0,0.0,0.0,0.0,0.0,0.0,0.0,0.0,0.0,-5.5818,-5.7379,-5.8503,-5.912,-5.912,-5.9215,-5.9253,-5.9253,-5.9215,-5.9234,-5.929,-5.9061,-5.9061,-5.929,-5.8942,-5.8862,-5.8984,-5.828,-5.7546,-5.6766,-5.6209,-5.5295,0.0,-5.4038,-5.3736,-5.3359,-5.323,-5.3209,-5.323,-5.3188,-5.3203,-5.3203,0.0,0.0,0.0,0.0,0.0,0.0,-3.578,-3.5801,-3.581,-3.5793,-3.5806,-3.5888,-3.6142,-3.6962,-3.7467,-3.7467,0.0,0.0,0.0,0.0,0.0,0.0,0.0,0.0,0.0,0.0,-4.0668,-4.0647,-4.0605,-4.0531,0.0,0.0,0.0,0.0,0.0,0.0,0.0,0.0,0.0,0.0,0.0,0.0,0.0,0.0,0.0,0.0,0.0,0.0,0.0,0.0,0.0,0.0,0.0,0.0,0.0,0.0,-4.9017,-4.9071,-4.9373,-4.9084,-4.8643,-4.8185,-4.7907,-4.7959,0.0,0.0,0.0,-4.8864,-4.8837,-4.8616,-4.9231,-4.9997,-5.0489,0.0,0.0,0.0,0.0,0.0,0.0,0.0,0.0,-5.3177,0.0,-5.5145,-5.6349,-5.7379,-5.8406,-5.9004,-5.9004,-5.9061,-5.9157,-5.9177,-5.9158,-5.9196,-5.929,-5.9022,-5.9002,-5.929,-5.8882,-5.8652,-5.8572,-5.7813,-5.6915,-5.5874,-5.528,-5.4516,0.0,-5.3558,-5.344,-5.3339,-5.323,-5.3188,-5.323,-5.3225,-5.3203,-5.3203,0.0,0.0,0.0,0.0,0.0,0.0,0.0,-3.5801,-3.5814,-3.5814,-3.5814,-3.6125,-3.6984,-3.7877,-3.8387,-3.8387,0.0,0.0,0.0,0.0,0.0,0.0,0.0,0.0,0.0,0.0,-4.072,-4.072,-4.0647,-4.0552,-4.0516,-4.1314,-4.2117,0.0,0.0,0.0,0.0,0.0,0.0,0.0,0.0,0.0,0.0,0.0,0.0,0.0,0.0,0.0,0.0,0.0,0.0,0.0,0.0,0.0,0.0,0.0,-4.9207,-4.9398,-5.0232,-4.9762,-4.9202,-4.9971,-4.9501,-4.9155,0.0,0.0,0.0,-4.9173,-4.9306,-4.9196,-4.9196,-4.9871,-5.0344,-5.0152,0.0,0.0,0.0,0.0,0.0,0.0,0.0,0.0,-5.3299,-5.5572,-5.6903,-5.6723,-5.8108,0.0,-5.9004,-5.8922,-5.9,-5.9177,-5.9081,-5.9101,-5.929,-5.9022,-5.9,-5.9177,-5.8862,-5.8293,-5.7613,-5.755,-5.658,-5.502,-5.502,-5.4516,0.0,-5.3558,-5.3481,-5.3461,-5.3272,-5.3251,-5.3297,-5.3209,-5.3203,-5.3203,0.0,0.0,0.0,0.0,0.0,0.0,0.0,-3.581,-3.581,-3.5793,-3.5806,-3.6121,-3.7001,-3.7873,-3.8154,-3.7566,0.0,0.0,0.0,0.0,0.0,0.0,0.0,0.0,0.0,0.0,-4.0746,-4.072,-4.1285,-4.1514,-4.1478,-4.2271,-4.3094,-4.385,-4.4104,0.0,0.0,0.0,0.0,0.0,0.0,0.0,0.0,0.0,0.0,0.0,0.0,0.0,0.0,0.0,0.0,0.0,0.0,0.0,0.0,-4.9823,-4.9667,0.0,-4.9503,-4.887,-4.801,-4.7694,-4.7835,-4.8174,-4.8592,0.0,0.0,0.0,-4.9336,-4.9276,-4.9276,-4.9893,-5.0532,-5.1011,0.0,0.0,0.0,0.0,0.0,0.0,0.0,0.0,0.0,0.0,-5.6761,-5.7283,-5.7707,-5.7722,-5.7164,-5.7124,-5.7705,-5.8962,-5.8363,-5.8143,-5.8353,-5.7523,-5.7523,-5.8297,-5.8022,-5.7773,-5.7576,-5.6955,-5.606,-5.4963,-5.4385,-5.3957,-5.3754,-5.3481,-5.342,-5.3461,-5.3272,-5.3188,-5.323,-5.3225,-5.3124,-5.3082,0.0,0.0,0.0,0.0,0.0,0.0,0.0,-3.5806,-3.5797,-3.5784,-3.5793,-3.6147,-3.6992,-3.7592,-3.78,-3.7605,0.0,0.0,0.0,0.0,0.0,0.0,0.0,0.0,0.0,-4.0802,-4.0777,-4.0739,-4.1576,-4.1967,-4.1962,-4.305,-4.3874,-4.4342,-4.4628,0.0,0.0,0.0,0.0,0.0,0.0,0.0,-4.5398,0.0,0.0,0.0,0.0,0.0,0.0,0.0,0.0,0.0,0.0,0.0,0.0,0.0,-4.946,-4.8805,0.0,-4.8583,-4.7809,-4.759,-4.7924,0.0,0.0,0.0,0.0,0.0,0.0,0.0,0.0,0.0,0.0,0.0,0.0,0.0,0.0,0.0,0.0,0.0,0.0,0.0,0.0,-5.5901,-5.6497,-5.6605,-5.7178,-5.7138,-5.6357,-5.632,-5.6786,-5.7871,-5.7347,-5.7317,-5.7941,-5.7109,-5.7238,-5.8334,-5.7742,-5.7344,-5.7029,-5.6132,-5.5332,-5.4459,-5.3879,-5.3676,0.0,-5.342,-5.3359,-5.34,-5.3251,-5.3203,-5.3203,-5.3203,-5.3124,-5.3082,0.0,0.0,0.0,0.0,0.0,0.0,0.0,0.0,0.0,0.0,-3.5818,-3.6133,-3.6987,-3.7165,-3.7528,0.0,0.0,0.0,0.0,0.0,0.0,0.0,0.0,0.0,0.0,-4.082,-4.084,-4.0887,-4.1706,-4.211,-4.2219,-4.3775,-4.4506,-4.4537,-4.5222,-4.5457,-4.54,-4.5329,-4.5288,-4.5277,-4.5277,-4.5347,0.0,0.0,0.0,0.0,0.0,0.0,0.0,0.0,0.0,0.0,0.0,0.0,0.0,0.0,0.0,0.0,0.0,-4.8625,-4.8202,-4.9086,-4.9317,-4.9327,0.0,0.0,0.0,0.0,0.0,0.0,0.0,0.0,0.0,0.0,0.0,0.0,0.0,0.0,0.0,0.0,0.0,0.0,-5.2846,-5.5136,-5.6201,-5.5096,-5.6469,-5.6989,-5.6172,-5.6134,-5.6134,-5.6134,-5.5997,-5.6529,-5.7791,-5.7292,-5.7604,-5.8723,-5.7796,-5.6854,-5.5994,-5.5232,-5.4434,0.0,-5.3558,-5.3558,-5.3674,-5.338,-5.3297,-5.3318,-5.323,-5.3225,-5.3225,-5.3225,-5.3167,-5.3182,0.0,0.0,0.0,0.0,0.0,0.0,0.0,0.0,0.0,0.0,0.0,-3.6124,-3.6925,-3.7661,0.0,0.0,0.0,0.0,0.0,0.0,0.0,0.0,0.0,0.0,0.0,-4.0792,-4.1099,-4.1738,-4.2563,-4.3276,-4.3875,-4.4978,-4.5457,-4.5393,-4.556,-4.5559,-4.54,-4.5329,-4.5288,-4.5277,-4.5181,-4.5213,0.0,0.0,0.0,0.0,-4.5357,-4.5367,0.0,0.0,0.0,0.0,0.0,0.0,0.0,0.0,-4.7817,-4.724,-4.7432,0.0,-4.7391,-4.8211,-4.846,-4.8632,0.0,0.0,0.0,0.0,0.0,0.0,0.0,0.0,0.0,0.0,0.0,0.0,0.0,0.0,0.0,0.0,-5.4025,-5.4334,-5.4761,-5.5212,-5.5341,-5.5173,-5.5431,-5.5243,-5.4426,-5.4388,-5.4388,-5.4388,-5.4328,-5.4758,-5.5846,-5.5041,-5.5133,-5.6106,-5.5706,-5.5401,-5.5158,-5.4892,-5.4256,-5.338,-5.3359,-5.3359,-5.338,-5.3272,-5.3314,-5.342,-5.3251,-5.323,-5.3256,-5.3209,-5.3124,-5.3039,0.0,0.0,0.0,0.0,0.0,0.0,0.0,0.0,0.0,0.0,0.0,0.0,0.0,0.0,0.0,0.0,0.0,0.0,0.0,0.0,0.0,0.0,0.0,0.0,-4.0842,-4.0815,-4.1201,-4.2041,-4.2892,-4.3722,-4.4491,-4.5394,-4.5765,-4.5758,-4.5693,-4.5559,-4.54,-4.5329,-4.5267,-4.5235,-4.5148,0.0,0.0,0.0,0.0,0.0,-4.5256,-4.5277,0.0,-4.5298,-4.5288,-4.5451,0.0,0.0,0.0,0.0,-4.6952,-4.6251,-4.6334,-4.6621,-4.7074,-4.7894,-4.8412,-4.8845,-4.9288,0.0,0.0,0.0,0.0,0.0,0.0,0.0,0.0,0.0,0.0,0.0,0.0,0.0,0.0,0.0,-5.4337,-5.4455,0.0,-5.5044,-5.4987,-5.4577,-5.4816,-5.4648,-5.3831,-5.3794,-5.3794,-5.3794,-5.3774,-5.4183,-5.5174,-5.4611,-5.4778,-5.5712,-5.5164,-5.4839,-5.4757,-5.4289,-5.3764,-5.3235,-5.2867,-5.2904,-5.3198,-5.2805,-5.2962,-5.338,-5.3251,-5.3251,-5.3297,-5.3167,-5.3103,-5.306,0.0,0.0,0.0,0.0,0.0,0.0,0.0,0.0,0.0,0.0,0.0,0.0,0.0,0.0,0.0,0.0,0.0,0.0,0.0,0.0,0.0,0.0,0.0,-4.0893,-4.0902,-4.0953,-4.143,-4.2279,-4.3105,-4.3936,-4.478,-4.5493,-4.5788,-4.5773,-4.5654,-4.5541,-4.54,-4.5319,-4.5246,-4.5192,-4.5114,0.0,0.0,0.0,0.0,0.0,0.0,0.0,0.0,-4.5288,-4.5326,-4.5462,-4.6242,0.0,0.0,0.0,0.0,0.0,-4.5667,-4.6399,-4.7249,-4.776,-4.8529,-4.9212,-4.9317,0.0,0.0,0.0,0.0,0.0,0.0,0.0,0.0,0.0,0.0,0.0,0.0,0.0,0.0,0.0,-5.4196,0.0,-5.4109,-5.4708,-5.4727,-5.3868,-5.4426,-5.4537,-5.3831,-5.3794,-5.3794,-5.3794,-5.3794,-5.4167,-5.4969,-5.4813,-5.5124,-5.5874,-5.5067,-5.4572,-5.4386,-5.3629,-5.3214,-5.3109,0.0,0.0,-5.3072,-5.2454,-5.2626,-5.3297,-5.323,-5.3251,-5.3277,-5.3066,-5.3082,-5.3161,0.0,0.0,0.0,0.0,0.0,0.0,0.0,0.0,0.0,0.0,0.0,0.0,0.0,0.0,0.0,0.0,0.0,0.0,0.0,0.0,0.0,0.0,-4.0907,-4.0893,-4.0902,-4.1574,-4.2309,-4.3137,-4.3982,-4.4812,-4.5602,-4.5747,-4.5764,-4.5688,-4.5637,-4.5541,-4.539,-4.5277,-4.5203,-4.5181,-4.501,0.0,0.0,0.0,0.0,0.0,0.0,0.0,0.0,-4.5288,-4.5357,-4.5398,-4.5561,0.0,0.0,0.0,0.0,0.0,-4.5603,-4.681,-4.7906,-4.7127,-4.7539,-4.8286,0.0,0.0,0.0,0.0,0.0,0.0,0.0,0.0,0.0,0.0,0.0,-5.0701,0.0,0.0,-5.3464,-5.4441,0.0,-5.4109,-5.4109,-5.4056,-5.3981,-5.3831,-5.3905,-5.3943,-5.3831,-5.3794,-5.3794,-5.3794,-5.3794,-5.3868,-5.3999,-5.392,-5.3973,-5.4104,-5.3719,-5.3523,-5.3502,-5.3288,-5.3082,-5.2872,0.0,-5.295,-5.2872,-5.2956,-5.3141,-5.3297,-5.323,-5.3251,-5.3277,-5.3066,-5.3082,-5.3146,0.0,0.0,0.0,0.0,0.0,0.0,0.0,0.0,0.0,0.0,0.0,0.0,0.0,0.0,0.0,0.0,0.0,0.0,0.0,0.0,0.0,-4.0907,-4.0907,-4.0893,-4.0902,-4.169,-4.2509,-4.3312,-4.4182,-4.5019,-4.5817,-4.58,-4.5764,-4.5688,-4.5687,-4.5565,-4.5438,-4.5319,-4.5224,-4.5181,0.0,0.0,0.0,0.0,0.0,0.0,0.0,0.0,0.0,0.0,-4.5357,-4.5408,-4.5408,0.0,0.0,0.0,0.0,0.0,-4.5568,-4.6527,-4.7364,-4.682,-4.7683,-4.8562,0.0,0.0,0.0,0.0,0.0,0.0,0.0,0.0,0.0,0.0,0.0,-5.1364,-5.2289,-5.2972,-5.3644,0.0,0.0,-5.3981,-5.4091,-5.3907,-5.3794,-5.3794,-5.3794,-5.3794,-5.3794,-5.3794,-5.3794,-5.3794,-5.3794,-5.3794,-5.3794,-5.3716,-5.3637,-5.3598,-5.3461,-5.3339,-5.3251,-5.3146,-5.2995,-5.2769,0.0,-5.1935,-5.2098,-5.1527,-5.1818,-5.2655,-5.2569,-5.2847,-5.3277,-5.3066,-5.293,-5.2798,0.0,0.0,0.0,0.0,0.0,0.0,0.0,0.0,0.0,0.0,0.0,0.0,0.0,0.0,0.0,0.0,0.0,0.0,0.0,0.0,-4.0907,-4.0907,-4.0903,-4.1005,-4.1184,-4.1973,-4.2798,-4.362,-4.4473,-4.5226,-4.5807,-4.5793,-4.5757,-4.5688,-4.5711,-4.5637,-4.5457,-4.536,-4.5256,-4.5159,0.0,0.0,0.0,0.0,0.0,0.0,0.0,0.0,0.0,0.0,0.0,0.0,0.0,0.0,0.0,-4.539,-4.5419,-4.5409,-4.5514,-4.6138,-4.6666,-4.6396,0.0,0.0,0.0,0.0,0.0,0.0,0.0,0.0,0.0,0.0,0.0,0.0,-5.1085,-5.2007,-5.2568,-5.3293,-5.387,-5.4073,-5.3926,-5.3851,-5.4018,-5.3889,-5.3794,-5.3794,-5.3794,-5.3794,-5.3794,-5.3794,-5.3794,-5.3794,-5.3794,-5.3794,-5.3794,-5.3754,-5.3637,-5.3481,-5.3461,-5.3375,-5.3203,-5.306,-5.2937,-5.2777,-5.17,-5.1386,-5.1594,-5.0819,-5.1143,-5.2083,-5.2222,-5.2642,-5.3172,-5.3045,-5.2798,-5.2503,0.0,0.0,0.0,0.0,0.0,0.0,0.0,0.0,0.0,0.0,0.0,0.0,0.0,0.0,0.0,0.0,0.0,0.0,0.0,0.0,-4.0907,-4.0907,-4.0883,-4.1267,-4.2073,-4.2897,-4.3718,-4.4581,-4.5402,-4.5802,-4.5807,-4.581,-4.5765,-4.5688,-4.5687,-4.5586,-4.541,-4.539,-4.5267,-4.5103,-4.5033,0.0,0.0,0.0,0.0,0.0,0.0,0.0,0.0,0.0,0.0,0.0,0.0,0.0,-4.54,-4.54,-4.54,-4.539,-4.539,-4.5994,-4.6406,-4.5459,0.0,0.0,0.0,-4.8855,0.0,-4.981,0.0,0.0,0.0,0.0,0.0,0.0,-5.1316,-5.3019,-5.2893,0.0,-5.387,-5.4073,-5.3926,-5.3794,-5.3813,-5.3794,-5.3794,-5.3794,-5.3794,-5.3794,-5.3794,-5.3794,-5.3794,-5.3794,-5.3794,-5.3794,-5.3794,-5.3775,-5.3678,-5.3481,-5.338,-5.3256,-5.3203,-5.306,-5.298,-5.298,-5.2999,-5.2538,-5.1846,-5.2823,-5.2733,-5.2071,-5.2909,-5.3036,-5.285,-5.2937,-5.2798,-5.2503,0.0,0.0,0.0,0.0,0.0,0.0,0.0,0.0,0.0,0.0,0.0,0.0,0.0,0.0,0.0,0.0,0.0,0.0,0.0,0.0,-4.0907,-4.0907,-4.0898,-4.1325,-4.2194,-4.3003,-4.3812,-4.4634,-4.5454,-4.5807,-4.581,-4.5795,-4.5765,-4.568,-4.5654,-4.5603,-4.5568,-4.54,-4.5337,-4.5256,-4.508,-4.4998,0.0,0.0,0.0,0.0,0.0,0.0,0.0,0.0,-4.5329,-4.539,0.0,0.0,0.0,0.0,-4.5319,-4.527,-4.539,-4.5924,-4.6522,-4.6762,0.0,0.0,0.0,0.0,-4.8653,-4.8895,-4.9848,0.0,0.0,0.0,0.0,0.0,-5.1835,-5.2992,-5.3405,-5.3646,-5.3851,-5.4037,-5.3926,-5.3813,-5.3926,-5.3869,-5.3794,-5.3794,-5.3794,-5.3794,-5.3794,-5.3794,-5.3794,-5.3794,-5.3311,-5.3311,-5.3794,-5.3235,-5.3138,-5.3481,-5.344,-5.3355,-5.3203,-5.306,-5.2937,-5.2835,-5.1977,-5.1334,-5.0936,-5.1042,-5.0845,-5.0602,-5.143,-5.1873,-5.204,-5.212,-5.2294,-5.248,0.0,0.0,0.0,0.0,0.0,0.0,0.0,0.0,0.0,0.0,0.0,0.0,0.0,0.0,0.0,0.0,0.0,0.0,0.0,-4.0912,-4.0907,-4.0907,-4.0898,-4.1325,-4.2194,-4.2992,-4.38,-4.4628,-4.544,-4.5786,-4.5788,-4.5773,-4.5743,-4.5703,-4.5612,-4.5577,-4.5586,-4.5409,-4.5329,-4.5298,-4.5159,-4.5068,0.0,0.0,0.0,0.0,0.0,0.0,0.0,0.0,-4.5357,0.0,0.0,0.0,0.0,0.0,0.0,-4.5136,-4.5239,-4.5584,-4.6066,0.0,0.0,0.0,0.0,0.0,0.0,0.0,-5.0003,0.0,0.0,0.0,0.0,0.0,-5.2435,-5.3274,-5.3777,-5.3869,-5.3926,-5.4019,-5.3944,-5.3907,-5.3982,-5.3888,-5.3794,-5.3794,-5.3794,-5.3794,-5.3794,-5.3794,-5.3794,-5.3794,-5.3014,-5.2977,-5.3794,-5.2863,-5.2766,-5.3481,-5.3481,-5.3396,-5.3167,-5.3039,-5.2915,-5.2879,-5.1782,-5.1146,-5.0895,-5.0545,-5.0385,-5.0421,-5.0969,-5.1355,-5.1639,-5.1894,-5.2031,-5.2154,0.0,0.0,0.0,0.0,0.0,0.0,0.0,0.0,0.0,0.0,0.0,0.0,0.0,0.0,0.0,0.0,0.0,0.0,-4.0907,-4.0893,-4.0907,-4.0907,-4.0917,-4.1305,-4.2155,-4.2992,-4.3812,-4.4703,-4.5454,-4.5786,-4.5788,-4.5743,-4.5703,-4.5701,-4.5568,-4.5457,-4.541,-4.541,-4.5311,-4.5203,-4.5256,-4.5181,-4.501,0.0,0.0,0.0,0.0,0.0,0.0,0.0,-4.5357,-4.5408,0.0,0.0,0.0,0.0,-4.5114,-4.4926,-4.4998,-4.4914,-4.4827,0.0,0.0,0.0,0.0,0.0,0.0,0.0,0.0,-5.0242,-4.9476,0.0,0.0,-5.1471,-5.2992,-5.4163,-5.4019,-5.3982,-5.4037,-5.4091,-5.4055,-5.3982,-5.3982,-5.3888,-5.3794,-5.3794,-5.3794,-5.3794,-5.3794,-5.3794,-5.3794,-5.3794,-5.3014,-5.2977,-5.3794,-5.2863,-5.2766,-5.3481,-5.3481,-5.3396,-5.3203,-5.2952,-5.2974,-5.3203,-5.2893,-5.2526,-5.2086,-5.2086,-5.2086,-5.2066,-5.2002,-5.1815,-5.1711,-5.2477,-5.214,-5.1393,0.0,0.0,0.0,0.0,0.0,0.0,0.0,0.0,0.0,0.0,0.0,0.0,0.0,0.0,0.0,0.0,0.0,0.0,-4.096,-4.0932,-4.0888,-4.0907,-4.0917,-4.1024,-4.1267,-4.2648,-4.4053,-4.5525,-4.5711,-4.5771,-4.5743,-4.5758,-4.575,-4.5703,-4.5577,-4.5512,-4.5509,-4.5448,-4.538,-4.5331,-4.5309,-4.5224,-4.5136,0.0,0.0,0.0,0.0,0.0,0.0,0.0,0.0,0.0,0.0,0.0,0.0,0.0,-4.501,-4.4877,-4.5033,-4.5406,0.0,0.0,0.0,0.0,0.0,0.0,0.0,0.0,0.0,-4.9816,-5.0883,0.0,0.0,-5.2178,-5.3256,-5.4055,-5.4,-5.4055,-5.4091,-5.4218,-5.4146,-5.4055,-5.4055,-5.4,-5.3907,-5.3794,-5.3794,-5.3794,-5.3794,-5.3794,-5.3794,-5.3794,-5.2457,-5.2382,-5.3716,-5.2248,-5.2132,-5.3359,-5.3314,-5.3251,-5.3203,-5.3151,-5.3109,-5.3023,-5.2495,-5.2035,-5.1663,-5.0627,-5.0598,-5.1063,-4.9867,-5.0334,-5.1636,-5.0639,-5.1093,-5.2087,0.0,0.0,0.0,0.0,0.0,0.0,0.0,0.0,0.0,0.0,-4.0638,-4.0902,0.0,0.0,0.0,0.0,0.0,0.0,0.0,0.0,-4.0907,-4.0878,-4.0858,-4.1036,-4.1374,-4.2658,-4.3989,-4.537,-4.5659,-4.5771,-4.575,-4.5773,-4.5765,-4.568,-4.5603,-4.5556,-4.5577,-4.5523,-4.5477,-4.5457,-4.5419,-4.5339,-4.5208,0.0,0.0,0.0,0.0,0.0,0.0,0.0,0.0,0.0,0.0,0.0,0.0,-4.5057,-4.4914,-4.4764,-4.495,0.0,0.0,0.0,0.0,0.0,0.0,0.0,0.0,0.0,0.0,-5.0376,-5.1011,-5.1578,0.0,-5.2549,-5.3386,-5.3888,-5.359,-5.3904,-5.4105,-5.3821,-5.4031,-5.4182,-5.4109,-5.372,-5.3591,-5.3851,-5.3516,-5.3479,-5.3851,-5.3813,-5.3794,-5.3794,-5.2568,-5.2475,-5.3714,-5.2284,-5.2166,-5.3318,-5.3235,-5.3083,-5.2747,-5.3025,-5.313,-5.3045,-5.2323,-5.1669,-5.1055,-5.0273,-5.0244,-5.0631,-4.9681,-5.0297,-5.1542,-5.0201,-5.0511,-5.147,0.0,0.0,-3.867,-3.9466,0.0,0.0,0.0,0.0,0.0,0.0,-4.0366,-4.0902,0.0,0.0,0.0,0.0,0.0,0.0,0.0,0.0,-4.0853,-4.0787,-4.0787,-4.1191,-4.2085,-4.2905,-4.3744,-4.4601,-4.542,-4.5786,-4.5788,-4.5788,-4.5804,-4.5796,-4.5676,-4.5659,-4.5693,-4.5612,-4.5594,-4.5594,-4.5541,-4.5419,-4.5273,-4.5143,0.0,0.0,0.0,0.0,0.0,0.0,0.0,0.0,0.0,0.0,0.0,-4.4998,-4.4827,-4.4632,0.0,0.0,0.0,0.0,0.0,0.0,0.0,0.0,0.0,0.0,0.0,-5.1303,-5.0392,-5.1472,-5.2586,-5.279,-5.3497,-5.3739,-5.3008,-5.3694,-5.3971,-5.311,-5.3784,-5.4235,-5.4091,-5.3254,-5.3013,-5.3833,-5.307,-5.294,-5.3702,-5.3739,-5.3645,-5.3552,-5.2772,-5.2735,-5.3435,-5.2523,-5.2424,-5.3097,-5.3077,-5.2667,-5.1903,-5.259,-5.2956,-5.2968,-5.2176,-5.1282,-5.0347,-5.0554,-5.0574,-5.0492,-5.0521,-5.0952,-5.1383,-5.0508,-5.014,-5.0112,0.0,0.0,-3.9442,-3.9567,0.0,0.0,0.0,0.0,0.0,0.0,0.0,0.0,0.0,0.0,0.0,0.0,0.0,0.0,0.0,0.0,-4.0832,-4.0787,-4.0804,-4.1162,-4.2022,-4.2866,-4.3731,-4.4602,-4.5427,-4.5786,-4.5788,-4.5788,-4.6144,-4.6676,-4.5937,-4.5997,-4.657,-4.5881,-4.5612,-4.5599,-4.5521,-4.5448,-4.5371,-4.5246,-4.5114,0.0,0.0,0.0,0.0,0.0,0.0,0.0,-4.5045,-4.495,-4.4865,-4.4914,-4.4815,-4.4699,0.0,0.0,0.0,0.0,0.0,0.0,0.0,0.0,0.0,0.0,0.0,-5.001,-5.1021,-5.1558,-5.2245,-5.3587,-5.4052,-5.3938,-5.3025,-5.3764,-5.4023,-5.304,-5.3749,-5.4237,-5.4037,-5.3218,-5.2771,-5.2903,-5.2735,-5.2419,-5.1973,-5.2549,-5.2531,-5.1788,-5.0972,-5.0954,-5.1731,-5.0746,-5.0652,-5.1465,-5.138,-5.1226,-5.1096,-5.1912,-5.1928,-5.1295,-5.0911,-5.03,-4.959,-4.9487,-4.9487,-4.9455,-4.8956,-4.9537,-5.0493,-4.9049,-4.9258,-5.0076,0.0,0.0,0.0,0.0,0.0,0.0,0.0,0.0,0.0,0.0,0.0,0.0,0.0,0.0,0.0,0.0,-4.0893,0.0,0.0,0.0,-4.0815,-4.0787,-4.1207,-4.1615,-4.197,-4.3247,-4.415,-4.4608,-4.5454,-4.5814,-4.5817,-4.6235,-4.6391,-4.6367,-4.6262,-4.6271,-4.6328,-4.5863,-4.5657,-4.5704,-4.5573,-4.5541,-4.5457,-4.5288,-4.5159,-4.5091,-4.5033,0.0,0.0,0.0,0.0,0.0,0.0,0.0,-4.4865,-4.4902,-4.4815,-4.4725,0.0,0.0,0.0,0.0,0.0,0.0,0.0,0.0,0.0,0.0,0.0,0.0,-5.1337,-5.2155,-5.3084,-5.4033,-5.42,-5.3901,-5.3025,-5.3674,-5.3916,-5.3005,-5.3322,-5.3584,-5.3477,-5.2304,-5.1691,-5.2047,-5.1658,-5.1435,-5.1452,-5.1806,-5.1788,-5.1213,-5.0806,-5.075,-5.1043,-5.0541,-5.0483,-5.0888,-5.0805,-5.0618,-5.0251,-5.1083,-5.123,-5.0745,-5.0117,-4.9617,-4.9293,-4.9149,-4.9086,-4.9034,-4.8839,-4.9382,-5.0089,-4.8555,-4.8691,-4.9452,0.0,0.0,0.0,0.0,0.0,0.0,0.0,0.0,0.0,0.0,0.0,0.0,0.0,0.0,-4.0907,0.0,0.0,0.0,0.0,-4.0942,-4.1025,-4.1009,-4.1841,-4.2344,-4.2434,-4.3866,-4.466,-4.4815,-4.5564,0.0,0.0,0.0,-4.6824,-4.6367,-4.687,-4.6741,-4.6175,-4.5973,-4.5851,-4.5764,-4.5646,-4.5577,-4.5559,-4.5319,-4.5213,-4.5181,-4.5068,-4.5022,-4.4998,-4.4938,0.0,0.0,0.0,0.0,-4.4902,-4.4914,-4.4827,-4.4738,0.0,0.0,0.0,0.0,0.0,0.0,0.0,0.0,0.0,0.0,0.0,0.0,-5.1448,-5.2659,-5.3701,-5.4011,-5.4105,-5.3808,-5.2801,-5.3399,-5.3586,-5.2748,-5.2654,-5.2654,-5.2636,-5.1185,-5.0537,-5.1207,-5.0523,-5.0375,-5.1021,-5.1136,-5.1065,-5.0768,-5.0731,-5.0657,-5.0522,-5.0502,-5.0444,-5.0421,-5.0381,-5.0031,-4.939,-5.0048,-5.0342,-5.0285,-4.9387,-4.8956,-4.8951,-4.8847,-4.8741,-4.8656,-4.8951,-4.9289,-4.951,-4.8379,-4.8265,-4.8626,0.0,0.0,0.0,0.0,0.0,0.0,0.0,0.0,0.0,0.0,-4.082,-4.0903,0.0,0.0,0.0,-4.0907,-4.0907,0.0,-4.0902,0.0,0.0,-4.1854,-4.2667,-4.3479,-4.4246,-4.4473,-4.497,-4.575,0.0,0.0,0.0,0.0,0.0,-4.8967,0.0,-4.778,-4.772,-4.6935,-4.6213,-4.564,-4.5538,-4.5494,-4.5514,-4.539,-4.5288,-4.5192,-4.5114,-4.5057,-4.4998,-4.4938,-4.4914,0.0,0.0,0.0,-4.484,-4.4889,-4.4852,0.0,0.0,0.0,0.0,0.0,0.0,0.0,0.0,0.0,0.0,0.0,0.0,0.0,-5.1225,-5.1797,-5.2258,-5.3055,-5.3836,-5.3761,-5.2016,-5.2554,-5.2744,-5.1712,-5.1654,-5.1672,-5.162,-5.0691,-5.0171,-5.0282,-5.0153,-4.9856,-4.9279,-4.993,-4.9933,-4.8975,-4.8938,-4.8919,-4.8901,-4.8827,-4.8863,-4.8901,-4.8713,-4.86,-4.8489,-4.8502,-4.8536,-4.8536,-4.8271,-4.8073,-4.7901,-4.7759,-4.7616,-4.7529,-4.7695,-4.781,-4.7861,-4.7772,-4.7855,-4.8006,0.0,0.0,0.0,0.0,0.0,0.0,0.0,0.0,0.0,0.0,0.0,-4.0883,0.0,0.0,0.0,0.0,0.0,0.0,-4.2304,-4.2632,0.0,0.0,-4.3602,-4.4254,-4.4594,-4.506,-4.5525,-4.5911,0.0,0.0,0.0,-4.7302,-4.7752,0.0,0.0,0.0,0.0,-4.7655,-4.7048,-4.6411,-4.6787,-4.6405,-4.5589,-4.5946,-4.5729,-4.5339,-4.6157,-4.6124,-4.5796,-4.614,-4.5975,-4.552,-4.5066,0.0,0.0,0.0,0.0,0.0,0.0,0.0,0.0,0.0,0.0,0.0,0.0,0.0,0.0,0.0,0.0,0.0,-5.1374,-5.1911,-5.243,-5.2905,-5.3656,-5.3566,-5.185,-5.2283,-5.2435,-5.1544,-5.1005,-5.0745,-5.08,-4.9966,-4.9447,-4.9447,-4.9447,-4.9262,-4.8927,-4.9262,-4.9246,-4.8733,-4.8696,-4.8678,-4.8624,-4.855,-4.8476,-4.8439,-4.8344,-4.8306,-4.8287,-4.8246,-4.8187,-4.8187,-4.8008,-4.7845,-4.7678,-4.7572,-4.7421,-4.7267,-4.7407,-4.745,-4.7407,-4.7636,-4.7798,-4.7881,0.0,0.0,0.0,0.0,0.0,0.0,0.0,0.0,0.0,0.0,0.0,0.0,0.0,0.0,0.0,0.0,0.0,0.0,-4.3396,0.0,0.0,0.0,0.0,-4.4989,-4.4924,-4.559,-4.5932,0.0,0.0,0.0,-4.6784,-4.7557,-4.7593,0.0,-4.8973,-4.9283,0.0,0.0,-4.8078,-4.7311,-4.7809,-4.729,-4.6281,-4.695,-4.6685,-4.6156,-4.7616,-4.7618,-4.696,-4.7238,-4.6947,-4.6291,-4.5267,-4.4914,0.0,0.0,0.0,0.0,0.0,0.0,0.0,0.0,0.0,0.0,0.0,0.0,0.0,0.0,0.0,0.0,-5.1188,-5.1894,-5.2432,-5.235,-5.2952,-5.2918,-5.1462,-5.1691,-5.1805,-5.1227,-5.0337,-4.9854,-4.9924,-4.9314,-4.889,-4.889,-4.889,-4.889,-4.889,-4.889,-4.8892,-4.8804,-4.8787,-4.8751,-4.8624,-4.8532,-4.8494,-4.8382,-4.8344,-4.8325,-4.8287,-4.8246,-4.8187,-4.8148,-4.7984,-4.7798,-4.7593,-4.7472,-4.7356,-4.7156,-4.7334,-4.732,-4.7298,-4.7529,-4.7699,-4.7804,0.0,0.0,0.0,0.0,0.0,0.0,0.0,0.0,0.0,0.0,0.0,0.0,0.0,0.0,-4.3308,-4.3269,0.0,0.0,0.0,0.0,0.0,0.0,0.0,0.0,0.0,0.0,0.0,0.0,0.0,0.0,-4.5904,-4.67,-4.737,-4.8039,-5.0439,-5.0631,-4.9158,0.0,0.0,-4.801,-4.7821,-4.7826,-4.8029,-4.859,-4.835,-4.793,-4.934,-4.9314,-4.8441,-4.7732,-4.7378,-4.6983,-4.5456,-4.4926,-4.4827,0.0,0.0,0.0,0.0,0.0,0.0,0.0,0.0,0.0,0.0,0.0,0.0,0.0,0.0,0.0,0.0,-5.1126,-5.1459,-5.0572,-5.12,-5.1496,-5.0497,-5.0405,-5.0333,-5.0208,-4.9447,-4.8964,-4.8964,-4.8927,-4.889,-4.889,-4.889,-4.889,-4.889,-4.889,-4.8892,-4.8804,-4.8787,-4.8751,-4.8624,-4.8605,-4.8605,-4.8569,-4.8532,-4.8438,-4.8287,-4.8246,-4.8148,-4.7992,-4.7943,-4.7678,-4.732,-4.732,-4.7187,-4.702,-4.702,-4.7111,-4.7201,-4.7298,-4.7472,-4.7611,0.0,0.0,0.0,0.0,0.0,0.0,0.0,0.0,0.0,0.0,0.0,0.0,0.0,-4.3701,-4.4017,-4.3441,-4.3934,0.0,0.0,0.0,0.0,0.0,0.0,0.0,0.0,0.0,0.0,0.0,0.0,-4.5893,-4.5898,-4.6638,-4.7122,-4.7355,-4.916,-4.9935,-4.9975,-5.0109,0.0,-4.8833,-4.9297,-4.9231,-4.8823,-4.9018,-4.8887,-4.8716,-4.9708,-4.9835,-4.9543,-4.9201,-4.9728,-5.0048,-4.7429,-4.6885,0.0,0.0,0.0,0.0,0.0,0.0,0.0,0.0,0.0,0.0,0.0,0.0,0.0,0.0,0.0,0.0,0.0,0.0,-5.0629,-5.04,-5.1019,-5.1058,-4.9718,-4.9906,-4.9966,-4.941,-4.9076,-4.889,-4.889,-4.889,-4.8684,-4.8215,-4.8144,-4.7904,-4.745,-4.74,-4.7573,-4.8059,-4.8096,-4.8061,-4.7974,-4.8383,-4.8329,-4.7758,-4.818,-4.8325,-4.8287,-4.8131,-4.8032,-4.7992,-4.7824,-4.7593,-4.732,-4.732,-4.7187,-4.6998,-4.6998,-4.7088,-4.7201,-4.7276,-4.745,-4.7663,0.0,0.0,0.0,0.0,0.0,0.0,0.0,0.0,0.0,0.0,0.0,0.0,0.0,0.0,-4.506,-4.4755,-4.5265,-4.5936,-4.6812,-4.6579,0.0,0.0,0.0,0.0,0.0,0.0,0.0,0.0,0.0,0.0,0.0,-4.639,-4.687,-4.7422,-4.8296,-4.9018,0.0,0.0,0.0,-4.9353,-5.0385,-5.05,-5.0084,-5.057,-5.055,-5.0403,-5.1712,-5.1963,-5.1722,-5.1695,-5.2291,-5.2462,-4.9022,-4.7845,0.0,0.0,0.0,0.0,0.0,0.0,0.0,0.0,0.0,0.0,0.0,0.0,0.0,0.0,0.0,0.0,0.0,0.0,0.0,0.0,-5.0909,-5.0653,-4.9609,-4.9611,-4.9557,-4.8964,-4.889,-4.889,-4.889,-4.8667,-4.8424,-4.8195,-4.7623,0.0,-4.6966,-4.6917,-4.7256,-4.8073,-4.785,-4.7816,-4.8026,-4.8178,-4.807,-4.7703,-4.8162,-4.8325,-4.8287,-4.8131,-4.8032,-4.7992,-4.7824,-4.7593,-4.732,-4.732,-4.7187,-4.6998,-4.6998,-4.702,-4.7088,-4.7165,-4.7356,-4.7493,0.0,0.0,0.0,0.0,0.0,0.0,0.0,0.0,0.0,0.0,0.0,0.0,0.0,0.0,0.0,-4.7315,-4.7372,-4.7706,-4.8522,-4.7822,0.0,0.0,0.0,0.0,0.0,0.0,0.0,0.0,0.0,0.0,0.0,0.0,-4.6677,-4.8245,-4.8018,-4.7991,-4.8154,0.0,-5.0002,-4.9548,-5.0846,-5.1534,-5.1913,-5.3274,-5.3335,-5.3085,-5.5399,-5.5677,-5.4935,-5.4994,-5.486,-5.4025,-5.0172,-4.7694,-4.6417,0.0,0.0,0.0,0.0,0.0,0.0,0.0,0.0,0.0,0.0,0.0,0.0,0.0,0.0,0.0,0.0,0.0,0.0,0.0,0.0,0.0,-5.0134,-4.9517,-4.9068,-4.8927,-4.889,-4.889,-4.889,-4.8184,-4.7999,-4.8779,-4.7367,-4.681,-4.7553,-4.7627,-4.7999,-4.8779,-4.8073,-4.8002,-4.8693,-4.7952,-4.7846,-4.8421,-4.8458,-4.8401,-4.825,-4.8209,-4.8128,-4.7992,-4.7943,-4.7678,-4.732,-4.732,-4.7187,-4.6998,-4.6998,-4.6929,-4.6801,-4.6952,-4.7088,-4.7093,0.0,0.0,0.0,0.0,0.0,0.0,0.0,0.0,0.0,0.0,0.0,0.0,-4.6571,-4.7398,-4.7753,-4.7432,-4.7916,-4.8327,-4.8561,-4.8344,-4.8165,-4.8159,0.0,0.0,0.0,0.0,0.0,0.0,0.0,0.0,0.0,0.0,0.0,0.0,-4.6656,-4.666,-4.7344,-4.876,0.0,-5.0095,-5.0438,-5.1724,0.0,0.0,-5.3644,-5.4509,-5.4528,-5.5133,-5.5841,-5.5247,-5.6125,-5.6825,-5.3316,-5.0269,0.0,0.0,0.0,0.0,-4.7857,0.0,0.0,0.0,0.0,0.0,-4.8626,-4.9363,-4.9897,0.0,0.0,0.0,0.0,0.0,0.0,0.0,0.0,0.0,0.0,0.0,-4.8945,-4.889,-4.889,-4.889,-4.889,-4.8184,-4.7586,0.0,-4.6248,-4.5536,-4.5236,-4.5749,-4.6126,-4.635,-4.6657,-4.6645,-4.6257,-4.6524,-4.6439,-4.5968,-4.7113,-4.7537,-4.7443,-4.797,-4.8128,-4.7992,-4.7943,-4.7756,-4.7428,-4.7341,-4.7187,-4.6998,-4.6998,-4.6929,-4.6801,-4.6952,-4.7088,-4.7165,0.0,0.0,0.0,0.0,0.0,0.0,0.0,0.0,0.0,0.0,0.0,0.0,0.0,0.0,-4.8603,-4.8482,-4.8875,-4.9321,-4.9671,-4.9276,-4.9051,0.0,0.0,0.0,0.0,0.0,0.0,0.0,0.0,0.0,0.0,0.0,0.0,0.0,-4.6955,-4.6959,0.0,0.0,0.0,0.0,-5.0932,0.0,0.0,-5.4217,-5.4863,-5.5698,-5.5912,-5.654,-5.7279,-5.7127,-5.7248,-5.7052,-5.4667,-5.2152,0.0,0.0,0.0,0.0,0.0,0.0,0.0,0.0,0.0,0.0,-4.8717,-4.9257,-4.9764,0.0,0.0,0.0,0.0,0.0,0.0,0.0,0.0,0.0,0.0,0.0,0.0,0.0,-4.811,-4.787,-4.7836,-4.7127,-4.6624,-4.6492,-4.5446,-4.4854,-4.4789,-4.5192,-4.5556,-4.5898,-4.5999,-4.5934,-4.5721,-4.6116,-4.62,-4.595,-4.7224,-4.772,-4.759,-4.8007,-4.8128,-4.7992,-4.7943,-4.7777,-4.7472,-4.7363,-4.7209,-4.7088,-4.702,-4.687,-4.6731,-4.6801,-4.687,-4.6975,0.0,0.0,-4.364,-4.3718,0.0,0.0,0.0,0.0,0.0,0.0,0.0,0.0,0.0,0.0,0.0,0.0,-5.0155,-5.0397,-5.1291,-5.0452,0.0,0.0,0.0,0.0,0.0,0.0,0.0,0.0,0.0,0.0,0.0,0.0,0.0,0.0,-4.8172,-4.8116,-4.8116,0.0,0.0,-4.9537,-5.1873,-5.3328,0.0,0.0,-5.6611,-5.6814,-5.8342,-5.8874,-5.8954,-5.9674,-5.8246,-5.5955,-5.4888,-5.343,-5.1864,-5.0206,-5.0258,0.0,0.0,0.0,0.0,-4.7883,-4.8275,0.0,-4.8844,-4.9413,-4.9866,-4.9807,0.0,0.0,0.0,0.0,0.0,0.0,0.0,0.0,0.0,0.0,0.0,0.0,0.0,0.0,-4.6305,-4.5667,-4.5498,-4.612,-4.4963,-4.4528,-4.5312,-4.535,-4.5655,-4.6323,-4.5637,-4.552,-4.6025,-4.6136,-4.6478,-4.7058,-4.7942,-4.8291,-4.8177,-4.8209,-4.8128,-4.7992,-4.7886,-4.772,-4.7472,-4.7341,-4.7232,-4.7178,-4.6959,-4.6753,-4.6613,-4.6507,-4.6543,-4.6661,-4.4345,-4.4072,-4.3835,-4.4501,0.0,0.0,0.0,0.0,0.0,0.0,0.0,0.0,0.0,0.0,0.0,0.0,0.0,-5.1312,-5.2186,0.0,0.0,0.0,0.0,0.0,0.0,0.0,0.0,0.0,0.0,0.0,0.0,0.0,0.0,0.0,-4.8326,-4.8373,0.0,0.0,0.0,-5.0336,-5.2091,-5.3697,-5.5198,-5.6749,-5.7771,-5.8432,-5.8653,-5.9121,-5.9696,-5.9847,-5.8672,-5.6844,-5.5174,-5.3972,-5.2757,-5.0386,0.0,0.0,0.0,0.0,0.0,-4.9555,-4.967,0.0,-4.9758,-4.9859,-4.992,0.0,0.0,0.0,0.0,0.0,0.0,0.0,0.0,0.0,0.0,0.0,0.0,0.0,0.0,0.0,-4.6305,-4.5618,-4.5173,-4.5305,-4.4675,-4.4341,-4.4543,-4.4543,-4.4603,-4.4737,-4.4451,-4.4321,-4.4438,-4.5143,-4.5469,-4.5469,-4.6926,-4.7519,-4.7333,-4.7934,-4.8128,-4.7992,-4.7824,-4.7657,-4.7508,-4.7312,-4.7201,-4.7107,-4.6329,-4.6336,-4.6683,-4.6021,-4.6198,-4.6778,-4.5283,-4.5202,-4.5046,-4.5478,0.0,0.0,0.0,0.0,0.0,0.0,0.0,0.0,0.0,0.0,0.0,0.0,0.0,0.0,0.0,0.0,0.0,0.0,0.0,0.0,0.0,0.0,0.0,0.0,0.0,0.0,0.0,0.0,0.0,0.0,0.0,0.0,0.0,0.0,-5.0438,-5.278,-5.2755,0.0,-5.4737,-5.6311,-5.743,-5.8175,-5.8515,-5.9165,-5.9902,-5.9902,-5.877,0.0,-5.5249,-5.4069,-5.2899,-5.0453,-5.0316,-5.0799,0.0,0.0,-4.9986,-4.9986,-5.0038,0.0,0.0,-5.0012,-4.9959,-4.989,0.0,0.0,0.0,0.0,0.0,0.0,0.0,0.0,0.0,0.0,0.0,0.0,0.0,0.0,-4.5119,-4.4781,-4.4586,-4.4681,-4.4431,-4.4296,-4.434,-4.434,-4.4296,-4.4259,-4.4131,-4.407,-4.3986,-4.5201,-4.5749,-4.5634,-4.7185,-4.785,-4.77,-4.8043,-4.8128,-4.7992,-4.7845,-4.7678,-4.7472,-4.7298,-4.7245,-4.7107,-4.615,-4.5967,-4.6138,-4.5747,-4.5762,-4.6141,-4.6073,-4.6187,-4.6183,-4.6183,0.0,0.0,0.0,0.0,0.0,0.0,0.0,0.0,0.0,0.0,0.0,0.0,0.0,0.0,0.0,0.0,0.0,0.0,0.0,-5.1347,0.0,0.0,0.0,0.0,0.0,0.0,0.0,0.0,0.0,0.0,0.0,0.0,0.0,0.0,0.0,-5.5296,0.0,-5.3693,-5.4732,-5.6358,-5.74,-5.7984,-5.8613,-5.9295,-5.9956,-6.0091,-5.8981,-5.7289,-5.5476,-5.4264,0.0,0.0,0.0,0.0,0.0,-5.0012,-5.0088,-5.0417,-5.033,-5.0228,0.0,0.0,0.0,0.0,0.0,0.0,0.0,0.0,0.0,0.0,0.0,0.0,0.0,0.0,0.0,0.0,0.0,0.0,-4.3913,-4.3828,-4.384,-4.4042,-4.3907,-4.3936,-4.4121,-4.4144,-4.4146,-4.4199,-4.4184,-4.4101,-4.3986,-4.5375,-4.6106,-4.6207,-4.761,-4.8291,-4.8287,-4.8226,-4.8108,-4.7992,-4.7866,-4.7699,-4.7472,-4.7341,-4.7267,-4.7107,-4.615,-4.5824,-4.5841,-4.5676,-4.5574,-4.5682,-4.6184,-4.6212,-4.6203,-4.6203,0.0,0.0,0.0,0.0,0.0,0.0,0.0,0.0,0.0,0.0,-5.6466,-5.8072,-5.8304,-5.7937,-5.694,-5.6311,0.0,0.0,0.0,0.0,-5.2005,0.0,0.0,0.0,0.0,0.0,0.0,0.0,-5.0363,-5.0144,-5.0165,0.0,0.0,0.0,-5.2399,0.0,-5.5099,-5.5712,0.0,-5.8996,-5.9633,-5.9732,-5.9728,-5.9858,-6.0111,0.0,-5.9934,-5.828,0.0,-5.5249,-5.3974,-5.0738,0.0,0.0,0.0,0.0,0.0,-5.1927,-5.1269,-5.0644,-5.2005,0.0,-5.005,-4.9999,0.0,0.0,0.0,0.0,0.0,0.0,0.0,0.0,0.0,0.0,0.0,0.0,0.0,0.0,0.0,-4.3308,-4.3007,-4.3117,-4.2511,-4.2427,-4.3208,-4.3131,-4.3431,-4.4199,-4.4085,-4.4039,-4.3986,-4.4835,-4.5551,-4.6207,-4.7039,-4.7758,-4.8287,-4.8111,-4.8012,-4.7972,-4.7663,-4.7551,-4.7472,-4.729,-4.7201,-4.7107,-4.615,-4.6248,-4.6761,-4.5934,-4.5975,-4.6484,-4.6309,-4.6184,-4.6217,-4.6217,0.0,0.0,0.0,0.0,0.0,0.0,0.0,0.0,0.0,-5.7857,-5.8333,-6.0049,-6.1398,-6.1186,-5.8906,-5.8392,0.0,0.0,0.0,0.0,0.0,0.0,0.0,0.0,-5.0933,0.0,0.0,0.0,-5.0221,-4.974,-5.0138,0.0,-5.3314,0.0,-5.4192,0.0,0.0,0.0,0.0,-5.9209,-5.9084,-5.9197,-6.021,-6.0671,-6.0887,0.0,-6.0817,0.0,0.0,0.0,0.0,-5.3366,0.0,0.0,0.0,0.0,0.0,0.0,0.0,0.0,-5.1344,-5.0672,-5.0076,-5.005,0.0,0.0,0.0,0.0,0.0,0.0,-4.5786,0.0,0.0,0.0,0.0,0.0,0.0,0.0,0.0,0.0,0.0,-4.2403,-4.2084,-4.2047,-4.2329,-4.2763,-4.314,-4.3379,-4.3779,-4.3955,-4.3945,-4.5144,-4.5872,-4.6154,-4.7297,-4.7993,-4.8287,-4.8048,-4.7968,-4.7992,-4.7741,-4.7551,-4.7385,-4.7276,-4.7201,-4.703,-4.6663,-4.6427,-4.6226,-4.5792,-4.5772,-4.6104,-4.7055,0.0,0.0,0.0,0.0,0.0,0.0,0.0,0.0,0.0,0.0,0.0,-6.0267,-6.0489,-6.0967,-6.2403,-6.4243,-6.4139,-6.1282,-6.0612,-6.0421,-6.0591,-5.7042,-5.5683,-5.6878,0.0,0.0,0.0,0.0,0.0,0.0,0.0,0.0,-4.9537,0.0,-5.1648,-5.3886,0.0,-5.573,-6.0221,-5.9462,-5.9938,-6.0918,-5.9887,-5.9345,-5.9307,-6.0897,-6.1375,-6.1386,-6.2449,-6.1706,0.0,-5.939,-5.7923,-5.6338,0.0,0.0,0.0,-5.4994,0.0,0.0,0.0,0.0,0.0,0.0,0.0,0.0,0.0,0.0,0.0,0.0,0.0,0.0,0.0,0.0,-4.5204,0.0,0.0,0.0,0.0,0.0,0.0,0.0,0.0,-4.21,-4.1651,-4.1428,-4.1365,-4.152,-4.2319,-4.2758,-4.2813,-4.3562,-4.3961,-4.3897,-4.4949,-4.5675,-4.6101,-4.7075,-4.7787,-4.8248,-4.8024,-4.7943,-4.7968,-4.7741,-4.7406,-4.7039,-4.719,-4.7057,-4.6722,-4.6868,-4.6618,-4.6119,-4.597,-4.5924,-4.6031,-4.874,-4.8701,0.0,0.0,0.0,0.0,0.0,0.0,0.0,0.0,0.0,-5.9529,-6.5146,-6.5076,-6.4938,-6.577,-6.655,-6.6244,-6.4449,-6.2846,-6.2283,-6.3066,-6.0716,-5.9436,-5.9485,-5.7736,0.0,0.0,0.0,0.0,0.0,0.0,0.0,0.0,0.0,-5.1698,-5.3988,-5.3764,-5.658,-6.1235,-6.101,-6.0891,-6.1027,0.0,-6.1713,-6.1039,-6.2012,0.0,0.0,-6.2993,-6.2551,0.0,0.0,0.0,0.0,0.0,0.0,0.0,0.0,0.0,0.0,-5.4918,0.0,0.0,0.0,0.0,-5.0455,0.0,0.0,0.0,0.0,0.0,0.0,0.0,0.0,0.0,0.0,0.0,0.0,0.0,0.0,0.0,0.0,-4.1223,-4.0827,-4.0917,-4.0102,-3.9952,-4.0778,-4.1458,-4.2141,-4.276,-4.3537,-4.3897,-4.3897,-4.3754,-4.4518,-4.6101,-4.5957,-4.6687,-4.8187,-4.8004,-4.7902,-4.7881,-4.7636,-4.706,-4.6389,-4.6966,-4.6748,-4.6082,-4.6608,-4.687,-4.6962,-4.6788,-4.6742,-4.6742,-5.04,0.0,0.0,0.0,0.0,0.0,0.0,-5.4085,-5.6439,-5.8065,-5.8782,-6.1134,-6.6312,-6.6603,-6.6773,-6.7571,-6.7821,-6.7448,-6.6358,-6.4679,-6.459,-6.6485,-6.3717,-6.2586,-6.3629,-6.0311,0.0,0.0,0.0,0.0,0.0,0.0,0.0,0.0,0.0,-5.1465,0.0,0.0,0.0,0.0,0.0,-6.2662,-6.2591,0.0,-6.1379,-6.0289,-6.1774,-6.2559,0.0,-6.4141,-6.4158,-6.3584,-6.2753,-6.1679,-6.0492,-5.9387,-5.865,-5.8233,0.0,0.0,-5.7952,-5.6869,0.0,0.0,0.0,0.0,0.0,0.0,0.0,0.0,0.0,0.0,0.0,0.0,0.0,0.0,0.0,0.0,0.0,0.0,0.0,0.0,0.0,0.0,0.0,-4.0152,-3.9799,-3.975,-3.9977,-4.1241,-4.1982,-4.2141,-4.3287,-4.3865,-4.3837,-4.479,-4.5477,-4.5974,-4.6946,-4.7675,-4.8187,-4.8004,-4.7881,-4.7881,-4.7699,-4.7117,-4.6305,-4.6974,-4.6699,-4.5936,-4.6654,-4.6975,-4.6998,-4.6824,-4.6883,-4.6906,-5.168,-5.1509,0.0,0.0,0.0,0.0,0.0,-5.6614,-5.9242,-6.0618,-6.1578,-6.3797,-6.8111,-6.8269,-6.8424,-6.9246,-6.8921,-6.8482,-6.7987,-6.6064,-6.596,-6.8188,-6.568,-6.5,-6.664,-6.3386,-6.1774,0.0,0.0,-5.5343,0.0,0.0,0.0,0.0,0.0,-5.1167,-5.2647,0.0,-5.7353,0.0,0.0,-6.3661,0.0,0.0,-6.178,-6.0745,0.0,-6.3413,-6.3841,-6.4655,-6.4976,-6.4824,-6.3989,-6.331,-6.2614,-6.1439,-6.0719,-6.0264,-5.9966,-5.9836,0.0,-5.7807,-5.7633,0.0,-5.5746,0.0,-5.5146,0.0,0.0,0.0,0.0,0.0,0.0,0.0,0.0,0.0,0.0,-4.3186,0.0,0.0,0.0,0.0,0.0,0.0,-4.0128,-3.9736,-3.9696,-3.9658,0.0,-4.1129,-4.1911,-4.1801,-4.3138,-4.3964,-4.421,-4.5161,-4.5845,-4.6361,-4.7255,-4.7855,-4.8187,-4.8004,-4.7881,-4.7881,-4.7699,-4.6937,-4.5909,-4.6866,-4.6556,-4.5565,-4.6592,-4.6998,-4.6998,-4.6893,-4.6906,-4.6906,-5.2514,-5.1955,-5.1495,0.0,-5.3467,-5.523,-5.6054,-5.8875,-6.1853,-6.4359,-6.5368,-6.7159,-7.0527,-7.006,-6.9865,-7.071,-6.9908,-6.9366,-6.9419,-6.7027,-6.6455,-6.8304,-6.678,-6.6678,-6.8462,-6.6678,-6.5344,-6.4586,0.0,0.0,0.0,0.0,0.0,0.0,-5.0412,0.0,-5.1855,-5.5004,-5.742,-5.9406,-6.331,-6.3888,-6.2473,-6.325,-6.3007,-6.2424,-6.4174,-6.4305,-6.3704,-6.4588,-6.4888,-6.4775,-6.3923,-6.362,-6.3296,-6.1629,-6.1136,-6.093,-6.0089,-5.9828,-5.9467,-5.7943,-5.8148,0.0,0.0,0.0,-5.6606,0.0,0.0,0.0,0.0,0.0,0.0,0.0,0.0,0.0,0.0,0.0,0.0,0.0,0.0,0.0,0.0,-3.9502,-3.9626,-3.9696,-3.9708,0.0,0.0,0.0,-4.187,-4.1815,-4.3144,-4.4173,-4.4912,-4.4834,-4.5535,-4.702,-4.6903,-4.7358,-4.8187,-4.8004,-4.7902,-4.7881,-4.7636,-4.6663,-4.5343,-4.6657,-4.6283,-4.4986,-4.6436,-4.6998,-4.6998,-4.6998,-4.6929,-4.6778,-5.2592,-5.2384,-5.2688,-5.3935,-5.5097,-5.6123,-5.6877,-5.8861,-6.1514,-6.5095,-6.4729,-6.5874,-7.0343,-6.9975,-6.9778,-7.0676,-6.938,-6.881,-6.9484,-6.7176,-6.6857,-6.9297,-6.7718,-6.782,-7.0123,-6.6611,-6.5545,-6.7146,0.0,0.0,-5.7264,0.0,0.0,0.0,0.0,0.0,-5.1004,-5.4167,-5.7853,-6.1761,-6.4013,-6.4229,-6.3305,0.0,-6.4034,-6.3265,-6.3702,-6.4136,-6.4588,-6.4795,-6.4888,-6.485,-6.4661,-6.413,-6.3393,-6.2387,-6.1591,-6.106,-6.0854,-6.0345,-5.9912,-6.0051,-6.0223,-6.011,0.0,0.0,0.0,0.0,0.0,0.0,0.0,0.0,0.0,0.0,0.0,0.0,0.0,0.0,0.0,-4.2464,0.0,-4.0124,-3.9461,-3.9501,-3.9514,-3.9464,-3.9563,0.0,0.0,0.0,0.0,-4.2031,-4.3312,-4.4003,-4.3979,-4.5056,-4.5718,-4.599,-4.7251,-4.7985,-4.8187,-4.8048,-4.7947,-4.7881,-4.7699,-4.693,-4.5868,-4.6806,-4.6494,-4.5481,-4.6491,-4.6929,-4.6998,-4.6998,-4.6929,-4.6778,-5.3818,-5.3377,-5.36,-5.4879,0.0,-5.7746,-5.9175,-6.1157,-6.3676,-6.6947,-6.6358,-6.6961,-7.0374,-7.0248,-6.9973,-7.0133,-6.9911,-6.9879,-7.0113,-6.9124,-6.9215,-7.0758,-6.918,-6.905,-7.0705,-6.8056,-6.6912,-6.7523,0.0,0.0,-5.7927,0.0,0.0,0.0,0.0,-5.1574,0.0,-5.5338,-5.8813,-6.2146,-6.4127,-6.4588,0.0,-6.4734,-6.4638,-6.4168,-6.4168,-6.4524,-6.5031,-6.4906,-6.4906,-6.4941,-6.4906,-6.432,-6.3431,-6.2635,-6.178,-6.1098,-6.1098,-6.0757,-6.053,-6.0918,-6.1317,-6.1262,-6.0017,-6.0413,-6.0539,0.0,-5.9197,-5.9072,0.0,0.0,0.0,0.0,0.0,0.0,0.0,0.0,0.0,0.0,-4.1707,-4.071,-3.9418,-3.9373,-3.9375,-3.9298,-3.9464,0.0,0.0,0.0,0.0,-4.2018,-4.2961,-4.3675,-4.4098,-4.5223,-4.59,-4.6151,-4.7388,-4.8068,-4.8246,-4.7972,-4.7907,-4.7927,-4.7762,-4.716,-4.6284,-4.6966,-4.661,-4.5744,-4.6365,-4.6731,-4.6906,-4.6778,-4.6684,-4.6613,-5.5758,-5.4967,-5.4723,0.0,0.0,0.0,-6.2122,-6.4217,0.0,-6.897,0.0,-6.8894,-7.0631,-7.0708,-7.0425,-6.9926,-7.1068,-7.1597,-7.1031,-7.1492,-7.1852,-7.1944,-7.0396,-6.9907,-7.0699,-6.9692,-6.846,-6.714,0.0,0.0,0.0,0.0,0.0,0.0,0.0,0.0,0.0,-5.7444,-5.9984,-6.1652,-6.3975,-6.4888,-6.4888,-6.4906,-6.4906,-6.4941,-6.501,-6.5078,-6.5149,-6.4958,-6.4958,-6.4993,-6.4906,-6.4396,-6.36,-6.2673,-6.1932,-6.1401,-6.1288,-6.1174,-6.1136,-6.125,-6.1743,-6.1818,-6.0264,-6.053,-6.0887,-6.0091,-5.9857,-5.9791,0.0,0.0,0.0,0.0,0.0,0.0,0.0,0.0,0.0,0.0,0.0,0.0,-3.9417,-3.928,-3.9272,-3.9178,0.0,0.0,0.0,0.0,0.0,-4.1846,-4.2434,-4.3287,-4.4507,-4.5315,-4.599,-4.6623,-4.7347,-4.7927,-4.8267,-4.7995,-4.7897,-4.7992,-4.7892,-4.7368,-4.6618,-4.7054,-4.6726,-4.5886,-4.6236,-4.6542,-4.6708,-4.6471,-4.6374,-4.635,-5.8051,-5.7923,0.0,0.0,0.0,-6.4407,-6.4209,-6.4505,-6.5885,-6.8908,-6.8038,-6.8297,-7.1267,-7.0984,-7.1098,-7.2339,-7.218,0.0,-7.1948,-7.0794,-7.045,-7.1158,-6.9473,-6.925,-7.0734,-6.8469,-6.7782,-6.8863,0.0,0.0,0.0,0.0,0.0,0.0,0.0,0.0,-5.6049,-5.8758,0.0,-6.2449,-6.4203,-6.4888,-6.4888,-6.4976,-6.5061,-6.5111,-6.5044,-6.4993,-6.4941,-6.4993,-6.4958,-6.4906,-6.4888,-6.4813,-6.4396,-6.2825,-6.2766,-6.3031,-6.2349,-6.1667,-6.125,-6.2008,-6.1743,-6.106,-6.0113,-6.053,-6.0887,-6.0091,-5.9885,-5.9663,-5.8862,0.0,0.0,0.0,0.0,0.0,0.0,0.0,0.0,0.0,0.0,-4.1329,-4.0037,-3.9598,-3.9333,0.0,0.0,0.0,0.0,0.0,0.0,0.0,-4.2493,0.0,0.0,0.0,-4.5658,-4.5586,-4.7032,-4.7886,-4.8244,-4.8556,-4.8442,-4.8028,-4.8472,-4.8027,-4.6919,-4.7017,-4.6753,-4.6283,-4.6255,-4.635,-4.6471,-4.6266,-4.6105,-4.592,-5.989,0.0,0.0,0.0,0.0,0.0,0.0,-6.7203,-6.8675,-6.9734,-6.8502,-6.8608,-7.1456,-7.145,-7.1558,-7.2409,-7.3031,-7.3236,-7.2885,-7.2895,-7.2674,-7.2136,-7.0873,-7.0316,-7.0708,-6.8985,-6.8288,-6.8671,0.0,0.0,0.0,0.0,0.0,0.0,0.0,-5.6574,0.0,0.0,0.0,-6.2639,-6.4292,-6.4924,-6.4906,-6.5044,-6.5078,-6.5027,-6.5078,-6.501,-6.4888,-6.4941,-6.4958,-6.4958,-6.4906,-6.4585,-6.4092,-6.3241,-6.2976,-6.2976,-6.3014,-6.2425,-6.1894,-6.2294,-6.1743,-6.0871,-6.0075,-6.0205,-6.0378,-5.9961,-5.9902,-5.9604,-5.8673,-5.6042,0.0,0.0,0.0,0.0,0.0,0.0,-4.3938,0.0,0.0,0.0,0.0,0.0,0.0,0.0,0.0,0.0,0.0,0.0,0.0,0.0,0.0,0.0,0.0,0.0,0.0,-4.6104,-4.7057,-4.7684,-4.8108,-4.8496,-4.8533,-4.8257,-4.8692,-4.8393,-4.751,-4.6932,-4.6542,-4.6301,-4.6154,-4.6179,-4.6277,-4.608,-4.5955,-4.5895,-6.2028,-6.0895,0.0,0.0,-6.411,-6.6192,-6.728,-6.9866,-7.145,-7.0763,-6.9788,-6.9934,-7.2002,-7.2314,-7.247,-7.2702,-7.4059,-7.4557,-7.3793,-7.4941,-7.4766,-7.2771,-7.2218,-7.1444,-7.0371,-6.9804,-6.9214,0.0,0.0,0.0,0.0,0.0,0.0,0.0,0.0,0.0,0.0,0.0,-6.3133,-6.3382,-6.4689,-6.5224,-6.5189,-6.5327,-6.5424,-6.5452,-6.523,-6.5141,-6.5171,-6.4964,-6.4941,-6.4993,-6.4906,-6.4434,-6.3848,-6.3658,-6.3279,-6.2993,-6.3279,-6.2862,-6.237,-6.2159,-6.1477,-6.0698,-6.0037,-5.9902,-5.9902,-5.9902,-5.9902,-5.9604,-5.8673,-5.67,0.0,0.0,0.0,0.0,0.0,0.0,-4.417,0.0,0.0,0.0,-4.0821,0.0,0.0,0.0,0.0,0.0,-3.9412,0.0,0.0,0.0,0.0,-4.2206,-4.4474,0.0,-4.6114,-4.669,-4.7277,-4.7659,-4.7927,-4.8279,-4.8412,-4.8357,-4.8784,-4.8573,-4.7856,-4.6716,-4.6204,-4.6105,-4.5955,-4.598,-4.6105,-4.5863,-4.5803,-4.593,0.0,0.0,0.0,0.0,0.0,-6.9689,-6.9232,-7.0601,-7.168,-7.1565,-7.2155,-7.2919,-7.3858,-7.4123,-7.4526,-7.5271,-7.568,-7.5485,-7.4566,-7.4702,-7.3702,-7.1132,-7.1673,-7.1206,-6.9543,-7.004,-7.0266,0.0,0.0,-6.6203,0.0,0.0,0.0,0.0,0.0,0.0,0.0,-6.4706,-6.5148,-6.576,-6.5912,-6.6079,-6.6149,-6.6041,-6.6605,-6.722,-6.5545,-6.5452,-6.6035,-6.5189,-6.4888,-6.4888,-6.4888,-6.485,-6.4623,-6.3827,-6.413,-6.4358,-6.29,-6.2446,-6.2235,-6.1401,-6.0605,-6.0015,-5.9939,-5.9902,-5.9902,-5.9902,-5.9902,-5.9604,-5.8673,-5.7607,-5.6333,0.0,0.0,0.0,0.0,0.0,-4.4982,-4.4184,0.0,0.0,-4.2557,-4.1097,0.0,0.0,-3.9851,0.0,0.0,0.0,0.0,-4.2327,0.0,-4.2541,-4.4381,-4.6461,-4.7114,-4.6344,-4.7745,-4.8069,-4.7551,-4.8025,-4.8057,-4.7817,-4.8685,-4.8444,-4.7282,-4.6142,-4.5761,-4.5803,-4.571,-4.5736,-4.5838,-4.5684,-4.5632,-4.5632,0.0,0.0,0.0,0.0,0.0,0.0,0.0,-7.1516,-7.2826,-7.1833,-7.2444,-7.3323,-7.4125,-7.4358,-7.4363,-7.4172,-7.4727,-7.429,-7.2379,-7.3208,-7.3024,-7.1459,-7.1673,-7.1504,-7.0861,-7.056,-7.0435,0.0,0.0,0.0,0.0,0.0,0.0,0.0,0.0,-6.5276,-6.6458,-6.6458,-6.6327,-6.6139,-6.6686,-6.6628,-6.621,-6.6225,-6.647,-6.6587,-6.5393,-6.5186,-6.5396,-6.502,-6.4888,-6.4888,-6.4888,-6.4888,-6.485,-6.4471,-6.4623,-6.4661,-6.3431,-6.2749,-6.2197,-6.1326,-6.0492,-5.9902,-5.9902,-5.9902,-5.9902,-5.9902,-5.9902,-5.9809,-5.9398,-5.8181,-5.683,-5.5675,0.0,0.0,0.0,0.0,0.0,-4.5805,0.0,-4.4541,-4.3537,-4.231,0.0,0.0,0.0,0.0,0.0,0.0,0.0,-4.2361,0.0,-4.3851,-4.6819,-4.7004,-4.7486,-4.8304,-4.8019,-4.7775,-4.7508,-4.8002,-4.8317,-4.8565,-4.9013,-4.8486,-4.7267,-4.6664,-4.6178,-4.5812,-4.5761,-4.5761,-4.5787,-4.5658,-4.5607,-4.5581,-6.9,0.0,-6.6779,0.0,-6.9428,-6.9826,-6.998,-7.2401,-7.3858,-7.2941,-7.3361,-7.3934,-7.4507,-7.4669,-7.4314,-7.3268,-7.376,-7.3139,-7.0891,-7.2019,-7.2378,-7.1504,-7.1647,0.0,-7.1114,-7.062,-7.0337,-7.0241,-7.0337,0.0,0.0,0.0,0.0,0.0,-6.6281,-6.7065,-6.811,-6.7845,-6.739,-6.6897,-6.7538,-6.7463,-6.6913,-6.7002,-6.6985,-6.6762,-6.5697,-6.5282,-6.5229,-6.5002,-6.4888,-6.4888,-6.4888,-6.4888,-6.4888,-6.4888,-6.4888,-6.4661,-6.3562,-6.2825,-6.2122,-6.1022,-6.0302,-5.9902,-5.9902,-5.9902,-5.9902,-5.9902,-5.9902,-5.9902,-5.9902,-5.8684,-5.737,-5.6484,0.0,0.0,0.0,-4.8899,0.0,-4.7158,-4.6312,-4.5456,-4.467,-4.3775,0.0,0.0,0.0,0.0,0.0,0.0,0.0,0.0,0.0,0.0,-4.8382,-4.7899,-4.8218,-4.9375,-4.8532,-4.7897,-4.7421,-4.7683,-4.8164,-4.8801,-4.847,-4.7858,-4.7072,-4.6691,-4.617,-4.5684,-4.5684,-4.571,-4.5736,-4.5607,-4.5607,-4.5632,-7.094,-7.0208,-6.9794,-7.0633,-7.0714,-7.0961,-7.1751,-7.3194,-7.4507,-7.5365,-7.548,-7.548,-7.548,-7.5549,-7.4976,-7.3445,-7.3246,-7.254,-7.0887,-7.1543,-7.1582,0.0,0.0,-7.1076,-6.9451,-7.0079,-7.0031,-6.9322,0.0,0.0,-6.6792,0.0,-6.6968,-6.7639,-6.915,-6.9854,-6.9816,-6.8944,-6.8565,-6.8565,-6.8565,-6.8658,-6.8749,-6.8602,-6.8658,-6.8542,-6.6744,-6.6101,-6.595,-6.5192,-6.4888,-6.4888,-6.4888,-6.4888,-6.4888,-6.4888,-6.4888,-6.4547,-6.288,-6.2408,-6.2008,-6.034,-5.9902,-5.9902,-5.9902,-5.9902,-5.9902,-5.9902,-5.9902,-5.9902,-5.9902,-5.91,-5.8186,-5.7255,0.0,0.0,0.0,-4.9578,0.0,-4.7981,-4.7217,-4.6584,-4.6285,-4.5527,0.0,0.0,0.0,0.0,0.0,0.0,0.0,-4.4327,-4.4877,0.0,-4.8187,-4.9285,-4.9531,-4.8916,-4.9433,-4.882,-4.7178,-4.6952,-4.7294,-4.8023,-4.6653,-4.6265,-4.6562,-4.5742,-4.5397,-4.5397,-4.5397,-4.5476,-4.5581,-4.545,-4.5581,-4.5761,-7.1755,-7.1958,-7.2155,-7.2341,-7.2831,-7.2898,-7.1931,-7.3662,-7.4775,-7.3896,-7.4775,-7.5518,-7.5518,-7.5535,-7.4882,0.0,-7.3576,-7.298,0.0,-7.1413,-7.1781,-7.1544,-7.1191,-7.1006,-7.1037,-7.062,-7.0266,-7.0031,0.0,0.0,0.0,-6.8929,-6.8993,-6.9188,-6.9702,-6.9891,-6.9891,-6.9588,-6.9133,-6.8641,-6.9247,-6.9152,-6.8658,-6.8621,-6.828,-6.7692,-6.6518,-6.576,-6.5229,-6.5002,-6.4888,-6.4888,-6.4888,-6.4888,-6.4888,-6.4888,-6.4888,-6.4661,-6.3507,-6.2825,-6.2122,-6.0984,-6.0319,-5.9902,-5.9902,-5.9902,-5.9902,-5.9902,-5.9902,-5.9902,-5.9902,-5.9138,-5.824,-5.7375,-5.5944,0.0,-5.3031,0.0,-5.038,-4.9856,-4.8482,-4.7479,-4.7228,-4.6416,0.0,0.0,0.0,0.0,0.0,0.0,0.0,0.0,-4.6474,0.0,-4.9898,-5.0206,-5.0168,-4.9785,-4.9256,-4.8582,-4.7784,-4.808,-4.8232,-4.8233,-4.8277,-4.7977,-4.7519,-4.7796,-4.7365,-4.6447,-4.6297,-4.5959,-4.5581,-4.545,-4.545,-4.5598,-7.2453,-7.2482,-7.2582,-7.3085,-7.3629,-7.3597,-7.2428,-7.41,-7.5136,-7.4087,-7.4851,-7.5518,-7.5518,-7.5518,0.0,-7.3215,-7.3471,-7.3008,-7.1252,-7.1857,-7.2493,-7.2885,-7.2339,-7.2116,-7.2269,-7.1723,0.0,-7.0467,-7.0369,-7.0251,-7.0111,-7.0111,-7.0058,-7.0004,-6.9967,-6.9948,-6.9948,-6.991,-6.9588,-6.9133,-6.9664,-6.955,-6.9096,-6.9096,-6.8375,-6.7314,-6.6783,-6.5874,-6.4888,-6.4888,-6.4888,-6.4888,-6.4888,-6.4888,-6.4888,-6.4888,-6.4888,-6.4699,-6.3865,-6.3241,-6.2652,-6.1818,-6.0947,-6.0281,-5.9961,-5.9902,-5.9902,-5.9902,-5.9902,-5.9885,-5.989,-5.937,-5.8602,-5.7364,-5.6643,-5.5655,-5.3967,0.0,-5.1075,0.0,0.0,0.0,0.0,-4.8067,-4.7868,0.0,0.0,0.0,0.0,0.0,0.0,-4.646,-4.7753,-4.9293,-5.1087,-5.0978,-5.0873,-5.0714,-4.9669,-4.9049,-4.8875,-4.8537,-4.8543,-4.8732,-4.8529,-4.8255,-4.7946,-4.8432,-4.7966,-4.6908,-4.6677,-4.614,-4.5528,-4.5423,-4.5423,-4.558,-7.299,-7.2206,-7.1722,0.0,-7.3445,-7.3453,-7.336,-7.4571,-7.5518,-7.5518,-7.5518,-7.5518,-7.5518,-7.5518,-7.492,-7.3482,0.0,0.0,-7.2293,-7.2824,-7.3549,-7.4369,-7.4353,-7.3915,-7.3128,-7.3111,-7.2346,-7.0776,-7.0582,-7.0462,-7.04,-7.0324,-7.0272,-7.0185,-7.0058,-7.0003,-7.0003,-6.9948,-6.991,-6.9891,-6.9891,-6.9891,-6.9891,-6.9891,-6.8868,-6.739,-6.739,-6.6329,-6.4888,-6.4888,-6.4888,-6.4888,-6.4888,-6.4888,-6.4888,-6.4888,-6.4888,-6.4737,-6.3903,-6.3658,-6.3431,-6.2673,-6.1818,-6.0984,-6.0151,-5.9961,-5.9961,-5.9902,-5.9902,-5.9869,-5.9807,-5.9774,-5.9156,-5.7288,-5.699,-5.6353,-5.4559,-5.2156,-5.0542,0.0,0.0,0.0,-4.8772,-5.0175,-5.0688,0.0,0.0,0.0,0.0,0.0,-4.7155,-4.8028,-4.8857,-5.0101,-5.1788,-5.1646,-5.158,-5.1559,-5.0488,-5.009,-5.0225,-4.8487,-4.8377,-4.945,-4.7788,-4.7456,-4.8016,-4.805,-4.7634,-4.6949,-4.685,-4.6251,-4.55,-4.5561,-4.5606,-4.5788,0.0,0.0,-7.4115,-7.5088,-7.518,-7.5117,-7.502,-7.5302,-7.5518,-7.5518,-7.5518,-7.5518,-7.5518,-7.5518,-7.5327,-7.4996,-7.4924,-7.486,-7.4826,-7.4309,-7.4188,-7.4619,-7.382,-7.3367,-7.3261,-7.3111,-7.2855,-7.2515,-7.1896,-7.1526,-7.1341,-7.0692,-7.0302,-7.0185,-7.0167,-7.0114,-7.0003,-6.9984,-6.9967,-6.9891,-6.9891,-6.9891,-6.9891,-6.9891,-6.8868,-6.739,-6.739,-6.6329,-6.4888,-6.4888,-6.4888,-6.4888,-6.4888,-6.4888,-6.4888,-6.4888,-6.4888,-6.485,-6.4661,-6.413,-6.3544,-6.3355,-6.2673,-6.1856,-6.1022,-6.0795,-6.0643,-6.0053,-5.9902,-5.9869,-5.9807,-5.9723,-5.9087,-5.727,-5.6975,-5.6061,-5.3686,-5.2758,-5.2039,0.0,-5.0842,-5.0583,-5.0374,-5.0723,-5.0831,0.0,0.0,0.0,-5.0094,-4.9664,-4.9168,-4.8711,-5.0183,-5.1259,-5.1788,-5.2244,-5.2067,-5.1203,-5.0839,-5.0581,-5.041,-4.9301,-4.9174,-4.974,-4.867,-4.8496,-4.8985,-4.9576,-4.9313,-4.857,-4.8515,-4.7603,-4.6389,-4.7076,-4.6911,-4.6581,-7.3899,-7.4399,-7.4947,-7.5756,-7.5794,-7.566,-7.5616,-7.5532,-7.5518,-7.5518,-7.5518,-7.5518,-7.5518,-7.5535,-7.557,-7.557,-7.5535,-7.5532,-7.5666,-7.5206,-7.497,-7.5104,-7.4565,-7.4287,-7.4303,-7.4243,-7.4035,-7.375,-7.2571,-7.1927,-7.181,-7.092,-7.0441,-7.0307,-7.022,-7.0132,-7.0003,-7.0003,-6.9966,-6.9967,-6.9967,-6.9967,-6.9967,-6.991,-6.8868,-6.739,-6.7445,-6.6365,-6.4888,-6.4941,-6.4924,-6.4888,-6.4888,-6.4888,-6.4888,-6.4888,-6.4888,-6.4888,-6.4888,-6.4547,-6.4075,-6.3696,-6.3279,-6.2728,-6.1894,-6.1401,-6.0984,-6.053,-6.0118,-5.9841,-5.974,-5.9616,-5.9,-5.7238,-5.6549,-5.5503,-5.3297,-5.2559,-5.2027,-5.1472,-5.1584,-5.1634,-5.1477,-5.1748,-5.1781,-5.1389,-5.1543,0.0,-5.0639,-5.1192,-5.1121,-5.0277,-5.1035,-5.1741,-5.2358,-5.2696,-5.252,-5.1792,-5.1607,-5.1383,-5.103,-5.0037,-4.9857,-5.0268,-4.9451,-4.9398,-4.9916,-5.0335,-5.0,-4.9284,-4.9146,-4.8308,-4.7257,-4.7719,-4.7588,-4.7388,-7.4553,-7.4707,-7.4947,-7.5772,-7.581,-7.5676,-7.5633,-7.5549,-7.5535,-7.5535,-7.5518,-7.5518,-7.5553,-7.5566,-7.5599,-7.5616,-7.5549,-7.5549,-7.5633,-7.5682,-7.5699,-7.5666,-7.5715,-7.5644,-7.5604,-7.5616,-7.5337,-7.4696,-7.3123,-7.228,-7.2149,-7.1159,-7.0604,-7.0369,-7.0255,-7.0149,-7.0021,-7.0021,-7.0021,-7.0003,-7.0021,-7.0021,-7.0003,-6.9948,-6.8905,-6.7445,-6.7478,-6.6398,-6.4941,-6.501,-6.4976,-6.4906,-6.4888,-6.4888,-6.4888,-6.4888,-6.4888,-6.4888,-6.4888,-6.4888,-6.4737,-6.3961,-6.381,-6.3582,-6.2749,-6.1932,-6.125,-6.1136,-6.0371,-5.974,-5.9598,-5.951,-5.8893,-5.7132,-5.6179,-5.5039,-5.3225,0.0,-5.1695,-5.1565,-5.21,-5.2404,-5.2304,-5.2847,-5.2915,-5.2234,-5.27,-5.2374,-5.0858,-5.2184,-5.2645,-5.1929,-5.1645,-5.1936,-5.2937,-5.2937,-5.285,-5.2568,-5.2374,-5.2102,-5.1672,-5.0602,-5.0416,-5.0795,-5.0057,-5.002,-5.0585,-5.0585,-5.02,-4.9614,-4.943,-4.8834,-4.8147,-4.8278,-4.8216,-4.8216,-7.4553,-7.4707,-7.4962,-7.5846,-7.5925,-7.5848,-7.5692,-7.5633,-7.5583,-7.5583,-7.5553,-7.5532,-7.5644,-7.5633,-7.5633,-7.566,-7.566,-7.5731,-7.5848,-7.5699,-7.5715,-7.5917,-7.5794,-7.5794,-7.5902,-7.5917,-7.578,-7.5501,-7.4504,-7.3667,-7.2914,-7.1854,-7.0955,-7.022,-7.0203,-7.0185,-7.0167,-7.0167,-7.0114,-7.0003,-7.0132,-7.0114,-7.0003,-6.9984,-6.9013,-6.7621,-6.7514,-6.6484,-6.5149,-6.5006,-6.4989,-6.4955,-6.4906,-6.4888,-6.4888,-6.4888,-6.4888,-6.4888,-6.4888,-6.4888,-6.4888,-6.4737,-6.4699,-6.4471,-6.362,-6.2787,-6.2008,-6.125,-6.032,-5.9598,-5.951,-5.942,-5.8728,-5.693,-5.6538,-5.5566,-5.3068,0.0,-5.2973,-5.2247,-5.2756,-5.3113,-5.3025,-5.3115,-5.3151,-5.3041,-5.313,-5.2993,-5.263,-5.2762,-5.271,-5.2476,-5.2409,-5.2481,-5.2658,-5.2783,-5.2717,-5.2503,-5.2364,-5.2078,-5.1672,-5.0702,-5.0545,-5.0999,-5.0084,-5.002,-5.0585,-5.0585,-5.0495,-5.0279,-5.0362,-4.9819,-4.9179,-4.9916,-4.9714,-4.9187,-7.5322,-7.5399,-7.5515,-7.5938,-7.594,-7.5879,-7.581,-7.5731,-7.5628,-7.5628,-7.5633,-7.5649,-7.5692,-7.5731,-7.5747,-7.5794,-7.5724,-7.5763,-7.5879,-7.5747,-7.5731,-7.5841,-7.574,-7.5747,-7.5779,-7.5731,-7.5682,-7.5599,-7.4702,-7.4074,-7.3658,-7.2168,-7.1263,-7.0832,-7.0375,-7.0149,-7.0114,-7.0167,-7.0167,-7.0132,-7.0167,-7.0167,-7.0114,-7.0021,-6.9031,-6.7673,-6.7583,-6.6535,-6.5199,-6.5128,-6.5078,-6.4972,-6.4924,-6.4888,-6.4888,-6.4888,-6.4888,-6.4888,-6.4888,-6.4888,-6.4888,-6.4888,-6.4888,-6.4813,-6.4396,-6.3334,-6.2294,-6.1826,-6.0609,-5.9563,-5.942,-5.9328,-5.8615,-5.6798,-5.6069,0.0,-5.2828,-5.2675,-5.2629,-5.2257,-5.2819,-5.3209,-5.3103,-5.3082,-5.3082,-5.3082,-5.3082,-5.3039,-5.2893,-5.2974,-5.2886,-5.2536,-5.2649,-5.2658,-5.259,-5.2739,-5.2717,-5.2536,-5.2387,-5.2366,-5.2541,-5.1569,-5.1424,-5.1821,-5.0929,-5.084,-5.136,-5.136,-5.1332,-5.1284,-5.1703,-5.1081,-5.0153,-5.1361,-5.1326,-5.0774,-7.6015,-7.6015,-7.6015,-7.6015,-7.5955,-7.591,-7.5895,-7.5794,-7.5763,-7.5763,-7.5708,-7.5708,-7.5756,-7.5864,-7.5895,-7.591,-7.581,-7.5794,-7.5879,-7.5779,-7.5708,-7.5763,-7.5708,-7.566,-7.5633,-7.5549,-7.5535,-7.5518,-7.4795,-7.4358,-7.4129,-7.248,-7.1591,-7.1365,-7.0566,-7.0149,-7.0076,-7.0185,-7.022,-7.022,-7.0238,-7.0238,-7.0203,-7.0093,-6.9102,-6.774,-6.7669,-6.6602,-6.5226,-6.5248,-6.5144,-6.5023,-6.4958,-6.4924,-6.4906,-6.4888,-6.4888,-6.4888,-6.4888,-6.4888,-6.4888,-6.4888,-6.4888,-6.4871,-6.4853,-6.3582,-6.2391,-6.2287,-6.0821,-5.9528,-5.929,-5.9215,-5.852,-5.6664,0.0,-5.4664,-5.2936,-5.2498,-5.2357,-5.2377,-5.2884,-5.3146,-5.306,-5.306,-5.306,-5.306,-5.306,-5.2995,-5.285,-5.32,-5.3273,-5.3083,-5.3026,-5.2963,-5.2835,-5.3145,-5.3145,-5.2835,-5.2723,-5.275,-5.3001,-5.2292,-5.2212,-5.2616,-5.1986,-5.1997,-5.249,-5.249,-5.2392,-5.2294,-5.2923,-5.2368,-5.1314,-5.2656,-5.2797,-5.2403,-7.6015,-7.6015,-7.6015,-7.6015,-7.6015,-7.5985,-7.5895,-7.5879,-7.5879,-7.5879,-7.5779,-7.5756,-7.5947,-7.5925,-7.5925,-7.6,-7.5925,-7.5879,-7.5895,-7.5779,-7.5763,-7.5879,-7.5779,-7.5692,-7.5692,-7.5633,-7.5549,-7.5518,-7.5297,-7.4842,-7.4079,-7.2965,-7.2034,-7.1365,-7.0566,-7.0238,-7.0268,-7.0307,-7.0268,-7.0324,-7.0353,-7.0353,-7.0268,-7.0268,-6.9289,-6.7865,-6.7823,-6.6733,-6.5383,-6.5305,-6.5274,-6.5242,-6.504,-6.4989,-6.4955,-6.4906,-6.4888,-6.4888,-6.4888,-6.4888,-6.4888,-6.4888,-6.4888,-6.4871,-6.4743,-6.3492,-6.2336,-6.216,-6.0732,-5.9457,-5.9234,-5.9119,-5.8422,-5.6583,0.0,0.0,-5.3825,-5.3322,-5.3157,-5.3187,-5.3214,-5.3203,-5.3203,-5.3203,-5.3203,-5.3203,-5.3203,-5.3124,-5.298,-5.3602,-5.4186,-5.4725,-5.4025,-5.3626,-5.3603,-5.4387,-5.4387,-5.3603,-5.3603,-5.3099,-5.2174,-5.2138,-5.246,-5.3053,-5.2992,-5.3386,-5.4041,-5.4041,-5.357,-5.2905,-5.369,-5.3476,-5.2834,-5.369,-5.386,-5.3682,-7.6707,-7.6823,-7.6938,-7.7438,-7.7553,-7.7553,-7.7508,-7.7508,-7.7508,-7.7508,-7.7032,-7.6724,-7.6784,-7.6293,-7.5985,-7.6015,-7.5856,-7.6025,-7.6625,-7.6047,-7.5708,-7.5779,-7.5708,-7.566,-7.5649,-7.5445,-7.5358,-7.5321,-7.5152,-7.4923,-7.4638,-7.3194,-7.2376,-7.2164,-7.0847,-7.0289,-7.0286,-7.0286,-7.0286,-7.0286,-7.0319,-7.0319,-7.0286,-7.0286,-6.9649,-6.8607,-6.8014,-6.713,-6.6124,-6.5449,-6.5248,-6.5177,-6.4993,-6.4941,-6.4941,-6.4888,-6.4888,-6.4888,-6.4888,-6.4888,-6.4888,-6.4888,-6.4888,-6.4853,-6.4743,-6.3457,-6.2287,-6.2089,-6.0622,-5.9328,-5.9119,-5.9002,-5.8486,-5.7085,0.0,-5.6346,-5.5054,-5.4779,-5.4715,-5.4721,-5.4678,-5.4671,-5.4584,-5.4209,-5.3916,-5.3851,-5.3792,-5.3792,-5.3749,-5.3863,-5.4031,-5.4228,-5.4375,-5.4436,-5.4436,-5.4762,-5.4762,-5.4436,-5.4436,-5.446,-5.4496,-5.4038,-5.412,-5.4604,-5.4173,-5.4235,-5.4715,-5.4715,-5.451,-5.4252,-5.4953,-5.4545,-5.3804,-5.4982,-5.5089,-5.4786,-7.7515,-7.7669,-7.7861,-7.84,-7.8477,-7.84,-7.8169,-7.813,-7.813,-7.813,-7.763,-7.74,-7.763,-7.713,-7.6669,-7.6438,-7.6509,-7.6677,-7.7085,-7.6501,-7.6047,-7.5779,-7.5676,-7.5666,-7.5599,-7.5358,-7.5209,-7.5209,-7.5074,-7.5055,-7.5076,-7.3669,-7.2925,-7.2749,-7.1638,-7.1023,-7.0756,-7.1023,-7.0985,-7.0756,-7.0756,-7.0586,-7.0319,-7.0319,-6.9873,-6.9065,-6.8145,-6.7321,-6.6529,-6.5531,-6.5232,-6.5215,-6.4993,-6.4906,-6.4964,-6.5192,-6.5116,-6.4888,-6.4888,-6.4871,-6.4853,-6.4871,-6.4888,-6.4853,-6.4689,-6.3441,-6.2233,-6.1996,-6.0548,-5.9234,-5.9024,-5.8942,-5.8537,-5.7429,-5.7196,-5.6851,-5.5809,-5.5633,-5.5596,-5.5596,-5.5596,-5.5552,-5.5463,-5.5053,-5.4745,-5.4657,-5.4635,-5.4722,-5.4889,-5.4533,-5.4467,-5.4869,-5.51,-5.5377,-5.5631,-5.5631,-5.5486,-5.5269,-5.5269,-5.5377,-5.5631,-5.5124,-5.5256,-5.5833,-5.5277,-5.5317,-5.574,-5.5723,-5.55,-5.5241,-5.5925,-5.5589,-5.4825,-5.5991,-5.6188,-5.5917,-7.8361,-7.8515,-7.8515,-7.853,-7.853,-7.8246,-7.7438,-7.7323,-7.7323,-7.7323,-7.7323,-7.7592,-7.84,-7.8477,-7.8169,-7.7361,-7.7977,-7.8046,-7.7162,-7.7124,-7.674,-7.5933,-7.5737,-7.5599,-7.5599,-7.5358,-7.5209,-7.532,-7.5209,-7.5209,-7.5281,-7.4481,-7.3695,-7.3017,-7.2979,-7.252,-7.1756,-7.2635,-7.2482,-7.168,-7.168,-7.1183,-7.0419,-7.0419,-6.9922,-6.9065,-6.8145,-6.7321,-6.6567,-6.5531,-6.5264,-6.5258,-6.5078,-6.4958,-6.5078,-6.5874,-6.5533,-6.4888,-6.4888,-6.4779,-6.4743,-6.4871,-6.4888,-6.4835,-6.4652,-6.3424,-6.2216,-6.1883,-6.0454,-5.9234,-5.9024,-5.8942,-5.8557,-5.7476,-5.7238,-5.6873,-5.5932,-5.5677,-5.5611,-5.5611,-5.5611,-5.5611,-5.5611,-5.5611,-5.5633,-5.5633,-5.5633,-5.5829,-5.6379,-5.565,-5.5824,-5.7177,-5.6428,-5.6355,-5.7188,-5.7188,-5.679,-5.5993,-5.5993,-5.5631,-5.4907,-5.4907,-5.545,-5.6379,-5.6297,-5.6661,-5.7424,-5.7239,-5.6602,-5.5698,-5.6489,-5.649,-5.6138,-5.6783,-5.7098,-5.7224,-7.9246,-7.94,-7.9592,-8.0208,-8.0323,-8.0054,-7.9169,-7.9054,-7.8823,-7.8207,-7.813,-7.8207,-7.8477,-7.8477,-7.84,-7.8169,-7.8276,-7.8234,-7.7966,-7.8039,-7.767,-7.6699,-7.6038,-7.5633,-7.5514,-7.5465,-7.5356,-7.532,-7.5283,-7.5283,-7.5281,-7.4481,-7.4,-7.3819,-7.3246,-7.2864,-7.2635,-7.2902,-7.2482,-7.168,-7.168,-7.1183,-7.0419,-7.0419,-7.0266,-6.9906,-6.8984,-6.8128,-6.7403,-6.6954,-6.6463,-6.6083,-6.6532,-6.6233,-6.5798,-6.6025,-6.5533,-6.4888,-6.4888,-6.4871,-6.4853,-6.4871,-6.4781,-6.4671,-6.4615,-6.3276,-6.2015,-6.1805,-6.0301,-5.9043,-5.8942,-5.8859,-5.8603,-5.8147,-5.8045,-5.7884,-5.7426,-5.7322,-5.7262,-5.7262,-5.7262,-5.7262,-5.7262,-5.6785,-5.6455,-5.6455,-5.6455,-5.6672,-5.7182,-5.6583,-5.6304,-5.6648,-5.6297,-5.6249,-5.6503,-5.6949,-5.708,-5.6826,-5.6826,-5.6767,-5.6648,-5.6648,-5.6891,-5.7255,-5.779,-5.803,-5.8109,-5.798,-5.7978,-5.8071,-5.7676,-5.7846,-5.8408,-5.8635,-5.876,-5.8891,-8.0131,-8.0323,-8.0477,-8.1016,-8.1093,-8.0823,-7.9939,-7.9515,-7.9092,-7.8554,-7.8477,-7.8631,-7.8931,-7.9308,-7.9385,-7.9008,-7.8907,-7.9051,-7.9374,-7.9161,-7.8723,-7.801,-7.6859,-7.6011,-7.557,-7.5824,-7.5824,-7.5459,-7.5407,-7.5427,-7.5389,-7.4931,-7.4528,-7.4201,-7.4049,-7.3781,-7.3514,-7.3819,-7.3476,-7.2673,-7.2329,-7.168,-7.0877,-7.0533,-7.0419,-7.0288,-6.9315,-6.865,-6.8193,-6.7628,-6.7139,-6.6855,-6.7636,-6.7276,-6.6594,-6.6594,-6.5989,-6.5252,-6.4911,-6.4799,-6.4781,-6.4817,-6.4745,-6.4615,-6.4615,-6.3239,-6.1958,-6.1805,-6.0262,-5.8984,-5.8942,-5.8801,-5.8614,-5.8437,-5.8393,-5.8305,-5.8042,-5.7997,-5.7997,-5.7997,-5.7997,-5.7997,-5.7997,-5.7556,-5.7262,-5.7262,-5.7262,-5.7368,-5.7607,-5.7288,-5.6972,-5.6806,-5.6709,-5.6661,-5.6661,-5.701,-5.7369,-5.7659,-5.7659,-5.7916,-5.8333,-5.8333,-5.8432,-5.8641,-5.9053,-5.9085,-5.8932,-5.876,-5.8916,-5.9195,-5.8592,-5.8835,-5.9562,-5.9456,-5.9536,-5.9667,-8.0939,-8.1093,-8.1093,-8.1093,-8.1093,-8.0823,-7.9939,-7.9131,-7.8592,-7.8515,-7.8554,-7.8908,-7.9636,-8.0546,-8.0754,-7.9889,-7.9876,-8.0231,-8.1038,-8.0285,-7.9707,-7.9505,-7.8048,-7.6788,-7.5846,-7.6335,-7.6293,-7.5692,-7.5666,-7.5616,-7.5616,-7.5616,-7.5145,-7.4354,-7.5136,-7.5059,-7.4393,-7.5157,-7.5004,-7.4125,-7.3399,-7.252,-7.1603,-7.0839,-7.0495,-7.0271,-6.9341,-6.9019,-6.8824,-6.7822,-6.7542,-6.7731,-6.8489,-6.8148,-6.7485,-6.7504,-6.6862,-6.5898,-6.5047,-6.4841,-6.4823,-6.4726,-6.4745,-6.4746,-6.4615,-6.3239,-6.1958,-6.1825,-6.0301,-5.8984,-5.8984,-5.8842,-5.8614,-5.8437,-5.8393,-5.8327,-5.8042,-5.7997,-5.7997,-5.7997,-5.7997,-5.7997,-5.7997,-5.7997,-5.7997,-5.7997,-5.7997,-5.7904,-5.7631,-5.7763,-5.7679,-5.7437,-5.7412,-5.7412,-5.7388,-5.7336,-5.7659,-5.8383,-5.8383,-5.8896,-5.9812,-5.9812,-5.9965,-6.0188,-6.0037,-5.9972,-5.9921,-5.9635,-5.96,-5.961,-5.9439,-5.96,-5.9953,-5.9726,-5.9806,-5.9989,-8.1054,-8.1093,-8.1093,-8.1093,-8.1093,-8.0823,-7.9939,-7.9631,-7.9285,-7.8592,-7.9092,-7.9577,-7.9754,-8.0577,-8.0984,-8.0657,-8.0635,-8.0728,-8.092,-8.0238,-7.9707,-7.9505,-7.9248,-7.8673,-7.7747,-7.6525,-7.5852,-7.5692,-7.5779,-7.5763,-7.566,-7.566,-7.5535,-7.5298,-7.5489,-7.5455,-7.5233,-7.5424,-7.5004,-7.4201,-7.401,-7.3055,-7.168,-7.1489,-7.0992,-7.0348,-7.0026,-6.9479,-6.8853,-6.8487,-6.8792,-6.9399,-6.955,-6.9001,-6.8281,-6.8319,-6.7638,-6.6672,-6.5936,-6.6163,-6.6296,-6.5009,-6.5143,-6.5389,-6.4747,-6.3182,-6.1825,-6.1728,-6.0279,-5.8965,-5.894,-5.8818,-5.8656,-5.8508,-5.8422,-5.8349,-5.8156,-5.8065,-5.7997,-5.7997,-5.7997,-5.7997,-5.7997,-5.7997,-5.7997,-5.7997,-5.7997,-5.7973,-5.7927,-5.795,-5.7881,-5.7739,-5.7607,-5.7486,-5.7388,-5.788,-5.8239,-5.8383,-5.8383,-5.8947,-5.9965,-5.9965,-6.009,-6.0408,-6.0946,-6.1165,-6.1039,-6.0757,-6.0963,-6.1335,-6.0585,-6.0702,-6.1389,-6.1417,-6.1471,-6.1525,-8.1093,-8.1093,-8.1093,-8.1093,-8.1093,-8.0939,-8.0477,-8.0092,-7.9646,-7.9229,-7.9576,-7.983,-7.9785,-8.0623,-8.1124,-8.0991,-8.0943,-8.0943,-8.0991,-8.0568,-8.0267,-8.0169,-7.9873,-7.9489,-7.898,-7.7675,-7.6808,-7.6471,-7.6117,-7.591,-7.5794,-7.5794,-7.5747,-7.5666,-7.5666,-7.5616,-7.5532,-7.5532,-7.5285,-7.4775,-7.4393,-7.367,-7.2758,-7.1956,-7.1311,-7.0802,-7.0281,-6.9791,-6.9357,-6.9247,-6.9512,-6.9891,-6.9891,-6.9531,-6.9,-6.866,-6.8128,-6.7442,-6.6652,-6.6747,-6.6747,-6.5464,-6.5483,-6.5557,-6.4785,-6.3464,-6.2275,-6.1801,-6.0596,-5.96,-5.9516,-5.9057,-5.8805,-5.9069,-5.8745,-5.8378,-5.8201,-5.8133,-5.8065,-5.7997,-5.7997,-5.7997,-5.7997,-5.7997,-5.7997,-5.7997,-5.795,-5.805,-5.8454,-5.804,-5.8116,-5.8835,-5.796,-5.7643,-5.7969,-5.8279,-5.8782,-5.9542,-5.9621,-6.015,-6.1157,-6.1197,-6.1323,-6.1594,-6.2327,-6.2618,-6.2578,-6.2761,-6.2838,-6.2811,-6.2159,-6.1996,-6.2087,-6.2005,-6.1978,-6.1978,-8.1093,-8.1093,-8.1093,-8.1093,-8.1093,-8.1093,-8.1093,-8.0477,-8.0031,-8.0091,-8.0121,-8.0091,-8.0,-8.0662,-8.1154,-8.1093,-8.0975,-8.0975,-8.1108,-8.1007,-8.0937,-8.0937,-8.0338,-7.9953,-7.9905,-7.9076,-7.82,-7.7284,-7.6592,-7.6139,-7.591,-7.591,-7.5826,-7.5708,-7.5708,-7.5699,-7.5616,-7.5616,-7.5566,-7.5459,-7.4715,-7.432,-7.3926,-7.2383,-7.1644,-7.1289,-7.0343,-6.9948,-6.9891,-6.9891,-6.9891,-6.9891,-6.9891,-6.9815,-6.9566,-6.8905,-6.8558,-6.8186,-6.7358,-6.7228,-6.7115,-6.6137,-6.5911,-6.5705,-6.4973,-6.3896,-6.2855,-6.2063,-6.1157,-6.0418,-6.0315,-5.9653,-5.9324,-5.9943,-5.9381,-5.8791,-5.8467,-5.8399,-5.8295,-5.802,-5.7997,-5.7997,-5.7997,-5.7997,-5.7997,-5.7997,-5.7904,-5.82,-5.8981,-5.8263,-5.8543,-5.9953,-5.8614,-5.814,-5.8805,-5.8942,-5.9687,-6.1027,-6.1442,-6.2073,-6.2834,-6.2965,-6.3119,-6.3257,-6.3815,-6.4056,-6.4103,-6.4619,-6.451,-6.3915,-6.3529,-6.3039,-6.251,-6.2123,-6.1978,-6.1978,-8.1093,-8.1093,-8.1093,-8.1093,-8.1093,-8.1093,-8.1093,-8.1016,-8.0869,-8.0783,-8.0931,-8.0962,-8.0767,-8.0882,-8.0991,-8.1093,-8.0975,-8.0991,-8.1184,-8.1184,-8.1146,-8.1069,-8.109,-8.0983,-8.0846,-8.0061,-7.8921,-7.7284,-7.7169,-7.6746,-7.6,-7.6,-7.5955,-7.5879,-7.5879,-7.5794,-7.5676,-7.5676,-7.5666,-7.5583,-7.5468,-7.4903,-7.4052,-7.3028,-7.2192,-7.1416,-7.038,-6.9948,-6.9891,-6.9891,-6.9891,-6.9891,-6.9891,-6.9776,-6.9579,-6.9566,-6.9327,-6.8908,-6.8224,-6.8508,-6.8696,-6.7153,-6.6739,-6.6533,-6.5742,-6.4192,-6.2868,-6.2755,-6.1898,-6.1172,-6.1151,-6.0991,-6.089,-6.098,-6.073,-6.0225,-5.9516,-5.9223,-5.8804,-5.807,-5.7997,-5.7997,-5.7997,-5.7997,-5.7997,-5.7997,-5.7973,-5.8257,-5.8981,-5.898,-5.9298,-5.9978,-5.9771,-5.9623,-5.963,-6.0864,-6.1616,-6.186,-6.3512,-6.4339,-6.4475,-6.4672,-6.4841,-6.4971,-6.5055,-6.5128,-6.5102,-6.5045,-6.4902,-6.4585,-6.3721,-6.3257,-6.3002,-6.2259,-6.1978,-6.1978,-8.1093,-8.1093,-8.1093,-8.1093,-8.1093,-8.1093,-8.1093,-8.1045,-8.1007,-8.1054,-8.1085,-8.11,-8.107,-8.1023,-8.1045,-8.1093,-8.1023,-8.1054,-8.1199,-8.1176,-8.1137,-8.1176,-8.1205,-8.1176,-8.1054,-8.0739,-7.9931,-7.8707,-7.8207,-7.7553,-7.6746,-7.6746,-7.6462,-7.5955,-7.5955,-7.591,-7.5794,-7.5794,-7.5747,-7.5666,-7.5566,-7.5233,-7.4707,-7.3724,-7.3098,-7.2605,-7.1655,-7.1295,-7.1218,-7.0725,-7.0574,-7.0498,-6.9948,-6.9717,-6.9577,-6.9539,-6.9374,-6.915,-6.8939,-6.9131,-6.911,-6.7906,-6.7642,-6.7266,-6.5905,-6.4919,-6.4009,-6.299,-6.2358,-6.2007,-6.1943,-6.1506,-6.1373,-6.1819,-6.1352,-6.0774,-6.0336,-5.9711,-5.9131,-5.8731,-5.8253,-5.8157,-5.8527,-5.8207,-5.7973,-5.7904,-5.8283,-5.8882,-5.964,-5.9652,-6.0187,-6.1303,-6.0464,-6.0377,-6.1131,-6.1927,-6.2702,-6.3484,-6.4994,-6.5404,-6.4803,-6.5118,-6.5249,-6.5338,-6.5778,-6.5962,-6.5999,-6.6386,-6.6143,-6.5532,-6.5031,-6.4439,-6.3816,-6.3454,-6.3345,-6.3273]},{"header":{"parameterUnit":"m.s-1","parameterCategory":1,"la1":30.6,"la2":28.766,"lo1":-90.7593,"lo2":-88.6598,"dy":0.0162,"dx":0.0183,"nx":116,"ny":114,"refTime":"2024-02-26T18:00:00:Z","depth":0,"parameterNumber":3,"parameterNumberName":"V-component_of_WINDS"},"data":[0.0,0.0,0.0,0.0,0.0,0.0,0.0,0.0,0.0,0.0,0.0,0.0,0.0,0.0,0.0,0.0,0.0,0.0,0.0,0.0,0.0,0.0,0.0,0.0,0.0,0.0,0.0,0.0,0.0,0.0,0.0,0.0,0.0,0.0,0.0,0.0,0.0,0.0,0.0,0.0,0.0,0.0,0.0,0.0,0.0,0.0,0.0,0.0,0.0,0.0,0.0,0.0,0.0,0.0,0.0,0.0,0.0,0.0,0.0,0.0,0.0,0.0,0.0,0.0,0.0,0.0,0.0,0.0,0.0,0.0,0.0,0.0,0.0,0.0,0.0,0.0,0.0,0.0,0.0,0.0,0.0,0.0,0.0,0.0,0.0,0.0,0.0,0.0,0.0,0.0,0.0,0.0,0.0,0.0,0.0,0.0,0.0,0.0,0.0,0.0,0.0,0.0,0.0,0.0,0.0,0.0,0.0,0.0,0.0,0.0,0.0,0.0,0.0,0.0,0.0,0.0,0.0,0.0,0.0,0.0,0.0,0.0,0.0,0.0,0.0,0.0,0.0,0.0,0.0,0.0,0.0,0.0,0.0,0.0,0.0,0.0,0.0,0.0,0.0,0.0,0.0,0.0,0.0,0.0,0.0,0.0,0.0,0.0,0.0,0.0,0.0,0.0,0.0,0.0,0.0,0.0,0.0,0.0,0.0,0.0,0.0,0.0,0.0,0.0,0.0,0.0,0.0,0.0,0.0,0.0,0.0,0.0,0.0,0.0,0.0,0.0,0.0,0.0,0.0,0.0,0.0,0.0,0.0,0.0,0.0,0.0,0.0,0.0,0.0,0.0,0.0,0.0,0.0,0.0,0.0,0.0,0.0,0.0,0.0,0.0,0.0,0.0,0.0,0.0,0.0,0.0,0.0,0.0,0.0,0.0,0.0,0.0,0.0,0.0,0.0,0.0,0.0,0.0,0.0,0.0,0.0,0.0,0.0,0.0,0.0,0.0,0.0,0.0,0.0,0.0,0.0,0.0,0.0,0.0,0.0,0.0,0.0,0.0,0.0,0.0,0.0,0.0,0.0,0.0,0.0,0.0,0.0,0.0,0.0,0.0,0.0,0.0,0.0,0.0,0.0,0.0,0.0,0.0,0.0,0.0,0.0,0.0,0.0,0.0,0.0,0.0,0.0,0.0,0.0,0.0,0.0,0.0,0.0,0.0,0.0,0.0,0.0,0.0,0.0,0.0,0.0,0.0,0.0,0.0,0.0,0.0,0.0,0.0,0.0,0.0,0.0,0.0,0.0,0.0,0.0,0.0,0.0,0.0,0.0,0.0,0.0,0.0,0.0,0.0,0.0,0.0,0.0,0.0,0.0,0.0,0.0,0.0,0.0,0.0,0.0,0.0,0.0,0.0,0.0,0.0,0.0,0.0,0.0,0.0,0.0,0.0,0.0,0.0,0.0,0.0,0.0,0.0,0.0,0.0,0.0,0.0,0.0,0.0,0.0,0.0,0.0,0.0,0.0,0.0,0.0,0.0,0.0,0.0,0.0,0.0,0.0,0.0,0.0,0.0,0.0,0.0,0.0,0.0,0.0,0.0,0.0,0.0,0.0,0.0,0.0,0.0,0.0,0.0,0.0,0.0,0.0,0.0,0.0,0.0,0.0,0.0,0.0,0.0,0.0,0.0,0.0,0.0,0.0,0.0,0.0,0.0,0.0,0.0,0.0,0.0,0.0,0.0,0.0,0.0,0.0,0.0,0.0,0.0,0.0,0.0,0.0,0.0,0.0,0.0,0.0,0.0,0.0,0.0,0.0,0.0,0.0,0.0,0.0,0.0,0.0,0.0,0.0,0.0,0.0,0.0,0.0,0.0,0.0,0.0,0.0,0.0,0.0,0.0,0.0,0.0,0.0,0.0,0.0,0.0,0.0,0.0,0.0,0.0,0.0,0.0,0.0,0.0,0.0,0.0,0.0,0.0,0.0,0.0,0.0,0.0,0.0,0.0,0.0,0.0,0.0,0.0,0.0,0.0,0.0,0.0,0.0,0.0,0.0,0.0,0.0,0.0,0.0,0.0,0.0,0.0,0.0,0.0,0.0,0.0,0.0,0.0,0.0,0.0,0.0,0.0,0.0,0.0,0.0,0.0,0.0,0.0,0.0,0.0,0.0,0.0,0.0,0.0,0.0,0.0,0.0,0.0,0.0,0.0,0.0,0.0,0.0,0.0,0.0,0.0,0.0,0.0,0.0,0.0,0.0,0.0,0.0,0.0,0.0,0.0,0.0,0.0,0.0,0.0,0.0,0.0,0.0,0.0,0.0,0.0,0.0,0.0,0.0,0.0,0.0,0.0,0.0,0.0,0.0,0.0,0.0,0.0,0.0,0.0,0.0,0.0,0.0,0.0,0.0,0.0,0.0,0.0,0.0,0.0,0.0,0.0,0.0,0.0,0.0,0.0,0.0,0.0,0.0,0.0,0.0,0.0,0.0,0.0,0.0,0.0,0.0,0.0,0.0,0.0,0.0,0.0,0.0,0.0,0.0,0.0,0.0,0.0,0.0,0.0,0.0,0.0,0.0,0.0,0.0,0.0,0.0,0.0,0.0,0.0,0.0,0.0,0.0,0.0,0.0,0.0,0.0,0.0,0.0,0.0,0.0,0.0,0.0,0.0,0.0,0.0,0.0,0.0,0.0,0.0,0.0,0.0,0.0,0.0,0.0,0.0,0.0,0.0,0.0,0.0,0.0,0.0,0.0,0.0,0.0,0.0,0.0,0.0,0.0,0.0,0.0,0.0,0.0,0.0,0.0,0.0,0.0,0.0,0.0,0.0,0.0,0.0,0.0,0.0,0.0,0.0,0.0,0.0,0.0,0.0,0.0,0.0,0.0,0.0,0.0,0.0,0.0,0.0,0.0,0.0,0.0,0.0,0.0,0.0,0.0,0.0,0.0,0.0,0.0,0.0,0.0,0.0,0.0,0.0,0.0,0.0,0.0,0.0,0.0,0.0,0.0,0.0,0.0,0.0,0.0,0.0,0.0,0.0,0.0,0.0,0.0,0.0,0.0,0.0,0.0,0.0,0.0,0.0,0.0,0.0,0.0,0.0,0.0,0.0,0.0,0.0,0.0,0.0,0.0,0.0,0.0,0.0,0.0,0.0,0.0,0.0,0.0,0.0,0.0,0.0,0.0,0.0,0.0,0.0,0.0,0.0,0.0,0.0,0.0,0.0,0.0,0.0,0.0,0.0,0.0,0.0,0.0,0.0,0.0,0.0,0.0,0.0,0.0,0.0,0.0,0.0,0.0,0.0,0.0,0.0,0.0,0.0,0.0,0.0,0.0,0.0,0.0,0.0,0.0,0.0,0.0,0.0,0.0,0.0,0.0,0.0,0.0,0.0,0.0,0.0,0.0,0.0,0.0,0.0,0.0,0.0,0.0,0.0,0.0,0.0,0.0,0.0,0.0,0.0,0.0,0.0,0.0,0.0,0.0,0.0,0.0,0.0,0.0,0.0,0.0,0.0,0.0,0.0,0.0,0.0,0.0,0.0,0.0,0.0,0.0,0.0,0.0,0.0,0.0,0.0,0.0,0.0,0.0,0.0,0.0,0.0,0.0,0.0,0.0,0.0,0.0,0.0,0.0,0.0,0.0,0.0,0.0,0.0,0.0,0.0,0.0,0.0,0.0,0.0,0.0,0.0,0.0,0.0,0.0,0.0,0.0,0.0,0.0,0.0,0.0,0.0,0.0,0.0,0.0,0.0,0.0,0.0,0.0,0.0,0.0,0.0,0.0,0.0,0.0,0.0,0.0,0.0,0.0,0.0,0.0,0.0,0.0,0.0,0.0,0.0,0.0,0.0,0.0,0.0,0.0,0.0,0.0,0.0,0.0,0.0,0.0,0.0,0.0,0.0,0.0,0.0,0.0,0.0,0.0,0.0,0.0,0.0,0.0,0.0,0.0,0.0,0.0,0.0,0.0,0.0,0.0,0.0,0.0,0.0,0.0,0.0,0.0,0.0,0.0,0.0,0.0,0.0,0.0,0.0,0.0,0.0,0.0,0.0,0.0,0.0,0.0,0.0,0.0,0.0,0.0,0.0,0.0,0.0,0.0,0.0,0.0,0.0,0.0,0.0,0.0,0.0,0.0,0.0,0.0,0.0,0.0,0.0,0.0,0.0,0.0,0.0,0.0,0.0,0.0,0.0,0.0,0.0,0.0,0.0,0.0,0.0,0.0,0.0,0.0,0.0,0.0,0.0,0.0,0.0,0.0,0.0,0.0,0.0,0.0,0.0,0.0,0.0,0.0,0.0,0.0,0.0,0.0,0.0,0.0,0.0,0.0,0.0,0.0,0.0,0.0,0.0,0.0,0.0,0.0,0.0,0.0,0.0,0.0,0.0,0.0,0.0,0.0,0.0,0.0,0.0,0.0,0.0,0.0,0.0,0.0,0.0,0.0,0.0,0.0,0.0,0.0,0.0,0.0,0.0,0.0,0.0,0.0,0.0,0.0,0.0,0.0,0.0,0.0,0.0,0.0,0.0,0.0,0.0,0.0,0.0,0.0,0.0,0.0,0.0,0.0,0.0,0.0,0.0,0.0,0.0,0.0,0.0,0.0,0.0,0.0,0.0,0.0,0.0,0.0,0.0,0.0,0.0,0.0,0.0,0.0,0.0,0.0,0.0,0.0,0.0,0.0,0.0,0.0,0.0,0.0,0.0,0.0,0.0,0.0,0.0,0.0,0.0,0.0,0.0,0.0,0.0,0.0,0.0,0.0,0.0,0.0,0.0,0.0,0.0,0.0,0.0,0.0,0.0,0.0,0.0,0.0,0.0,0.0,0.0,0.0,0.0,0.0,0.0,0.0,0.0,0.0,0.0,0.0,0.0,0.0,0.0,0.0,0.0,0.0,0.0,0.0,0.0,0.0,0.0,0.0,0.0,0.0,0.0,0.0,0.0,0.0,0.0,0.0,0.0,0.0,0.0,0.0,0.0,0.0,0.0,0.0,0.0,0.0,0.0,0.0,0.0,0.0,0.0,0.0,0.0,0.0,0.0,0.0,0.0,0.0,0.0,0.0,0.0,0.0,0.0,0.0,0.0,0.0,0.0,0.0,0.0,0.0,0.0,0.0,0.0,0.0,0.0,0.0,0.0,0.0,0.0,0.0,0.0,0.0,0.0,0.0,0.0,0.0,0.0,0.0,0.0,0.0,0.0,0.0,0.0,0.0,0.0,0.0,0.0,0.0,0.0,0.0,0.0,0.0,0.0,0.0,0.0,0.0,0.0,0.0,0.0,0.0,0.0,0.0,0.0,0.0,0.0,0.0,0.0,0.0,0.0,0.0,0.0,0.0,0.0,0.0,0.0,0.0,0.0,0.0,0.0,0.0,0.0,0.0,0.0,0.0,0.0,0.0,0.0,0.0,0.0,0.0,0.0,0.0,0.0,0.0,0.0,0.0,0.0,0.0,0.0,0.0,0.0,0.0,0.0,0.0,0.0,0.0,0.0,0.0,0.0,0.0,0.0,0.0,0.0,0.0,0.0,0.0,0.0,0.0,0.0,0.0,0.0,0.0,0.0,0.0,0.0,0.0,0.0,0.0,0.0,0.0,0.0,0.0,0.0,0.0,0.0,0.0,0.0,0.0,0.0,0.0,0.0,0.0,0.0,0.0,0.0,0.0,0.0,0.0,0.0,0.0,0.0,0.0,0.0,0.0,0.0,0.0,0.0,0.0,0.0,0.0,0.0,0.0,0.0,0.0,0.0,0.0,0.0,0.0,0.0,0.0,0.0,0.0,0.0,0.0,0.0,0.0,0.0,0.0,0.0,0.0,0.0,0.0,0.0,0.0,0.0,0.0,0.0,0.0,0.0,0.0,0.0,0.0,0.0,0.0,0.0,0.0,0.0,0.0,0.0,0.0,0.0,0.0,0.0,0.0,0.0,0.0,0.0,0.0,0.0,0.0,0.0,0.0,0.0,0.0,0.0,0.0,0.0,0.0,0.0,0.0,0.0,0.0,0.0,0.0,0.0,0.0,0.0,0.0,0.0,0.0,0.0,0.0,0.0,0.0,0.0,0.0,0.0,0.0,0.0,0.0,0.0,0.0,0.0,0.0,0.0,-1.6173,-1.6657,0.0,0.0,0.0,0.0,0.0,0.0,0.0,0.0,0.0,0.0,0.0,0.0,0.0,0.0,0.0,0.0,0.0,0.0,0.0,0.0,0.0,0.0,0.0,0.0,0.0,0.0,-0.5404,-0.5744,-0.6099,-0.6099,-0.6138,-0.6138,-0.6028,-0.5789,-0.5479,-0.5556,-0.5665,-0.5732,-0.6158,-0.7029,-0.8225,-0.8357,-0.8742,-0.9309,0.0,0.0,0.0,0.0,0.0,0.0,0.0,0.0,0.0,0.0,0.0,0.0,0.0,0.0,0.0,0.0,0.0,0.0,0.0,0.0,0.0,0.0,0.0,0.0,0.0,0.0,0.0,0.0,0.0,0.0,0.0,0.0,0.0,0.0,0.0,0.0,0.0,0.0,0.0,0.0,0.0,0.0,0.0,0.0,0.0,0.0,0.0,0.0,0.0,0.0,0.0,0.0,0.0,0.0,0.0,0.0,0.0,0.0,0.0,0.0,0.0,0.0,0.0,0.0,0.0,0.0,0.0,0.0,0.0,0.0,-1.6484,-1.666,0.0,0.0,0.0,0.0,0.0,0.0,0.0,0.0,0.0,0.0,0.0,0.0,0.0,0.0,0.0,0.0,0.0,0.0,0.0,0.0,0.0,0.0,0.0,-0.4071,-0.4566,-0.5255,-0.529,-0.5485,-0.5977,-0.5763,-0.5595,-0.5634,-0.5634,-0.5518,-0.5318,-0.5323,-0.5589,-0.6068,-0.6825,-0.7931,-0.9269,-0.9633,-1.0129,0.0,0.0,0.0,0.0,0.0,0.0,0.0,0.0,0.0,0.0,0.0,0.0,0.0,0.0,0.0,0.0,0.0,0.0,0.0,0.0,0.0,0.0,0.0,0.0,0.0,0.0,0.0,0.0,0.0,0.0,0.0,0.0,0.0,0.0,0.0,0.0,0.0,0.0,0.0,0.0,0.0,0.0,0.0,0.0,0.0,0.0,0.0,0.0,0.0,0.0,0.0,0.0,0.0,0.0,0.0,0.0,0.0,0.0,0.0,0.0,0.0,0.0,0.0,0.0,0.0,-1.6835,-1.7239,-1.7421,-1.7365,-1.7365,-1.7328,-1.669,-1.6598,-1.6964,-1.7054,0.0,0.0,0.0,0.0,0.0,0.0,0.0,0.0,0.0,0.0,0.0,0.0,0.0,0.0,0.0,0.0,0.0,0.0,0.0,0.0,0.0,-0.3695,-0.4333,-0.5207,-0.5286,-0.5599,-0.6358,-0.5898,-0.5673,-0.5867,-0.5673,-0.5518,-0.5318,-0.5479,-0.5954,-0.6785,-0.8653,-0.9864,-1.0386,-1.0807,-1.1288,-1.1732,-1.0463,0.0,0.0,0.0,0.0,0.0,0.0,0.0,0.0,0.0,0.0,0.0,0.0,0.0,0.0,0.0,0.0,0.0,0.0,0.0,0.0,0.0,0.0,0.0,0.0,0.0,0.0,0.0,0.0,0.0,0.0,0.0,0.0,0.0,0.0,0.0,0.0,0.0,0.0,0.0,0.0,0.0,0.0,0.0,-1.0317,-1.0805,0.0,0.0,0.0,0.0,0.0,0.0,0.0,0.0,0.0,0.0,0.0,0.0,0.0,-1.5565,-1.6094,-1.6884,-1.7436,-1.7737,-1.7295,-1.7111,-1.7129,-1.6918,-1.6806,-1.6806,-1.6697,0.0,-1.7812,-1.7316,0.0,0.0,0.0,0.0,0.0,0.0,0.0,0.0,0.0,0.0,0.0,0.0,0.0,0.0,0.0,0.0,0.0,0.0,0.0,0.0,0.0,-0.4217,-0.4876,-0.5623,-0.5965,-0.6404,-0.6953,-0.6338,-0.5981,-0.6054,-0.5671,-0.5323,-0.5129,-0.5393,-0.6241,-0.7675,-0.93,-1.0328,-1.0753,-1.1046,-1.1412,-1.1667,-1.0824,-1.0478,-1.05,-1.0203,0.0,0.0,0.0,0.0,0.0,0.0,0.0,0.0,0.0,0.0,0.0,0.0,0.0,0.0,0.0,0.0,0.0,0.0,0.0,0.0,0.0,0.0,0.0,0.0,0.0,0.0,0.0,0.0,0.0,0.0,0.0,0.0,0.0,0.0,0.0,0.0,0.0,0.0,0.0,-1.0241,-1.1058,-1.1634,-1.1803,-1.1843,0.0,0.0,0.0,0.0,0.0,0.0,0.0,0.0,0.0,-1.4969,-1.5922,-1.6551,-1.6825,-1.7295,-1.7609,-1.7748,-1.7466,-1.7212,-1.7026,-1.7141,-1.7026,-1.6865,-1.7083,-1.7486,-1.7964,-1.7338,-1.7557,-1.8223,0.0,0.0,0.0,0.0,-1.8477,-1.8534,0.0,0.0,0.0,0.0,0.0,0.0,0.0,0.0,0.0,0.0,0.0,0.0,-0.4174,-0.4898,-0.5626,-0.6291,-0.6634,-0.7047,-0.7583,-0.6859,-0.6431,-0.6384,-0.585,-0.5448,-0.5218,-0.5915,-0.7098,-0.8735,-0.9836,-1.053,-1.0885,-1.0984,-1.1132,-1.1234,-1.0934,-1.0748,-1.0738,-1.0299,-1.0144,0.0,0.0,0.0,0.0,0.0,0.0,0.0,0.0,0.0,0.0,0.0,0.0,0.0,0.0,0.0,0.0,0.0,0.0,0.0,0.0,0.0,0.0,0.0,0.0,0.0,0.0,0.0,0.0,0.0,0.0,0.0,0.0,0.0,0.0,0.0,0.0,0.0,0.0,-1.0744,-1.1557,-1.2395,-1.2513,-1.261,0.0,0.0,0.0,0.0,0.0,0.0,-1.4436,-1.4851,-1.5315,-1.5786,-1.6714,-1.7241,-1.7297,-1.7485,-1.7622,-1.7708,-1.758,-1.7344,-1.7138,-1.7373,-1.7361,-1.7138,-1.7361,-1.7667,-1.7806,-1.7382,-1.7634,-1.8279,-1.8318,-1.8469,-1.882,-1.9078,-1.9241,-1.9388,0.0,0.0,0.0,0.0,0.0,0.0,0.0,0.0,0.0,0.0,0.0,-0.4349,-0.4568,-0.5461,-0.641,-0.726,-0.7021,-0.7222,-0.8183,-0.7522,-0.6989,-0.6871,-0.6418,-0.6058,-0.5857,-0.7541,-0.8906,-0.9908,-1.0491,-1.0788,-1.0788,-1.0756,-1.0647,-1.048,-1.0615,-1.0988,-1.1422,-1.0959,-1.0815,-1.0829,0.0,0.0,0.0,0.0,0.0,0.0,0.0,0.0,0.0,0.0,0.0,0.0,0.0,0.0,0.0,0.0,0.0,0.0,0.0,0.0,0.0,0.0,0.0,0.0,0.0,0.0,0.0,0.0,0.0,0.0,0.0,0.0,0.0,0.0,0.0,0.0,0.0,0.0,0.0,-1.2542,-1.2864,0.0,0.0,0.0,0.0,-1.3697,-1.3965,-1.4712,-1.6039,-1.613,-1.6266,-1.6626,-1.6936,-1.724,-1.7571,-1.7542,-1.7689,-1.7948,-1.7642,-1.7467,-1.7479,-1.7479,-1.7479,-1.7479,-1.7479,-1.7479,-1.7525,-1.751,-1.7685,-1.8014,-1.8,-1.8174,-1.845,-1.8699,-1.903,-1.9318,0.0,0.0,0.0,0.0,0.0,0.0,0.0,0.0,-0.36,-0.3691,-0.4225,-0.4774,-0.5213,-0.6269,-0.7152,-0.775,-0.7905,-0.8225,-0.8896,-0.78,-0.7162,-0.7267,-0.6478,-0.632,-0.6977,-0.8514,-0.9592,-1.0112,-1.0766,-1.1051,-1.1051,-1.1027,-1.1042,-1.1097,-1.0893,-1.0838,-1.0946,-1.069,-1.0574,-1.0542,-1.032,-0.9918,0.0,0.0,0.0,0.0,0.0,0.0,0.0,0.0,0.0,0.0,0.0,0.0,0.0,0.0,0.0,0.0,0.0,0.0,0.0,0.0,0.0,0.0,0.0,0.0,0.0,0.0,0.0,0.0,0.0,0.0,0.0,0.0,0.0,0.0,0.0,0.0,0.0,-1.2892,-1.3183,0.0,-1.3646,-1.3667,-1.3965,-1.47,-1.4688,-1.5165,-1.64,-1.6321,-1.6517,-1.7201,-1.753,-1.7765,-1.7882,-1.7852,-1.7988,-1.8233,-1.7923,-1.7613,-1.7446,-1.7673,-1.7529,-1.7197,-1.7432,-1.7479,-1.7479,-1.7499,-1.7695,-1.8043,-1.8161,-1.8466,-1.8739,-1.9025,-1.9182,-1.9296,0.0,0.0,0.0,0.0,0.0,0.0,0.0,0.0,-0.3578,-0.3707,-0.4687,-0.5487,-0.5872,-0.7181,-0.813,-0.8408,-0.8661,-0.8999,-0.9384,-0.8225,-0.7564,-0.7647,-0.6888,-0.6985,-0.8049,-0.9267,-1.0065,-1.0548,-1.0879,-1.1051,-1.1051,-1.1117,-1.1129,-1.1116,-1.0934,-1.0736,-1.0536,-1.0338,-1.0218,-1.0256,-0.9981,-0.9667,-0.9388,0.0,0.0,0.0,0.0,0.0,0.0,0.0,0.0,0.0,0.0,0.0,0.0,0.0,0.0,0.0,0.0,0.0,0.0,0.0,0.0,0.0,0.0,0.0,0.0,0.0,0.0,0.0,0.0,0.0,0.0,0.0,0.0,0.0,0.0,0.0,-1.2596,-1.3287,-1.353,-1.3848,-1.4277,-1.4385,-1.4645,-1.5205,-1.5123,-1.5426,-1.6459,-1.6401,-1.6646,-1.7434,-1.7716,-1.7843,-1.7843,-1.7941,-1.8077,-1.8249,-1.8094,-1.7901,-1.7719,-1.7853,-1.7661,-1.7316,-1.7468,-1.7479,-1.7479,-1.7479,-1.7608,-1.7843,-1.8018,-1.8235,-1.8506,-1.8667,-1.8717,-1.8709,0.0,0.0,0.0,0.0,0.0,0.0,0.0,-0.3457,-0.3465,-0.3601,-0.5231,-0.6434,-0.6496,-0.8187,-0.9316,-0.9331,-0.9305,-0.9384,-0.955,-0.8803,-0.8233,-0.7978,-0.7759,-0.8056,-0.8993,-0.9789,-1.0566,-1.1198,-1.0953,-1.0806,-1.0806,-1.1007,-1.0804,-1.0357,-1.0793,-1.0724,-1.0196,-1.0016,-0.9945,-1.0027,-0.9969,-0.9909,-0.9762,0.0,0.0,0.0,0.0,0.0,0.0,0.0,0.0,0.0,0.0,0.0,0.0,0.0,0.0,0.0,0.0,0.0,0.0,0.0,0.0,0.0,0.0,0.0,0.0,0.0,0.0,0.0,0.0,0.0,0.0,0.0,0.0,0.0,-1.2109,-1.2234,-1.2687,-1.3709,-1.3974,-1.4203,-1.4502,-1.4762,-1.4999,-1.5188,-1.521,-1.559,-1.6348,-1.6507,-1.6782,-1.7396,-1.7446,-1.7491,-1.7491,-1.7744,-1.7889,-1.7901,-1.8167,-1.83,-1.83,-1.801,-1.7889,-1.7877,-1.7612,-1.7491,-1.7491,-1.7491,-1.7479,-1.7479,-1.7479,-1.7554,-1.7608,-1.7608,-1.7616,-1.7721,0.0,0.0,0.0,0.0,0.0,0.0,0.0,-0.353,-0.3691,-0.3743,-0.5452,-0.6756,-0.6963,-0.8377,-0.9374,-0.9515,-0.9393,-0.9148,-0.8743,-0.801,-0.7432,-0.7004,-0.7827,-0.8647,-0.9338,-1.0321,-1.0947,-1.1198,-1.125,-1.1151,-1.0806,-1.1058,-1.0987,-1.0699,-1.1148,-1.1189,-1.0842,-1.0716,-1.0484,-1.0205,-0.983,-0.9421,-0.9004,0.0,0.0,0.0,0.0,0.0,0.0,0.0,0.0,0.0,0.0,0.0,0.0,0.0,0.0,0.0,0.0,0.0,0.0,0.0,0.0,0.0,0.0,0.0,0.0,0.0,0.0,0.0,0.0,0.0,0.0,0.0,-1.2213,-1.273,-1.273,-1.3122,-1.3615,-1.4234,-1.435,-1.4564,-1.4963,-1.5049,-1.5246,-1.5483,-1.5904,-1.6298,-1.6722,-1.7026,-1.7206,-1.7396,-1.7446,-1.7457,-1.741,-1.7721,-1.807,-1.8456,-1.8348,-1.8396,-1.8565,-1.83,-1.8179,-1.8167,-1.7889,-1.7768,-1.7744,-1.7563,-1.7479,-1.7479,-1.7479,-1.7489,-1.7545,-1.7545,-1.7683,-1.798,0.0,0.0,0.0,0.0,0.0,0.0,0.0,-0.3552,-0.3858,-0.4232,-0.5794,-0.7092,-0.7639,-0.8845,-0.9646,-0.9777,-0.9646,-0.9304,-0.859,-0.7858,0.0,0.0,0.0,-0.9154,-0.9909,-1.0614,-1.1073,-1.1198,-1.1321,-1.1173,-1.0806,-1.1051,-1.1049,-1.0794,-1.1061,-1.1111,-1.0979,-1.0647,-1.0442,-1.0281,-0.9797,-0.9371,-0.9065,-0.9029,-0.8753,-0.8459,-0.8305,-0.807,-0.7709,-0.7331,0.0,0.0,0.0,0.0,0.0,0.0,0.0,0.0,0.0,0.0,0.0,0.0,0.0,0.0,0.0,0.0,0.0,0.0,0.0,0.0,0.0,0.0,0.0,0.0,-1.2769,-1.3174,-1.3444,-1.3763,-1.4116,-1.4437,-1.4622,-1.4826,-1.5156,-1.5285,-1.5494,-1.5731,-1.6244,-1.6591,-1.6792,-1.7131,-1.7257,-1.7135,-1.748,-1.7482,-1.7244,-1.7925,-1.8324,-1.8517,-1.8481,-1.8589,-1.8831,-1.8336,-1.8179,-1.8275,-1.7877,-1.7768,-1.7865,-1.7708,-1.7648,0.0,0.0,0.0,0.0,0.0,-1.7456,-1.7902,0.0,0.0,0.0,0.0,0.0,0.0,0.0,-0.3548,-0.3918,-0.4795,-0.6126,-0.7352,-0.8211,-0.9336,-0.9941,-0.987,-0.9826,-0.945,-0.859,0.0,0.0,-0.892,-0.91,-0.9562,-1.0457,-1.0675,-1.0923,-1.1198,-1.1217,-1.107,-1.0806,-1.1051,-1.1055,-1.0727,-1.0753,-1.085,-1.0949,-1.0331,-1.0162,-1.0298,-0.9871,-0.9698,-0.9608,-0.9469,-0.9388,-0.9331,-0.8942,-0.8759,-0.8628,-0.7849,0.0,0.0,0.0,0.0,0.0,0.0,0.0,0.0,0.0,0.0,0.0,0.0,0.0,0.0,0.0,0.0,0.0,0.0,0.0,0.0,0.0,0.0,0.0,0.0,-1.3109,-1.353,-1.4137,-1.4299,-1.4407,-1.4546,-1.4783,-1.502,-1.521,-1.5472,-1.5698,-1.5996,-1.6343,-1.6613,-1.6729,0.0,0.0,0.0,0.0,-1.7549,-1.7161,-1.8177,-1.8553,-1.8384,-1.8589,-1.8819,-1.9048,-1.8275,-1.8094,-1.8348,-1.7805,-1.772,-1.7962,-1.7937,-1.7901,-1.7853,-1.7587,-1.7358,-1.7153,-1.6944,-1.722,-1.7703,0.0,0.0,0.0,0.0,0.0,0.0,0.0,-0.3557,-0.3848,-0.4358,-0.5938,-0.7185,-0.7627,-0.9085,-0.9712,-0.899,-0.8802,-0.8394,0.0,0.0,-0.765,-0.853,-0.9299,-0.9841,-1.0162,-1.0762,-1.107,-1.1198,-1.1368,-1.1219,-1.0806,-1.1051,-1.107,-1.082,-1.1194,-1.1336,-1.1383,-1.1196,-1.0895,-1.061,-1.0516,-1.0112,-0.9608,-0.9469,-0.9314,-0.912,-0.8901,-0.8588,-0.8291,-0.812,-0.7804,-0.7503,-0.7591,0.0,0.0,0.0,0.0,0.0,0.0,0.0,0.0,0.0,0.0,0.0,0.0,0.0,0.0,0.0,0.0,0.0,0.0,0.0,0.0,-1.3299,-1.404,-1.4505,-1.4256,-1.4746,-1.5053,-1.4872,-1.5031,-1.521,-1.5505,-1.5569,-1.5698,-1.5996,-1.6436,-1.6775,-1.6801,-1.7258,-1.7446,-1.7179,-1.7402,-1.7631,-1.7937,-1.8273,-1.8553,-1.8927,0.0,0.0,-1.906,-1.8481,-1.8469,-1.8891,-1.836,-1.8287,-1.8517,-1.83,-1.8082,-1.7853,-1.7587,-1.7575,-1.7755,-1.8015,-1.801,-1.806,0.0,0.0,0.0,0.0,0.0,0.0,0.0,-0.3746,-0.3998,-0.4665,-0.5724,-0.6643,-0.7278,-0.8078,-0.8404,-0.7987,-0.7352,-0.725,0.0,-0.7309,-0.7656,-0.93,-0.9503,-0.988,-1.0448,-1.0654,-1.0906,-1.1198,-1.1302,-1.1104,-1.0609,-1.1002,-1.1002,-1.0609,-1.1015,-1.121,-1.1359,-1.1162,-1.0952,-1.0762,-1.0762,-1.0451,-0.9961,-0.9771,-0.9669,-0.954,-0.9116,-0.8754,-0.8451,-0.8276,-0.7981,-0.7724,-0.7856,-0.8174,-0.8354,0.0,0.0,0.0,0.0,0.0,0.0,0.0,0.0,0.0,0.0,0.0,0.0,0.0,0.0,-1.2515,-1.2515,0.0,-1.3184,-1.3519,-1.3965,-1.4213,-1.4342,-1.4885,-1.5202,-1.4958,-1.5106,-1.5285,-1.558,-1.5601,-1.5698,-1.5996,-1.6431,-1.6675,-1.6786,-1.7343,-1.7554,-1.7314,-1.7599,-1.7843,-1.7972,-1.8356,-1.8613,-1.8879,-1.8746,-1.8819,-1.9048,-1.8384,-1.8372,-1.8855,-1.8312,-1.8312,-1.8662,-1.8396,-1.8287,-1.8288,-1.7874,-1.774,-1.7719,-1.8068,-1.8135,-1.8089,0.0,0.0,0.0,0.0,0.0,0.0,0.0,-0.3858,-0.4036,-0.4864,-0.5395,-0.5995,-0.6859,-0.7121,-0.7121,-0.6969,-0.6022,0.0,0.0,-0.7399,-0.788,-0.9936,-0.9763,-0.9897,-1.065,-1.0511,-1.0659,-1.1051,-1.1149,-1.0953,-1.0511,-1.0953,-1.0953,-1.056,-1.0806,-1.1021,-1.1255,-1.1058,-1.0959,-1.0959,-1.1058,-1.0892,-1.0609,-1.0413,-1.0224,-0.9957,-0.9473,-0.9096,-0.8792,-0.8512,-0.8201,-0.7988,-0.8076,-0.8302,-0.844,-0.7975,-0.8281,0.0,0.0,0.0,0.0,0.0,0.0,0.0,0.0,0.0,-1.2725,-1.2274,-1.2506,-1.2812,-1.3019,-1.2864,-1.2956,-1.3784,-1.3795,-1.389,-1.4491,-1.4977,-1.5228,-1.4977,-1.5171,-1.5338,-1.558,-1.5601,-1.5698,-1.5996,-1.626,-1.6459,-1.6658,-1.7258,-1.7491,-1.7314,-1.7792,-1.8089,-1.8061,-1.8414,-1.8647,-1.8758,-1.8758,-1.8867,-1.9048,-1.83,-1.8215,-1.8662,-1.8215,-1.8275,-1.8599,-1.8396,-1.8384,-1.8518,-1.8126,-1.7843,-1.7667,-1.8018,-1.8089,-1.8089,0.0,0.0,0.0,0.0,0.0,0.0,0.0,0.0,-0.3713,-0.4171,-0.4813,-0.5448,-0.5996,-0.6729,-0.688,-0.6102,0.0,0.0,-0.6902,-0.7382,-0.8176,-0.9444,-1.0023,-1.0222,-1.0068,-1.0511,-1.0659,-1.0511,-1.0953,-1.1051,-1.0757,-1.1051,-1.1149,-1.11,-1.1149,-1.1253,-1.1482,-1.1683,-1.1632,-1.1482,-1.1933,-1.1865,-1.1443,-1.1443,-1.0761,-0.9868,-1.0027,-0.955,-0.8937,-0.9087,-0.8727,-0.8245,-0.8648,-0.87,-0.8512,-0.8162,0.0,-0.9314,-0.8482,-0.9043,-0.9789,-0.9689,-1.0421,-1.1168,0.0,0.0,-1.2022,-1.1901,-1.2623,-1.3299,-1.3362,-1.3678,-1.4105,-1.4362,-1.4669,-1.4812,-1.4861,-1.5303,-1.5525,-1.5214,-1.5418,-1.5569,-1.5601,-1.5601,-1.5698,-1.5996,-1.6007,-1.6078,-1.6111,-1.6845,-1.7303,-1.7314,-1.7542,-1.8076,-1.8924,-1.8518,-1.8542,-1.9036,-1.9036,-1.9048,-1.906,-1.8505,-1.8408,-1.8686,-1.8625,-1.85,-1.8274,-1.8273,-1.8167,-1.7998,-1.7978,-1.7972,-1.8018,-1.859,-1.8486,-1.8148,0.0,0.0,0.0,0.0,0.0,0.0,0.0,0.0,0.0,-0.3912,-0.4311,-0.4677,-0.4999,-0.5445,-0.553,0.0,0.0,0.0,-0.6881,-0.7068,-0.7849,-0.9549,-0.9774,-0.9958,-1.0216,-1.0462,-1.0659,-1.0855,-1.11,-1.1051,-1.0806,-1.1051,-1.11,-1.0953,-1.1231,-1.1435,-1.1529,-1.1897,-1.1928,-1.1771,-1.2174,-1.2133,-1.1834,-1.2029,-1.1507,-1.063,-1.0285,-0.972,0.0,0.0,-0.8766,-0.8508,-0.8823,-0.8966,-0.8997,-0.8548,-0.8818,0.0,-0.8279,-0.8839,-0.9661,0.0,-1.0529,-1.1435,-1.1693,-1.2145,-1.2469,-1.2245,-1.281,-1.3281,-1.312,-1.3304,-1.3623,0.0,-1.4274,-1.45,-1.4576,-1.5214,-1.5509,-1.5157,-1.5241,-1.5413,-1.5601,-1.5413,-1.5455,-1.5741,-1.5741,-1.5986,-1.648,-1.701,-1.7536,-1.8081,-1.8187,-1.8427,-1.8828,-1.8629,-1.8629,-1.8828,-1.902,-1.9072,-1.906,-1.8686,-1.8505,-1.8469,-1.8782,-1.8671,-1.8259,-1.8274,-1.8252,-1.8212,-1.8248,-1.8252,-1.8311,-1.8765,-1.8765,-1.8603,0.0,0.0,0.0,0.0,0.0,0.0,0.0,0.0,0.0,0.0,-0.3921,-0.4116,-0.4384,-0.4579,-0.4662,0.0,0.0,0.0,0.0,-0.7059,-0.7834,-0.944,-0.9613,0.0,-1.0265,-1.0364,-1.0609,-1.1002,-1.1149,-1.1051,-1.0806,-1.1051,-1.11,-1.0904,-1.1359,-1.1592,-1.1766,-1.2116,-1.225,-1.2213,-1.2415,-1.2393,-1.2224,-1.2419,-1.2066,-1.1365,-1.0507,-0.978,0.0,0.0,-0.8501,-0.8412,-0.8726,-0.8935,-0.9053,-0.8652,-0.8572,-0.8568,-0.8262,0.0,0.0,-0.9805,-1.0733,-1.1703,-1.2067,-1.2546,-1.277,-1.2558,-1.2949,-1.3186,-1.2847,-1.3026,-1.3324,-1.372,-1.3854,-1.4106,-1.4515,-1.4861,-1.498,-1.4867,-1.4638,-1.4687,-1.5283,-1.5175,-1.5235,-1.5601,-1.5601,-1.5937,-1.6782,-1.7032,-1.7541,-1.8423,-1.8494,-1.8498,-1.8431,-1.8574,-1.8637,-1.8571,-1.8944,-1.9072,-1.906,-1.8807,-1.8479,-1.8189,-1.856,-1.8476,-1.8057,-1.8179,-1.8203,-1.8304,-1.8445,-1.8532,-1.859,-1.8881,-1.8997,-1.8939,0.0,0.0,0.0,0.0,0.0,0.0,0.0,0.0,0.0,0.0,0.0,0.0,0.0,0.0,0.0,0.0,0.0,0.0,0.0,-0.7592,-0.8383,-0.8707,-0.9768,-1.0256,-1.0019,-1.0265,-1.0413,-1.0413,-1.0953,-1.1051,-1.0806,-1.1051,-1.1198,-1.1198,-1.1443,-1.1834,-1.2277,-1.2483,-1.274,-1.2946,-1.2997,-1.2878,-1.2759,-1.2759,-1.2408,-1.1774,-1.0799,0.0,0.0,0.0,-0.799,-0.7836,-0.8405,-0.8544,0.0,-0.8182,-0.8049,-0.8146,0.0,0.0,-0.9969,-1.023,-1.1039,-1.1869,-1.2077,-1.2346,-1.2515,-1.2515,-1.2949,-1.3136,-1.2587,-1.3153,-1.3775,-1.3984,-1.377,-1.3974,-1.4942,-1.4207,-1.376,-1.4183,-1.3504,-1.3389,0.0,-1.4937,-1.5235,-1.5601,-1.5601,-1.5888,-1.6491,-1.6725,-1.7094,-1.7731,-1.7908,-1.8033,-1.8033,-1.8431,-1.8635,-1.8571,-1.8944,-1.9072,-1.906,-1.8807,-1.8354,-1.7845,-1.7796,-1.7655,-1.748,-1.7769,-1.797,-1.8102,-1.8661,-1.8881,-1.8939,-1.9243,-1.9185,-1.8939,0.0,0.0,0.0,0.0,0.0,0.0,0.0,0.0,0.0,0.0,0.0,0.0,0.0,0.0,0.0,0.0,0.0,0.0,0.0,-0.7075,-0.7695,-0.8466,-0.8789,-0.9146,-0.9591,-0.9796,-1.0109,-1.0659,-1.1002,-1.1149,-1.1051,-1.1149,-1.1296,-1.1492,-1.1687,-1.1993,-1.2293,-1.2536,-1.2669,-1.2789,-1.2789,-1.2646,-1.2401,-1.2193,-1.1745,-1.1057,0.0,0.0,0.0,0.0,0.0,0.0,-0.8458,-0.8652,0.0,-0.8195,-0.7997,-0.8095,-0.8642,0.0,-1.0298,-1.0854,-1.1501,-1.2034,-1.2241,-1.2396,-1.2465,-1.2491,-1.283,-1.2969,-1.2633,-1.2941,-1.3293,-1.3555,-1.3563,-1.3715,-1.4232,-1.4268,-1.4301,-1.4461,-1.4222,0.0,0.0,0.0,0.0,-1.5235,-1.5294,-1.5583,-1.6335,-1.6629,-1.7173,-1.7896,-1.8192,-1.8173,-1.7658,-1.8495,-1.8688,-1.8238,-1.8816,-1.9072,-1.9072,-1.8988,-1.8731,-1.8354,-1.8167,-1.8013,-1.7972,-1.7899,-1.8106,-1.8576,-1.8754,-1.8992,-1.9243,-1.9372,-1.9301,-1.9243,0.0,0.0,0.0,0.0,0.0,0.0,0.0,0.0,0.0,0.0,0.0,0.0,0.0,0.0,0.0,0.0,0.0,0.0,0.0,0.0,-0.7206,-0.7912,-0.8077,-0.8394,-0.8926,-0.9172,-0.9663,-1.0346,-1.0587,-1.0865,-1.1085,-1.1085,-1.1269,-1.159,-1.1934,-1.2094,-1.2174,-1.2393,-1.2413,-1.2344,-1.2322,-1.2149,-1.1878,-1.1706,-1.1244,0.0,0.0,0.0,0.0,0.0,0.0,0.0,-0.8394,-0.8868,-0.9178,-0.8696,-0.8627,-0.8812,-0.917,-0.9874,-1.0724,-1.1406,-1.1817,-1.2114,-1.2354,-1.2491,-1.2577,-1.2552,-1.2763,-1.2848,-1.2368,-1.2663,-1.3022,-1.3184,-1.3301,-1.3571,-1.3959,-1.3926,-1.3937,-1.4093,-1.4034,-1.4262,0.0,0.0,0.0,-1.5235,-1.5259,-1.559,-1.6455,-1.6688,-1.7119,-1.7765,-1.8173,-1.8109,-1.7529,-1.8442,-1.8688,-1.8238,-1.8688,-1.8956,-1.9072,-1.9072,-1.8927,-1.8686,-1.8234,-1.8155,-1.8287,-1.7812,-1.8095,-1.8822,-1.8839,-1.905,-1.943,-1.943,-1.943,-1.943,0.0,0.0,0.0,0.0,0.0,0.0,0.0,0.0,0.0,0.0,0.0,0.0,0.0,0.0,0.0,0.0,0.0,0.0,0.0,0.0,0.0,-0.7028,-0.7681,-0.8038,-0.8038,-0.852,-0.8995,-0.9461,-0.9749,-1.0229,-1.0915,-1.0896,-1.1144,-1.159,-1.2127,-1.219,-1.1893,-1.2067,-1.201,-1.177,-1.1608,-1.1423,-1.1261,-1.1209,0.0,0.0,0.0,0.0,0.0,0.0,0.0,0.0,0.0,-0.9171,-0.9953,-0.9706,-0.9805,-1.0094,-1.0297,-1.069,-1.1193,-1.1937,-1.2079,-1.2055,-1.2318,-1.2599,-1.2754,-1.2563,-1.2705,-1.2638,0.0,0.0,-1.2899,-1.281,-1.3007,-1.3453,-1.4225,-1.3365,-1.2825,0.0,0.0,0.0,0.0,0.0,0.0,-1.5553,0.0,-1.5881,-1.6724,-1.6716,-1.6966,-1.7464,-1.7852,-1.784,-1.7464,-1.8185,-1.8571,-1.8571,-1.8571,-1.8764,-1.9072,-1.9072,-1.8927,-1.8686,-1.7994,-1.7968,-1.8275,-1.7707,-1.8009,-1.8809,-1.8894,-1.914,-1.943,-1.943,-1.943,-1.943,0.0,0.0,0.0,0.0,0.0,0.0,0.0,0.0,0.0,0.0,0.0,0.0,0.0,0.0,0.0,0.0,0.0,0.0,0.0,0.0,0.0,0.0,0.0,0.0,0.0,0.0,0.0,0.0,0.0,-1.0198,-1.0821,-1.0866,-1.1048,0.0,-1.1639,-1.1766,-1.1678,-1.1601,-1.1586,-1.1494,0.0,-1.0792,-1.0559,0.0,0.0,0.0,0.0,0.0,0.0,0.0,0.0,0.0,0.0,-0.9969,-0.9969,-0.9912,-1.0109,-1.0384,-1.0715,-1.1207,-1.1699,-1.2222,-1.229,-1.2236,-1.1926,-1.19,-1.1792,-1.1289,-1.1297,-1.1265,0.0,0.0,0.0,-1.2471,-1.276,0.0,-1.4261,-1.4097,0.0,-1.454,0.0,-1.4687,-1.5175,-1.4997,0.0,0.0,-1.5621,-1.5636,-1.6043,-1.6465,-1.6828,-1.713,-1.7711,-1.784,-1.7464,-1.7916,-1.8173,-1.8173,-1.8442,-1.8635,-1.8764,-1.902,-1.8927,-1.8686,-1.8234,-1.8155,-1.8287,-1.8142,-1.8349,-1.8822,-1.9055,-1.9266,-1.943,-1.943,-1.943,-1.943,0.0,0.0,0.0,0.0,0.0,0.0,0.0,0.0,0.0,0.0,0.0,0.0,0.0,0.0,0.0,0.0,0.0,0.0,0.0,0.0,0.0,0.0,0.0,0.0,0.0,0.0,0.0,0.0,0.0,0.0,0.0,-1.0519,-1.0726,-1.1066,-1.1347,-1.1249,-1.0913,0.0,0.0,0.0,0.0,0.0,0.0,0.0,0.0,0.0,0.0,0.0,0.0,0.0,0.0,-0.9369,-1.0699,-1.1149,-1.1149,-1.0806,0.0,-1.1206,-1.1162,-1.1576,-1.2039,-1.2307,-1.2491,-1.2497,-1.2137,-1.1951,-1.1692,-1.1111,-1.0837,0.0,-1.0287,0.0,0.0,0.0,0.0,0.0,-1.4282,-1.4266,-1.4344,0.0,-1.4997,0.0,-1.5353,-1.5235,-1.5329,0.0,-1.5748,-1.5783,-1.6202,-1.6625,-1.6872,-1.7001,-1.7518,-1.7723,-1.7464,-1.7852,-1.7905,-1.7787,-1.798,-1.8314,-1.8635,-1.8764,-1.8872,-1.8855,0.0,-1.8396,-1.8456,-1.8324,-1.8483,-1.8822,-1.9063,-1.9213,-1.943,-1.943,-1.943,-1.943,0.0,0.0,0.0,0.0,0.0,0.0,0.0,0.0,0.0,0.0,0.0,0.0,0.0,0.0,0.0,0.0,0.0,0.0,0.0,0.0,0.0,0.0,0.0,0.0,0.0,0.0,0.0,0.0,0.0,0.0,0.0,0.0,0.0,0.0,0.0,0.0,0.0,0.0,0.0,0.0,0.0,0.0,0.0,0.0,0.0,0.0,0.0,0.0,0.0,0.0,-0.9501,-0.9953,-1.1531,-1.237,-1.2624,-1.2011,-1.2014,-1.2173,-1.169,-1.1835,-1.2137,-1.2335,-1.259,-1.2729,-1.2462,-1.2158,-1.1785,-1.1216,0.0,-1.0209,-0.963,-1.0782,-1.1745,-1.1666,0.0,-1.3652,-1.4246,-1.4116,-1.4212,-1.4658,-1.4997,-1.5175,-1.5175,-1.5116,-1.534,-1.5978,-1.5875,-1.6034,-1.6646,-1.6883,-1.7001,-1.7066,-1.74,-1.7529,-1.7464,-1.7852,-1.7776,-1.74,-1.7529,-1.7916,-1.8507,-1.8635,-1.8804,-1.9024,-1.8752,-1.8637,-1.8565,-1.8422,-1.8519,-1.8758,-1.8927,-1.9127,-1.943,-1.943,-1.943,-1.943,0.0,0.0,0.0,0.0,0.0,0.0,0.0,0.0,0.0,0.0,-0.3921,0.0,0.0,0.0,0.0,0.0,0.0,0.0,0.0,0.0,0.0,0.0,0.0,0.0,0.0,0.0,0.0,0.0,0.0,0.0,0.0,0.0,0.0,0.0,0.0,0.0,0.0,0.0,0.0,0.0,0.0,0.0,0.0,0.0,0.0,0.0,0.0,0.0,0.0,0.0,-0.9638,-1.0199,-1.1824,-1.237,-1.251,-1.2787,-1.2434,-1.201,-1.2297,-1.2274,-1.2137,-1.2335,-1.2313,-1.2187,-1.1969,-1.1318,0.0,0.0,-0.9504,-0.9103,-0.879,-0.9509,-1.0304,-1.0667,0.0,0.0,0.0,0.0,-1.4364,0.0,0.0,0.0,-1.5542,-1.5235,0.0,0.0,-1.597,-1.6034,-1.6646,-1.6883,-1.713,-1.74,-1.7723,-1.7787,-1.7464,-1.7852,-1.7711,-1.7066,-1.7647,-1.7969,-1.8109,-1.8752,-1.89,-1.877,-1.8924,0.0,-1.8082,-1.874,-1.8829,-1.855,-1.9095,-1.9359,-1.943,-1.943,-1.943,-1.943,0.0,0.0,0.0,0.0,0.0,0.0,0.0,0.0,0.0,0.0,-0.3921,-0.3956,0.0,0.0,0.0,0.0,0.0,0.0,0.0,0.0,0.0,0.0,0.0,0.0,0.0,0.0,0.0,0.0,0.0,0.0,0.0,0.0,0.0,0.0,0.0,0.0,0.0,0.0,0.0,0.0,0.0,0.0,0.0,0.0,0.0,0.0,0.0,0.0,0.0,0.0,-0.9582,-1.0195,-1.1796,-1.2074,-1.1913,-1.2304,-1.212,-1.1775,-1.1875,-1.2112,-1.2323,-1.258,-1.2607,-1.2529,-1.2211,0.0,0.0,0.0,-0.918,-0.8629,-0.8455,0.0,0.0,0.0,0.0,0.0,0.0,0.0,0.0,0.0,0.0,0.0,0.0,-1.5056,-1.5254,-1.6218,-1.6002,-1.6087,-1.6818,-1.6947,-1.7066,-1.7206,-1.7594,-1.7594,-1.7271,-1.7776,-1.7647,-1.7001,-1.7647,-1.7969,-1.8033,-1.8559,-1.8812,-1.8686,-1.8819,-1.8617,-1.8189,-1.8734,-1.8843,-1.8706,-1.9185,-1.943,-1.943,-1.943,-1.943,-1.943,0.0,0.0,0.0,0.0,0.0,0.0,0.0,-0.4073,-0.3882,-0.4077,-0.3921,-0.3917,-0.4307,-0.4467,-0.4594,0.0,0.0,0.0,0.0,0.0,0.0,0.0,0.0,0.0,0.0,0.0,0.0,0.0,0.0,0.0,0.0,0.0,0.0,0.0,0.0,0.0,0.0,0.0,0.0,0.0,0.0,0.0,0.0,0.0,0.0,0.0,0.0,0.0,0.0,0.0,-0.9547,-1.0092,-1.1415,-1.1518,-1.1259,-1.1655,-1.169,-1.1504,-1.1487,-1.1855,-1.2443,-1.2817,-1.2836,-1.2753,-1.2476,-1.1521,0.0,0.0,-0.9253,-0.8661,-0.8535,0.0,0.0,0.0,0.0,0.0,0.0,0.0,0.0,0.0,0.0,0.0,0.0,0.0,0.0,-1.6094,-1.6086,-1.6361,-1.699,-1.7001,-1.7001,-1.7001,-1.7335,-1.7335,-1.7001,-1.7647,-1.7647,-1.7001,-1.7776,-1.8098,-1.8033,-1.8495,-1.8685,-1.8686,-1.8686,-1.8569,-1.8429,-1.8715,-1.8788,-1.8823,-1.9243,-1.9372,-1.9301,-1.9372,-1.943,-1.943,0.0,0.0,0.0,0.0,0.0,0.0,0.0,-0.4073,-0.3882,-0.4077,-0.3921,-0.3882,-0.4116,-0.4155,-0.427,0.0,0.0,0.0,0.0,0.0,0.0,0.0,0.0,0.0,0.0,0.0,0.0,0.0,0.0,0.0,0.0,0.0,0.0,0.0,0.0,0.0,0.0,0.0,0.0,0.0,0.0,0.0,0.0,0.0,0.0,0.0,0.0,0.0,0.0,0.0,0.0,-1.0073,-1.0489,-1.0759,-1.0975,-1.1639,0.0,0.0,-1.1819,-1.2025,-1.2263,-1.2778,-1.2568,-1.2262,-1.2183,0.0,0.0,-0.981,-0.9524,-0.9297,-0.9162,-0.9323,0.0,0.0,0.0,0.0,0.0,0.0,0.0,0.0,0.0,0.0,0.0,0.0,0.0,-1.5773,-1.6509,-1.6894,-1.7001,-1.7001,-1.7001,-1.7001,-1.7335,-1.7335,-1.7001,-1.7647,-1.7647,-1.7001,-1.8045,-1.8366,-1.8033,-1.8752,-1.8927,-1.8686,-1.8686,-1.8569,0.0,-1.8715,-1.8669,-1.8532,-1.9127,-1.9185,-1.8997,-1.9301,-1.943,-1.943,0.0,0.0,0.0,0.0,0.0,0.0,0.0,-0.3999,-0.3882,-0.4077,-0.3921,-0.3882,-0.4077,-0.4135,-0.4223,0.0,0.0,0.0,0.0,0.0,0.0,0.0,0.0,0.0,0.0,0.0,0.0,-0.6567,0.0,0.0,0.0,0.0,0.0,0.0,0.0,0.0,0.0,0.0,0.0,0.0,0.0,0.0,0.0,0.0,0.0,0.0,0.0,0.0,0.0,0.0,0.0,0.0,-0.986,-0.9831,0.0,0.0,-1.094,-1.0974,-1.1022,-1.1657,-1.2389,-1.2658,-1.2571,-1.2336,-1.1909,0.0,0.0,-0.9565,-0.9122,-0.889,-0.8918,-0.9159,-0.9562,0.0,0.0,0.0,0.0,0.0,0.0,0.0,0.0,0.0,0.0,0.0,-1.6072,-1.686,-1.7329,-1.7582,-1.7582,-1.74,-1.7271,-1.7271,-1.74,-1.7335,-1.7001,-1.7916,-1.7916,-1.7001,-1.8302,-1.8559,-1.8033,-1.8586,-1.8698,-1.8444,-1.8263,-1.8167,0.0,-1.8475,-1.8634,-1.8765,-1.9243,-1.9301,-1.9243,-1.9359,-1.943,-1.943,0.0,0.0,0.0,0.0,0.0,0.0,-0.4116,-0.3921,-0.3843,-0.3999,-0.3882,-0.3851,-0.4038,-0.4089,-0.4145,-0.4145,0.0,0.0,0.0,0.0,0.0,0.0,0.0,0.0,0.0,0.0,-0.6169,-0.6302,-0.6567,-0.701,0.0,0.0,0.0,0.0,0.0,0.0,0.0,0.0,0.0,0.0,0.0,0.0,0.0,0.0,0.0,0.0,0.0,0.0,0.0,0.0,0.0,0.0,0.0,0.0,0.0,0.0,-1.0251,-1.0375,-1.027,-1.105,-1.1903,-1.2126,-1.2111,-1.1902,0.0,0.0,0.0,-0.9222,-0.8941,-0.8846,-0.8958,-0.9323,-0.9871,0.0,0.0,0.0,0.0,0.0,0.0,0.0,0.0,-1.4935,0.0,-1.6008,-1.6624,-1.7406,-1.7787,-1.7969,-1.7969,-1.7916,-1.7734,-1.7529,-1.7594,-1.7464,-1.7001,-1.8045,-1.8109,-1.7141,-1.8495,-1.8704,-1.8047,-1.8506,-1.8493,-1.8155,-1.7962,-1.7911,0.0,-1.8311,-1.8532,-1.8823,-1.9243,-1.9359,-1.9243,-1.9372,-1.943,-1.943,0.0,0.0,0.0,0.0,0.0,0.0,0.0,-0.3921,-0.3804,-0.3804,-0.3804,-0.3837,-0.3887,-0.3981,-0.3992,-0.3992,0.0,0.0,0.0,0.0,0.0,0.0,0.0,0.0,0.0,0.0,-0.6086,-0.6086,-0.6302,-0.665,-0.7098,-0.7517,-0.7901,0.0,0.0,0.0,0.0,0.0,0.0,0.0,0.0,0.0,0.0,0.0,0.0,0.0,0.0,0.0,0.0,0.0,0.0,0.0,0.0,0.0,0.0,0.0,-0.9509,-0.9546,-0.9764,-1.0124,-1.0514,-1.1021,-1.0974,-1.0729,0.0,0.0,0.0,-0.8837,-0.9194,-0.9563,-0.9563,-0.9977,-1.0586,-1.1463,0.0,0.0,0.0,0.0,0.0,0.0,0.0,0.0,-1.4344,-1.5216,-1.6115,-1.6735,-1.7558,0.0,-1.7969,-1.8366,-1.8249,-1.7529,-1.7852,-1.7647,-1.7001,-1.8045,-1.8249,-1.7529,-1.8559,-1.88,-1.8234,-1.856,-1.8384,-1.7877,-1.7877,-1.7911,0.0,-1.8311,-1.8415,-1.8473,-1.9127,-1.9185,-1.8939,-1.9301,-1.943,-1.943,0.0,0.0,0.0,0.0,0.0,0.0,0.0,-0.3843,-0.3843,-0.3999,-0.3882,-0.3876,-0.4093,-0.4022,-0.3968,-0.3948,0.0,0.0,0.0,0.0,0.0,0.0,0.0,0.0,0.0,0.0,-0.5908,-0.6086,-0.6262,-0.6575,-0.7034,-0.7263,-0.755,-0.7979,-0.8324,0.0,0.0,0.0,0.0,0.0,0.0,0.0,0.0,0.0,0.0,0.0,0.0,0.0,0.0,0.0,0.0,0.0,0.0,0.0,0.0,-0.9403,-0.9598,0.0,-0.9622,-0.9998,-1.0479,-1.0464,-1.055,-1.046,-0.9997,0.0,0.0,0.0,-0.9033,-0.9355,-0.9355,-0.9868,-1.0453,-1.1017,0.0,0.0,0.0,0.0,0.0,0.0,0.0,0.0,0.0,0.0,-1.7557,-1.7718,-1.8195,-1.8407,-1.8229,-1.8354,-1.8333,-1.8238,-1.8192,-1.7846,-1.7147,-1.7999,-1.7999,-1.7337,-1.8364,-1.8632,-1.8223,-1.8368,-1.8215,-1.7925,-1.7933,-1.7858,-1.7726,-1.8415,-1.859,-1.8473,-1.9127,-1.9359,-1.9243,-1.9372,-1.9533,-1.9649,0.0,0.0,0.0,0.0,0.0,0.0,0.0,-0.3882,-0.396,-0.4077,-0.3999,-0.3999,-0.4174,-0.4076,-0.3973,-0.3952,0.0,0.0,0.0,0.0,0.0,0.0,0.0,0.0,0.0,-0.5508,-0.5686,-0.5952,-0.6167,-0.6459,-0.674,-0.7108,-0.7391,-0.7669,-0.807,0.0,0.0,0.0,0.0,0.0,0.0,0.0,-0.9236,0.0,0.0,0.0,0.0,0.0,0.0,0.0,0.0,0.0,0.0,0.0,0.0,0.0,-0.9223,-0.9321,0.0,-0.9444,-0.9727,-0.9628,-0.975,0.0,0.0,0.0,0.0,0.0,0.0,0.0,0.0,0.0,0.0,0.0,0.0,0.0,0.0,0.0,0.0,0.0,0.0,0.0,0.0,-1.7558,-1.7746,-1.8051,-1.844,-1.8565,-1.8312,-1.83,-1.8382,-1.8455,-1.8426,-1.8003,-1.7163,-1.8143,-1.8253,-1.7487,-1.8345,-1.8563,-1.8392,-1.8374,-1.8179,-1.7958,-1.8093,-1.796,0.0,-1.859,-1.8765,-1.8648,-1.9185,-1.943,-1.943,-1.943,-1.9533,-1.9649,0.0,0.0,0.0,0.0,0.0,0.0,0.0,0.0,0.0,0.0,-0.4121,-0.4117,-0.4214,-0.4029,-0.3944,0.0,0.0,0.0,0.0,0.0,0.0,0.0,0.0,0.0,0.0,-0.5374,-0.5513,-0.5746,-0.6093,-0.6293,-0.6357,-0.7031,-0.7398,-0.7453,-0.8076,-0.8528,-0.8825,-0.9377,-0.9575,-0.9624,-0.9624,-0.9484,0.0,0.0,0.0,0.0,0.0,0.0,0.0,0.0,0.0,0.0,0.0,0.0,0.0,0.0,0.0,0.0,0.0,-0.8574,-0.8499,-0.8655,-0.8696,-0.8642,0.0,0.0,0.0,0.0,0.0,0.0,0.0,0.0,0.0,0.0,0.0,0.0,0.0,0.0,0.0,0.0,0.0,0.0,-1.6853,-1.6725,-1.6848,-1.7769,-1.8348,-1.8517,-1.8251,-1.8239,-1.8239,-1.8239,-1.8533,-1.8163,-1.7119,-1.8339,-1.8647,-1.7953,-1.8431,-1.8679,-1.8667,-1.848,-1.828,0.0,-1.8311,-1.8311,-1.8089,-1.8706,-1.8939,-1.8881,-1.9243,-1.9372,-1.9372,-1.9372,-1.9417,-1.9488,0.0,0.0,0.0,0.0,0.0,0.0,0.0,0.0,0.0,0.0,0.0,-0.4196,-0.4411,-0.4166,0.0,0.0,0.0,0.0,0.0,0.0,0.0,0.0,0.0,0.0,0.0,-0.528,-0.5639,-0.6145,-0.6171,-0.6419,-0.69,-0.6923,-0.7149,-0.7545,-0.7726,-0.8187,-0.8825,-0.9377,-0.9575,-0.9624,-1.0068,-0.992,0.0,0.0,0.0,0.0,-0.9434,-0.9385,0.0,0.0,0.0,0.0,0.0,0.0,0.0,0.0,-0.8431,-0.833,-0.8364,0.0,-0.8143,-0.8447,-0.8381,-0.8302,0.0,0.0,0.0,0.0,0.0,0.0,0.0,0.0,0.0,0.0,0.0,0.0,0.0,0.0,0.0,0.0,-1.5237,-1.558,-1.6481,-1.7144,-1.7515,-1.7528,-1.7877,-1.795,-1.7684,-1.7672,-1.7672,-1.7672,-1.7981,-1.7924,-1.7341,-1.7685,-1.7781,-1.7556,-1.8167,-1.847,-1.8456,-1.8633,-1.8682,-1.8706,-1.8765,-1.8765,-1.8706,-1.9127,-1.901,-1.859,-1.9185,-1.9243,-1.9055,-1.9301,-1.9533,-1.9764,0.0,0.0,0.0,0.0,0.0,0.0,0.0,0.0,0.0,0.0,0.0,0.0,0.0,0.0,0.0,0.0,0.0,0.0,0.0,0.0,0.0,0.0,0.0,0.0,-0.4879,-0.5102,-0.547,-0.5955,-0.6076,-0.6339,-0.6748,-0.6784,-0.6942,-0.7247,-0.7646,-0.8187,-0.8825,-0.9377,-0.9673,-0.9821,-1.0216,0.0,0.0,0.0,0.0,0.0,-0.9723,-0.9624,0.0,-0.9525,-0.9575,-0.9557,0.0,0.0,0.0,0.0,-0.8385,-0.8311,-0.8066,-0.8011,-0.8142,-0.8445,-0.8428,-0.8448,-0.8635,0.0,0.0,0.0,0.0,0.0,0.0,0.0,0.0,0.0,0.0,0.0,0.0,0.0,0.0,0.0,-1.5709,-1.6001,0.0,-1.7026,-1.7469,-1.747,-1.7745,-1.7756,-1.7491,-1.7479,-1.7479,-1.7479,-1.7667,-1.7671,-1.7396,-1.7744,-1.7864,-1.7767,-1.819,-1.8548,-1.8788,-1.8826,-1.8907,-1.9113,-1.8981,-1.8995,-1.91,-1.9154,-1.895,-1.8706,-1.9185,-1.9185,-1.8939,-1.9417,-1.9591,-1.9707,0.0,0.0,0.0,0.0,0.0,0.0,0.0,0.0,0.0,0.0,0.0,0.0,0.0,0.0,0.0,0.0,0.0,0.0,0.0,0.0,0.0,0.0,0.0,-0.4433,-0.4705,-0.4938,-0.5225,-0.566,-0.5962,-0.6224,-0.6393,-0.6647,-0.6792,-0.6892,-0.764,-0.8287,-0.8825,-0.9426,-0.9772,-1.0019,-1.0364,0.0,0.0,0.0,0.0,0.0,0.0,0.0,0.0,-0.9575,-0.9583,-0.9508,-0.9198,0.0,0.0,0.0,0.0,0.0,-0.7796,-0.7921,-0.8278,-0.8529,-0.8666,-0.8843,-0.8918,0.0,0.0,0.0,0.0,0.0,0.0,0.0,0.0,0.0,0.0,0.0,0.0,0.0,0.0,0.0,-1.6053,0.0,-1.6478,-1.6791,-1.7124,-1.7503,-1.7684,-1.772,-1.7491,-1.7479,-1.7479,-1.7479,-1.7479,-1.7469,-1.7398,-1.8008,-1.8311,-1.8155,-1.8358,-1.8724,-1.9259,-1.9057,-1.9171,-1.9461,0.0,0.0,-1.9448,-1.9092,-1.896,-1.8939,-1.9243,-1.9185,-1.8997,-1.9577,-1.9649,-1.9546,0.0,0.0,0.0,0.0,0.0,0.0,0.0,0.0,0.0,0.0,0.0,0.0,0.0,0.0,0.0,0.0,0.0,0.0,0.0,0.0,0.0,0.0,-0.43,-0.4433,-0.4705,-0.5013,-0.5429,-0.6015,-0.6181,-0.6448,-0.6714,-0.6531,-0.6686,-0.7185,-0.7739,-0.8287,-0.8874,-0.9624,-0.9969,-1.0068,-1.0806,0.0,0.0,0.0,0.0,0.0,0.0,0.0,0.0,-0.9575,-0.9434,-0.9236,-0.9218,0.0,0.0,0.0,0.0,0.0,-0.7939,-0.7833,-0.7909,-0.8734,-0.9079,-0.9331,0.0,0.0,0.0,0.0,0.0,0.0,0.0,0.0,0.0,0.0,0.0,-1.4359,0.0,0.0,-1.5773,-1.4906,0.0,-1.6478,-1.6478,-1.7044,-1.7409,-1.7491,-1.7515,-1.7527,-1.7491,-1.7479,-1.7479,-1.7479,-1.7479,-1.7503,-1.748,-1.7846,-1.8059,-1.8037,-1.8563,-1.8888,-1.8946,-1.9198,-1.9649,-2.0097,0.0,-1.9666,-2.0097,-1.9537,-1.9145,-1.8939,-1.9243,-1.9185,-1.8997,-1.9577,-1.9649,-1.9475,0.0,0.0,0.0,0.0,0.0,0.0,0.0,0.0,0.0,0.0,0.0,0.0,0.0,0.0,0.0,0.0,0.0,0.0,0.0,0.0,0.0,-0.43,-0.43,-0.4433,-0.4705,-0.5027,-0.5408,-0.5894,-0.616,-0.6377,-0.6592,-0.6437,-0.6686,-0.7185,-0.7441,-0.7932,-0.8627,-0.9426,-0.9871,-1.0068,0.0,0.0,0.0,0.0,0.0,0.0,0.0,0.0,0.0,0.0,-0.9434,-0.9187,-0.9187,0.0,0.0,0.0,0.0,0.0,-0.8137,-0.8099,-0.8298,-0.8889,-0.9161,-0.955,0.0,0.0,0.0,0.0,0.0,0.0,0.0,0.0,0.0,0.0,0.0,-1.5704,-1.5613,-1.6322,-1.6529,0.0,0.0,-1.6891,-1.6537,-1.7126,-1.7479,-1.7479,-1.7479,-1.7479,-1.7479,-1.7479,-1.7479,-1.7479,-1.7479,-1.7479,-1.7479,-1.7843,-1.8077,-1.8194,-1.8473,-1.8823,-1.9185,-1.9475,-1.988,-2.0256,0.0,-1.9482,-1.9933,-1.9009,-1.8668,-1.8646,-1.9004,-1.9039,-1.8997,-1.9577,-2.0053,-2.0399,0.0,0.0,0.0,0.0,0.0,0.0,0.0,0.0,0.0,0.0,0.0,0.0,0.0,0.0,0.0,0.0,0.0,0.0,0.0,0.0,-0.43,-0.43,-0.4344,-0.4491,-0.4647,-0.4968,-0.5302,-0.5646,-0.6052,-0.6306,-0.6387,-0.6487,-0.6736,-0.7185,-0.7291,-0.7739,-0.8528,-0.9229,-0.9723,-1.0167,0.0,0.0,0.0,0.0,0.0,0.0,0.0,0.0,0.0,0.0,0.0,0.0,0.0,0.0,0.0,-0.8874,-0.8931,-0.8981,-0.8435,-0.8499,-0.886,-0.9229,0.0,0.0,0.0,0.0,0.0,0.0,0.0,0.0,0.0,0.0,0.0,0.0,-1.5679,-1.6398,-1.6827,-1.7252,-1.7244,-1.6596,-1.7067,-1.7303,-1.6773,-1.7185,-1.7479,-1.7479,-1.7479,-1.7479,-1.7479,-1.7479,-1.7479,-1.7479,-1.7479,-1.7479,-1.7479,-1.7726,-1.8077,-1.8415,-1.8473,-1.8836,-1.943,-1.9707,-1.9924,-2.0127,-1.933,-1.9276,-1.9611,-1.8559,-1.8236,-1.8507,-1.8814,-1.903,-1.9287,-1.9635,-2.0399,-2.1146,0.0,0.0,0.0,0.0,0.0,0.0,0.0,0.0,0.0,0.0,0.0,0.0,0.0,0.0,0.0,0.0,0.0,0.0,0.0,0.0,-0.43,-0.43,-0.4523,-0.4611,-0.4422,-0.4793,-0.5174,-0.5523,-0.5877,-0.6132,-0.6387,-0.6642,-0.6942,-0.7185,-0.7441,-0.8038,-0.8775,-0.908,-0.9673,-1.0413,-1.0708,0.0,0.0,0.0,0.0,0.0,0.0,0.0,0.0,0.0,0.0,0.0,0.0,0.0,-0.8825,-0.8825,-0.8825,-0.8874,-0.908,-0.9045,-0.9178,-1.0078,0.0,0.0,0.0,-1.0999,0.0,-1.1557,0.0,0.0,0.0,0.0,0.0,0.0,-1.5322,-1.5203,-1.6045,0.0,-1.7244,-1.6596,-1.7067,-1.7479,-1.742,-1.7479,-1.7479,-1.7479,-1.7479,-1.7479,-1.7479,-1.7479,-1.7479,-1.7479,-1.7479,-1.7479,-1.7479,-1.7537,-1.783,-1.8415,-1.8706,-1.9055,-1.943,-1.9707,-1.9809,-1.9809,-1.9421,-1.9317,-1.9384,-1.8641,-1.8544,-1.8888,-1.8866,-1.9435,-2.0155,-1.9924,-2.0399,-2.1146,0.0,0.0,0.0,0.0,0.0,0.0,0.0,0.0,0.0,0.0,0.0,0.0,0.0,0.0,0.0,0.0,0.0,0.0,0.0,0.0,-0.43,-0.43,-0.4389,-0.4435,-0.4388,-0.49,-0.5379,-0.5728,-0.6085,-0.6387,-0.6642,-0.6742,-0.6942,-0.7235,-0.764,-0.7939,-0.8137,-0.9031,-0.9533,-0.9723,-1.0511,-1.0855,0.0,0.0,0.0,0.0,0.0,0.0,0.0,0.0,-0.9377,-0.908,0.0,0.0,0.0,0.0,-0.9426,-0.9468,-0.908,-0.9395,-0.9782,-0.978,0.0,0.0,0.0,0.0,-1.2187,-1.2816,-1.2718,0.0,0.0,0.0,0.0,0.0,-1.6033,-1.6391,-1.6902,-1.7301,-1.7303,-1.6844,-1.7197,-1.742,-1.7197,-1.7373,-1.7479,-1.7479,-1.7479,-1.7479,-1.7479,-1.7479,-1.7479,-1.7479,-1.7322,-1.7322,-1.7479,-1.7554,-1.7844,-1.8415,-1.8532,-1.8894,-1.943,-1.9707,-1.9924,-2.0083,-1.9369,-1.9193,-1.9362,-1.8515,-1.8255,-1.8355,-1.8592,-1.9201,-1.9976,-1.9877,-2.0402,-2.1203,0.0,0.0,0.0,0.0,0.0,0.0,0.0,0.0,0.0,0.0,0.0,0.0,0.0,0.0,0.0,0.0,0.0,0.0,0.0,-0.4255,-0.43,-0.43,-0.4389,-0.4435,-0.4388,-0.4993,-0.5475,-0.5776,-0.6184,-0.6537,-0.6792,-0.6892,-0.7092,-0.7341,-0.7889,-0.8088,-0.8038,-0.8981,-0.9377,-0.9525,-1.0167,-1.056,0.0,0.0,0.0,0.0,0.0,0.0,0.0,0.0,-0.9434,0.0,0.0,0.0,0.0,0.0,0.0,-1.0265,-0.9616,-1.0054,-1.0582,0.0,0.0,0.0,0.0,0.0,0.0,0.0,-1.3808,0.0,0.0,0.0,0.0,0.0,-1.647,-1.6925,-1.7279,-1.7373,-1.7197,-1.6903,-1.7138,-1.7256,-1.702,-1.7315,-1.7479,-1.7479,-1.7479,-1.7479,-1.7479,-1.7479,-1.7479,-1.7479,-1.7225,-1.7213,-1.7479,-1.756,-1.7848,-1.8415,-1.8415,-1.8777,-1.9417,-1.9764,-1.9982,-1.9968,-1.9554,-1.925,-1.9029,-1.8397,-1.8152,-1.8165,-1.8488,-1.9137,-1.9822,-1.992,-2.043,-2.1072,0.0,0.0,0.0,0.0,0.0,0.0,0.0,0.0,0.0,0.0,0.0,0.0,0.0,0.0,0.0,0.0,0.0,0.0,-0.4661,-0.4433,-0.43,-0.43,-0.4572,-0.4615,-0.4384,-0.4993,-0.5379,-0.5489,-0.6085,-0.6537,-0.6792,-0.7092,-0.7341,-0.7596,-0.8137,-0.8528,-0.8775,-0.8775,-0.927,-0.9969,-0.9723,-1.0068,-1.0806,0.0,0.0,0.0,0.0,0.0,0.0,0.0,-0.9434,-0.9187,0.0,0.0,0.0,0.0,-1.0364,-1.1149,-1.0855,-1.1198,-1.1541,0.0,0.0,0.0,0.0,0.0,0.0,0.0,0.0,-1.4823,-1.4656,0.0,0.0,-1.6538,-1.6391,-1.6301,-1.6903,-1.702,-1.6844,-1.6537,-1.6785,-1.702,-1.702,-1.7315,-1.7479,-1.7479,-1.7479,-1.7479,-1.7479,-1.7479,-1.7479,-1.7479,-1.7225,-1.7213,-1.7479,-1.756,-1.7848,-1.8415,-1.8415,-1.8777,-1.943,-1.9996,-1.9938,-1.943,-2.004,-1.9573,-1.8381,-1.8381,-1.8381,-1.8438,-1.8735,-1.9244,-1.985,-2.0144,-2.0473,-2.0764,0.0,0.0,0.0,0.0,0.0,0.0,0.0,0.0,0.0,0.0,0.0,0.0,0.0,0.0,0.0,0.0,0.0,0.0,-0.417,-0.4438,-0.4478,-0.43,-0.4572,-0.4674,-0.4611,-0.5237,-0.5653,-0.5842,-0.6221,-0.6637,-0.7092,-0.6992,-0.7042,-0.7341,-0.8088,-0.823,-0.8024,-0.8783,-0.913,-0.9171,-0.9476,-0.9871,-1.0265,0.0,0.0,0.0,0.0,0.0,0.0,0.0,0.0,0.0,0.0,0.0,0.0,0.0,-1.0806,-1.1345,-1.0708,-1.1163,0.0,0.0,0.0,0.0,0.0,0.0,0.0,0.0,0.0,-1.529,-1.5133,0.0,0.0,-1.6891,-1.6855,-1.6785,-1.6961,-1.6785,-1.6537,-1.6253,-1.649,-1.6655,-1.6655,-1.6961,-1.7256,-1.7479,-1.7479,-1.7479,-1.7479,-1.7479,-1.7479,-1.7479,-1.7044,-1.7146,-1.7843,-1.7672,-1.8014,-1.8765,-1.901,-1.9185,-1.943,-1.9345,-1.9461,-1.9693,-1.9432,-1.9326,-1.9316,-1.874,-1.8479,-1.8459,-1.8089,-1.8632,-1.9499,-1.9375,-1.9933,-2.0715,0.0,0.0,0.0,0.0,0.0,0.0,0.0,0.0,0.0,0.0,-0.4945,-0.4705,0.0,0.0,0.0,0.0,0.0,0.0,0.0,0.0,-0.4661,-0.4567,-0.4746,-0.4902,-0.5034,-0.5474,-0.584,-0.6124,-0.6315,-0.6637,-0.7042,-0.6892,-0.6942,-0.7235,-0.7939,-0.7982,-0.7627,-0.8386,-0.8634,-0.8528,-0.8931,-0.9327,-0.9764,0.0,0.0,0.0,0.0,0.0,0.0,0.0,0.0,0.0,0.0,0.0,0.0,-1.0609,-1.1198,-1.1785,-1.1051,0.0,0.0,0.0,0.0,0.0,0.0,0.0,0.0,0.0,0.0,-1.5462,-1.5656,-1.6201,0.0,-1.6884,-1.6961,-1.6926,-1.6704,-1.648,-1.622,-1.5943,-1.6197,-1.6371,-1.6478,-1.668,-1.6961,-1.7303,-1.7324,-1.7312,-1.7303,-1.742,-1.7479,-1.7479,-1.708,-1.724,-1.7972,-1.7812,-1.8153,-1.8881,-1.9113,-1.919,-1.9199,-1.9234,-1.9403,-1.9635,-1.9109,-1.919,-1.9598,-1.8796,-1.8536,-1.8616,-1.8144,-1.8618,-1.9527,-1.9207,-1.9706,-2.0469,0.0,0.0,-0.462,-0.454,0.0,0.0,0.0,0.0,0.0,0.0,-0.4912,-0.4705,0.0,0.0,0.0,0.0,0.0,0.0,0.0,0.0,-0.479,-0.5008,-0.5008,-0.524,-0.5634,-0.5696,-0.5905,-0.6268,-0.6333,-0.6537,-0.6792,-0.6792,-0.6948,-0.7253,-0.7746,-0.7846,-0.7646,-0.7889,-0.7988,-0.7988,-0.8287,-0.8726,-0.9262,-1.006,0.0,0.0,0.0,0.0,0.0,0.0,0.0,0.0,0.0,0.0,0.0,-1.0855,-1.1541,-1.2273,0.0,0.0,0.0,0.0,0.0,0.0,0.0,0.0,0.0,0.0,0.0,-1.5501,-1.6191,-1.6662,-1.6896,-1.6644,-1.6739,-1.6751,-1.6206,-1.6096,-1.5987,-1.5732,-1.5931,-1.6194,-1.6537,-1.66,-1.6715,-1.6973,-1.7052,-1.7074,-1.6997,-1.7267,-1.743,-1.7465,-1.721,-1.7325,-1.7944,-1.7957,-1.8243,-1.8803,-1.8861,-1.8845,-1.8891,-1.9401,-1.9537,-1.9279,-1.9055,-1.911,-1.9263,-1.8713,-1.8658,-1.8878,-1.8576,-1.8987,-1.9724,-1.9388,-1.9688,-2.0183,0.0,0.0,-0.4407,-0.4683,0.0,0.0,0.0,0.0,0.0,0.0,0.0,0.0,0.0,0.0,0.0,0.0,0.0,0.0,0.0,0.0,-0.4968,-0.5008,-0.5191,-0.5465,-0.5812,-0.5977,-0.6,-0.5971,-0.6283,-0.6537,-0.6792,-0.6792,-0.7051,-0.7445,-0.7842,-0.7955,-0.7845,-0.7935,-0.7889,-0.7733,-0.818,-0.8577,-0.8973,-0.9772,-1.0364,0.0,0.0,0.0,0.0,0.0,0.0,0.0,-1.0659,-1.1051,-1.1394,-1.1198,-1.159,-1.2029,0.0,0.0,0.0,0.0,0.0,0.0,0.0,0.0,0.0,0.0,0.0,-1.5588,-1.6148,-1.6133,-1.616,-1.6447,-1.6397,-1.6234,-1.6148,-1.5862,-1.581,-1.5963,-1.6049,-1.6324,-1.6844,-1.6716,-1.6702,-1.7062,-1.7071,-1.7032,-1.6762,-1.7011,-1.7195,-1.7202,-1.6932,-1.6987,-1.7372,-1.7597,-1.775,-1.7909,-1.8384,-1.8582,-1.8597,-1.8638,-1.8708,-1.8733,-1.9098,-1.9057,-1.8726,-1.8996,-1.8996,-1.886,-1.8304,-1.8644,-1.9319,-1.8828,-1.9155,-1.9852,0.0,0.0,0.0,0.0,0.0,0.0,0.0,0.0,0.0,0.0,0.0,0.0,0.0,0.0,0.0,0.0,-0.4433,0.0,0.0,0.0,-0.5102,-0.5324,-0.5425,-0.5617,-0.5899,-0.6078,-0.6107,-0.5922,-0.6085,-0.6337,-0.6592,-0.6704,-0.6985,-0.7396,-0.7794,-0.7743,-0.7389,-0.7572,-0.7385,-0.7086,-0.7882,-0.8287,-0.8528,-0.9575,-1.0167,-1.0462,-1.0708,0.0,0.0,0.0,0.0,0.0,0.0,0.0,-1.1394,-1.1247,-1.159,-1.1932,0.0,0.0,0.0,0.0,0.0,0.0,0.0,0.0,0.0,0.0,0.0,0.0,-1.6186,-1.6319,-1.6356,-1.6326,-1.6312,-1.6222,-1.6148,-1.6026,-1.6035,-1.6079,-1.6112,-1.6191,-1.6541,-1.6366,-1.636,-1.666,-1.6722,-1.665,-1.647,-1.677,-1.6952,-1.7074,-1.6938,-1.7104,-1.7576,-1.7712,-1.7877,-1.802,-1.8366,-1.8424,-1.829,-1.8404,-1.8456,-1.8532,-1.8988,-1.8984,-1.8737,-1.9113,-1.9274,-1.9192,-1.8503,-1.8833,-1.9604,-1.8699,-1.8996,-1.9729,0.0,0.0,0.0,0.0,0.0,0.0,0.0,0.0,0.0,0.0,0.0,0.0,0.0,0.0,-0.43,0.0,0.0,0.0,0.0,-0.5027,-0.531,-0.5718,-0.5694,-0.5763,-0.5964,-0.6165,-0.6128,-0.585,-0.5847,0.0,0.0,0.0,-0.6998,-0.7396,-0.7948,-0.7769,-0.7107,-0.7384,-0.716,-0.6686,-0.769,-0.8088,-0.8187,-0.9426,-0.992,-1.0068,-1.056,-1.0757,-1.0855,-1.11,0.0,0.0,0.0,0.0,-1.1247,-1.1198,-1.1541,-1.1883,0.0,0.0,0.0,0.0,0.0,0.0,0.0,0.0,0.0,0.0,0.0,0.0,-1.6222,-1.654,-1.661,-1.6127,-1.622,-1.6258,-1.608,-1.6262,-1.6319,-1.6253,-1.6161,-1.6161,-1.6218,-1.6016,-1.5995,-1.6207,-1.6294,-1.6246,-1.6148,-1.643,-1.6777,-1.7049,-1.7036,-1.7257,-1.7767,-1.7822,-1.7987,-1.8165,-1.8275,-1.821,-1.7916,-1.8278,-1.8385,-1.8426,-1.8711,-1.8854,-1.8975,-1.9241,-1.9507,-1.972,-1.8975,-1.9291,-2.0003,-1.8935,-1.9012,-1.9585,0.0,0.0,0.0,0.0,0.0,0.0,0.0,0.0,0.0,0.0,-0.438,-0.4344,0.0,0.0,0.0,-0.43,-0.43,0.0,-0.4705,0.0,0.0,-0.5882,-0.5996,-0.6111,-0.6268,-0.6052,-0.5871,-0.5617,0.0,0.0,0.0,0.0,0.0,-0.8194,0.0,-0.8855,-0.8307,-0.8699,-0.8305,-0.7484,-0.8081,-0.8329,-0.8435,-0.908,-0.9575,-1.0019,-1.0364,-1.0609,-1.0855,-1.11,-1.1198,0.0,0.0,0.0,-1.1492,-1.1296,-1.1443,0.0,0.0,0.0,0.0,0.0,0.0,0.0,0.0,0.0,0.0,0.0,0.0,0.0,-1.6151,-1.6022,-1.5852,-1.5779,-1.5755,-1.5733,-1.5841,-1.5817,-1.6,-1.6553,-1.6348,-1.6292,-1.6586,-1.6409,-1.6241,-1.6277,-1.6296,-1.6199,-1.5952,-1.6223,-1.6466,-1.6744,-1.6731,-1.6785,-1.6838,-1.7171,-1.7184,-1.6957,-1.749,-1.7689,-1.7649,-1.7954,-1.8087,-1.8087,-1.8348,-1.8755,-1.9293,-1.9539,-1.9784,-1.9992,-1.9695,-1.9621,-1.9702,-1.9301,-1.9092,-1.9031,0.0,0.0,0.0,0.0,0.0,0.0,0.0,0.0,0.0,0.0,0.0,-0.4523,0.0,0.0,0.0,0.0,0.0,0.0,-0.482,-0.5046,0.0,0.0,-0.5789,-0.5924,-0.6317,-0.6082,-0.5842,-0.5586,0.0,0.0,0.0,-0.7228,-0.7884,0.0,0.0,0.0,0.0,-0.8671,-0.8296,-0.7611,-0.8197,-0.8339,-0.8244,-0.9087,-0.9564,-0.9896,-1.0709,-1.102,-1.1047,-1.1611,-1.1623,-1.135,-1.1236,0.0,0.0,0.0,0.0,0.0,0.0,0.0,0.0,0.0,0.0,0.0,0.0,0.0,0.0,0.0,0.0,0.0,-1.6198,-1.6181,-1.6092,-1.5734,-1.6085,-1.6249,-1.5852,-1.6172,-1.647,-1.6437,-1.6327,-1.6244,-1.62,-1.6114,-1.6066,-1.6066,-1.6066,-1.6006,-1.5897,-1.6006,-1.6179,-1.6483,-1.6471,-1.6524,-1.6683,-1.7014,-1.7226,-1.7213,-1.7477,-1.7582,-1.7635,-1.7859,-1.8016,-1.8016,-1.8489,-1.8907,-1.9324,-1.9583,-1.9946,-2.0308,-1.9879,-1.9776,-1.9879,-1.9428,-1.913,-1.8921,0.0,0.0,0.0,0.0,0.0,0.0,0.0,0.0,0.0,0.0,0.0,0.0,0.0,0.0,0.0,0.0,0.0,0.0,-0.4896,0.0,0.0,0.0,0.0,-0.5723,-0.6214,-0.5951,-0.5741,0.0,0.0,0.0,-0.6731,-0.7373,-0.8124,0.0,-0.9686,-0.9524,0.0,0.0,-0.8748,-0.7917,-0.8699,-0.8711,-0.8369,-0.9445,-0.9764,-0.9811,-1.1157,-1.1487,-1.1383,-1.1887,-1.1923,-1.1649,-1.1234,-1.1198,0.0,0.0,0.0,0.0,0.0,0.0,0.0,0.0,0.0,0.0,0.0,0.0,0.0,0.0,0.0,0.0,-1.6139,-1.6238,-1.6218,-1.5818,-1.6252,-1.6495,-1.5918,-1.636,-1.6645,-1.6275,-1.6234,-1.6078,-1.5861,-1.5845,-1.5885,-1.5885,-1.5885,-1.5885,-1.5885,-1.5885,-1.6004,-1.6271,-1.6324,-1.643,-1.6683,-1.6948,-1.7173,-1.7371,-1.7477,-1.7529,-1.7635,-1.7859,-1.8016,-1.8122,-1.866,-1.913,-1.9532,-1.9724,-2.0101,-2.0565,-2.0153,-2.0086,-2.0138,-1.9687,-1.9272,-1.9011,0.0,0.0,0.0,0.0,0.0,0.0,0.0,0.0,0.0,0.0,0.0,0.0,0.0,0.0,-0.4982,-0.4978,0.0,0.0,0.0,0.0,0.0,0.0,0.0,0.0,0.0,0.0,0.0,0.0,0.0,0.0,-0.6809,-0.7292,-0.8033,-0.8958,-1.0319,-1.0358,-0.9555,0.0,0.0,-0.8898,-1.0056,-0.9839,-0.901,-1.0384,-1.0387,-0.9915,-1.1505,-1.1953,-1.1741,-1.1515,-1.1813,-1.2096,-1.1123,-1.1149,-1.1541,0.0,0.0,0.0,0.0,0.0,0.0,0.0,0.0,0.0,0.0,0.0,0.0,0.0,0.0,0.0,0.0,-1.5814,-1.5794,-1.5885,-1.5837,-1.5805,-1.5861,-1.5893,-1.5991,-1.6253,-1.6066,-1.591,-1.591,-1.5897,-1.5885,-1.5885,-1.5885,-1.5885,-1.5885,-1.5885,-1.6004,-1.6271,-1.6324,-1.643,-1.6683,-1.6736,-1.6736,-1.6723,-1.7067,-1.7331,-1.7635,-1.7859,-1.8122,-1.8422,-1.8764,-1.9324,-2.0086,-2.0086,-2.0395,-2.0873,-2.0873,-2.0668,-2.0462,-2.0138,-1.9724,-1.9176,0.0,0.0,0.0,0.0,0.0,0.0,0.0,0.0,0.0,0.0,0.0,0.0,0.0,-0.5317,-0.5307,-0.519,-0.5006,0.0,0.0,0.0,0.0,0.0,0.0,0.0,0.0,0.0,0.0,0.0,0.0,-0.5737,-0.6297,-0.6918,-0.7622,-0.835,-0.9946,-1.0443,-1.0054,-1.0937,0.0,-0.9382,-0.9862,-0.9793,-0.9435,-0.9861,-1.0113,-1.0355,-1.1476,-1.1792,-1.1666,-1.1755,-1.2398,-1.2885,-1.1606,-1.169,0.0,0.0,0.0,0.0,0.0,0.0,0.0,0.0,0.0,0.0,0.0,0.0,0.0,0.0,0.0,0.0,0.0,0.0,-1.5963,-1.5649,-1.6025,-1.616,-1.5736,-1.5915,-1.6114,-1.6054,-1.5946,-1.5885,-1.5885,-1.5885,-1.576,-1.5434,-1.5527,-1.5507,-1.5132,-1.5287,-1.5515,-1.5789,-1.5801,-1.5906,-1.6168,-1.6542,-1.67,-1.6795,-1.7239,-1.7529,-1.7635,-1.8055,-1.8318,-1.8422,-1.8959,-1.9532,-2.0086,-2.0086,-2.0395,-2.0925,-2.0925,-2.0719,-2.0462,-2.0189,-1.9776,-1.9257,0.0,0.0,0.0,0.0,0.0,0.0,0.0,0.0,0.0,0.0,0.0,0.0,0.0,0.0,-0.5134,-0.505,-0.5057,-0.5031,-0.492,-0.4896,0.0,0.0,0.0,0.0,0.0,0.0,0.0,0.0,0.0,0.0,0.0,-0.6726,-0.7214,-0.7723,-0.9279,-0.9861,0.0,0.0,0.0,-0.937,-1.0194,-1.0217,-0.9906,-1.0461,-1.0745,-1.1059,-1.1998,-1.2296,-1.2298,-1.2411,-1.3098,-1.369,-1.1996,-1.1874,0.0,0.0,0.0,0.0,0.0,0.0,0.0,0.0,0.0,0.0,0.0,0.0,0.0,0.0,0.0,0.0,0.0,0.0,0.0,0.0,-1.6113,-1.6275,-1.582,-1.594,-1.5982,-1.591,-1.5885,-1.5885,-1.5885,-1.5813,-1.5676,-1.5369,-1.5359,0.0,-1.4978,-1.5131,-1.5354,-1.562,-1.5547,-1.5652,-1.6011,-1.6296,-1.6611,-1.6951,-1.7292,-1.7529,-1.7635,-1.8055,-1.8318,-1.8422,-1.8959,-1.9532,-2.0086,-2.0086,-2.0395,-2.0925,-2.0925,-2.0873,-2.0719,-2.0447,-2.0101,-1.9672,0.0,0.0,0.0,0.0,0.0,0.0,0.0,0.0,0.0,0.0,0.0,0.0,0.0,0.0,0.0,-0.4608,-0.4822,-0.5014,-0.51,-0.5026,0.0,0.0,0.0,0.0,0.0,0.0,0.0,0.0,0.0,0.0,0.0,0.0,-0.6924,-0.7264,-0.8413,-0.8786,-0.8545,0.0,-0.9719,-0.896,-1.104,-1.1189,-1.0326,-1.2177,-1.2436,-1.1951,-1.3045,-1.356,-1.3633,-1.3393,-1.3933,-1.435,-1.2393,-1.1671,-1.1627,0.0,0.0,0.0,0.0,0.0,0.0,0.0,0.0,0.0,0.0,0.0,0.0,0.0,0.0,0.0,0.0,0.0,0.0,0.0,0.0,0.0,-1.6229,-1.5851,-1.5589,-1.5897,-1.5885,-1.5885,-1.5885,-1.5656,-1.5596,-1.5849,-1.539,-1.5209,-1.5451,-1.5475,-1.5596,-1.5849,-1.562,-1.5712,-1.6234,-1.5986,-1.63,-1.7147,-1.716,-1.7318,-1.7621,-1.7845,-1.8174,-1.8422,-1.8764,-1.9324,-2.0086,-2.0086,-2.0395,-2.0925,-2.0925,-2.1078,-2.1267,-2.1027,-2.0719,-2.0416,0.0,0.0,0.0,0.0,0.0,0.0,0.0,0.0,0.0,0.0,0.0,0.0,-0.4587,-0.4564,-0.4546,-0.4619,-0.4878,-0.5079,-0.5104,-0.5294,-0.5488,-0.554,0.0,0.0,0.0,0.0,0.0,0.0,0.0,0.0,0.0,0.0,0.0,0.0,-0.7808,-0.8018,-0.8188,-0.9754,0.0,-1.0249,-1.0894,-1.123,0.0,0.0,-1.2138,-1.2209,-1.2651,-1.2982,-1.3213,-1.3009,-1.3864,-1.4762,-1.3664,-1.265,0.0,0.0,0.0,0.0,-1.1988,0.0,0.0,0.0,0.0,0.0,-1.2293,-1.2881,-1.3604,0.0,0.0,0.0,0.0,0.0,0.0,0.0,0.0,0.0,0.0,0.0,-1.5844,-1.5885,-1.5885,-1.5885,-1.5885,-1.5656,-1.5347,0.0,-1.4915,-1.4576,-1.41,-1.4424,-1.4654,-1.4725,-1.5047,-1.5212,-1.5141,-1.5454,-1.5707,-1.5996,-1.6626,-1.7067,-1.7326,-1.7816,-1.8174,-1.8422,-1.8764,-1.9234,-1.9828,-2.0034,-2.0395,-2.0925,-2.0925,-2.1078,-2.1267,-2.1027,-2.0719,-2.0447,0.0,0.0,0.0,0.0,0.0,0.0,0.0,0.0,0.0,0.0,0.0,0.0,0.0,0.0,-0.4252,-0.4295,-0.4706,-0.4966,-0.5002,-0.5397,-0.5643,0.0,0.0,0.0,0.0,0.0,0.0,0.0,0.0,0.0,0.0,0.0,0.0,0.0,-0.791,-0.8122,0.0,0.0,0.0,0.0,-1.0826,0.0,0.0,-1.2082,-1.2414,-1.2795,-1.2908,-1.3313,-1.3751,-1.3715,-1.4207,-1.4821,-1.452,-1.3791,0.0,0.0,0.0,0.0,0.0,0.0,0.0,0.0,0.0,0.0,-1.209,-1.251,-1.3044,0.0,0.0,0.0,0.0,0.0,0.0,0.0,0.0,0.0,0.0,0.0,0.0,0.0,-1.5632,-1.5612,-1.5716,-1.5369,-1.5149,-1.505,-1.4602,-1.4143,-1.3693,-1.3978,-1.4255,-1.4471,-1.4669,-1.487,-1.5021,-1.5318,-1.5683,-1.6047,-1.6665,-1.7133,-1.738,-1.783,-1.8174,-1.8422,-1.8764,-1.9182,-1.9724,-1.9983,-2.0344,-2.0719,-2.0873,-2.1113,-2.142,-2.1267,-2.1113,-2.0976,0.0,0.0,-0.3099,-0.3105,0.0,0.0,0.0,0.0,0.0,0.0,0.0,0.0,0.0,0.0,0.0,0.0,-0.4443,-0.4797,-0.4882,-0.5414,0.0,0.0,0.0,0.0,0.0,0.0,0.0,0.0,0.0,0.0,0.0,0.0,0.0,0.0,-0.844,-0.8755,-0.8972,0.0,0.0,-0.9854,-1.0908,-1.1579,0.0,0.0,-1.3005,-1.3509,-1.367,-1.4134,-1.4631,-1.4809,-1.4725,-1.4536,-1.49,-1.4755,-1.4261,-1.3511,-1.3467,0.0,0.0,0.0,0.0,-1.1883,-1.1925,0.0,-1.2065,-1.2206,-1.2491,-1.2881,0.0,0.0,0.0,0.0,0.0,0.0,0.0,0.0,0.0,0.0,0.0,0.0,0.0,0.0,-1.5493,-1.5059,-1.4948,-1.5431,-1.4447,-1.3879,-1.3853,-1.3865,-1.4067,-1.455,-1.4389,-1.4626,-1.5344,-1.5381,-1.5834,-1.6664,-1.6977,-1.7279,-1.7594,-1.7845,-1.8174,-1.8422,-1.8803,-1.922,-1.9724,-2.0034,-2.0292,-2.0514,-2.0723,-2.1183,-2.1674,-2.1625,-2.1641,-2.1573,-0.3101,-0.3082,-0.3113,-0.3112,0.0,0.0,0.0,0.0,0.0,0.0,0.0,0.0,0.0,0.0,0.0,0.0,0.0,-0.4658,-0.4967,0.0,0.0,0.0,0.0,0.0,0.0,0.0,0.0,0.0,0.0,0.0,0.0,0.0,0.0,0.0,-0.912,-0.9293,0.0,0.0,0.0,-1.0241,-1.1013,-1.1536,-1.1985,-1.3102,-1.3537,-1.3625,-1.4217,-1.4604,-1.4884,-1.4922,-1.4629,-1.4371,-1.459,-1.4399,-1.3951,-1.3442,0.0,0.0,0.0,0.0,0.0,-1.1954,-1.181,0.0,-1.1946,-1.2028,-1.2273,0.0,0.0,0.0,0.0,0.0,0.0,0.0,0.0,0.0,0.0,0.0,0.0,0.0,0.0,0.0,-1.5493,-1.5208,-1.506,-1.5159,-1.4193,-1.3556,-1.3565,-1.3565,-1.3636,-1.3731,-1.4122,-1.4401,-1.4546,-1.4777,-1.5159,-1.5767,-1.6215,-1.6769,-1.7286,-1.7803,-1.8174,-1.8422,-1.8959,-1.9376,-1.9739,-2.0205,-2.0462,-2.0483,-2.0506,-2.0873,-2.1336,-2.1094,-2.1176,-2.1318,-0.3117,-0.3161,-0.315,-0.313,0.0,0.0,0.0,0.0,0.0,0.0,0.0,0.0,0.0,0.0,0.0,0.0,0.0,0.0,0.0,0.0,0.0,0.0,0.0,0.0,0.0,0.0,0.0,0.0,0.0,0.0,0.0,0.0,0.0,0.0,0.0,0.0,0.0,0.0,-1.0894,-1.1339,-1.1454,0.0,-1.226,-1.326,-1.3788,-1.4034,-1.4454,-1.4752,-1.4866,-1.4866,-1.4721,0.0,-1.461,-1.4488,-1.4174,-1.3342,-1.3247,-1.3256,0.0,0.0,-1.2001,-1.2001,-1.1782,0.0,0.0,-1.1891,-1.211,-1.2555,0.0,0.0,0.0,0.0,0.0,0.0,0.0,0.0,0.0,0.0,0.0,0.0,0.0,0.0,-1.5097,-1.4875,-1.4595,-1.4302,-1.3796,-1.3437,-1.3292,-1.3292,-1.3437,-1.369,-1.3968,-1.416,-1.4292,-1.485,-1.5307,-1.5769,-1.642,-1.7003,-1.742,-1.7843,-1.8174,-1.8422,-1.8907,-1.9324,-1.9724,-2.0138,-2.0359,-2.0483,-2.0427,-2.0646,-2.1026,-2.0848,-2.1096,-2.1393,-0.302,-0.3078,-0.3128,-0.3128,0.0,0.0,0.0,0.0,0.0,0.0,0.0,0.0,0.0,0.0,0.0,0.0,0.0,0.0,0.0,0.0,0.0,0.0,0.0,-0.7102,0.0,0.0,0.0,0.0,0.0,0.0,0.0,0.0,0.0,0.0,0.0,0.0,0.0,0.0,0.0,-1.2449,0.0,-1.2273,-1.2636,-1.34,-1.3913,-1.4323,-1.4546,-1.4715,-1.481,-1.4913,-1.4842,-1.4683,-1.467,-1.4667,0.0,0.0,0.0,0.0,0.0,-1.1891,-1.191,-1.2046,-1.1735,-1.1481,0.0,0.0,0.0,0.0,0.0,0.0,0.0,0.0,0.0,0.0,0.0,0.0,0.0,0.0,0.0,0.0,0.0,0.0,-1.464,-1.4399,-1.3981,-1.3465,-1.3371,-1.3276,-1.3069,-1.3128,-1.3392,-1.3883,-1.3931,-1.4064,-1.4292,-1.5072,-1.5595,-1.6023,-1.6743,-1.7279,-1.7635,-1.7911,-1.8227,-1.8422,-1.8855,-1.9272,-1.9724,-2.0034,-2.0308,-2.0483,-2.0427,-2.0582,-2.083,-2.0816,-2.1131,-2.1545,-0.2471,-0.2675,-0.2826,-0.2826,0.0,0.0,0.0,0.0,0.0,0.0,0.0,0.0,0.0,0.0,-0.5748,-0.6168,-0.7223,-0.7628,-0.7117,-0.7413,0.0,0.0,0.0,0.0,-0.8004,0.0,0.0,0.0,0.0,0.0,0.0,0.0,-0.9904,-1.0202,-1.0491,0.0,0.0,0.0,-1.1977,0.0,-1.3292,-1.3247,0.0,-1.396,-1.4317,-1.4409,-1.4754,-1.4716,-1.4501,0.0,-1.4735,-1.4261,0.0,-1.461,-1.4084,-1.3181,0.0,0.0,0.0,0.0,0.0,-1.2108,-1.1483,-1.1054,-1.1946,0.0,-1.1728,-1.1946,0.0,0.0,0.0,0.0,0.0,0.0,0.0,0.0,0.0,0.0,0.0,0.0,0.0,0.0,0.0,-1.4229,-1.3766,-1.3285,-1.2997,-1.287,-1.285,-1.3238,-1.359,-1.3883,-1.4112,-1.4256,-1.4292,-1.4839,-1.5407,-1.6023,-1.6484,-1.7029,-1.7635,-1.8108,-1.837,-1.8475,-1.9257,-1.9635,-1.9724,-2.0256,-2.0462,-2.0483,-2.0427,-2.0591,-2.088,-2.0813,-2.1195,-2.1676,-0.2326,-0.2471,-0.2574,-0.2574,0.0,0.0,0.0,0.0,0.0,0.0,0.0,0.0,0.0,-0.6336,-0.6646,-0.7107,-0.8561,-0.894,-0.7755,-0.8336,0.0,0.0,0.0,0.0,0.0,0.0,0.0,0.0,-0.8752,0.0,0.0,0.0,-0.9819,-0.9837,-1.0429,0.0,-1.2003,0.0,-1.2885,0.0,0.0,0.0,0.0,-1.49,-1.5074,-1.5103,-1.5082,-1.4846,-1.4618,0.0,-1.4741,0.0,0.0,0.0,0.0,-1.3306,0.0,0.0,0.0,0.0,0.0,0.0,0.0,0.0,-1.1324,-1.1466,-1.1618,-1.1728,0.0,0.0,0.0,0.0,0.0,0.0,-1.1416,0.0,0.0,0.0,0.0,0.0,0.0,0.0,0.0,0.0,0.0,-1.2812,-1.2516,-1.2505,-1.279,-1.2972,-1.3344,-1.3886,-1.4172,-1.4388,-1.4544,-1.5269,-1.5795,-1.6174,-1.704,-1.7527,-1.7635,-1.8384,-1.8593,-1.8422,-1.9168,-1.9635,-1.9931,-2.0189,-2.0462,-2.0755,-2.0715,-2.067,-2.0641,-2.0748,-2.098,-2.1193,-0.226,0.0,0.0,0.0,0.0,0.0,0.0,0.0,0.0,0.0,0.0,0.0,-0.7266,-0.7695,-0.7959,-0.8423,-0.9888,-1.0302,-0.909,-0.96,-1.0043,-1.0207,-0.9162,-0.8757,-0.9199,0.0,0.0,0.0,0.0,0.0,0.0,0.0,0.0,-0.9854,0.0,-1.1214,-1.2131,0.0,-1.3508,-1.4875,-1.5171,-1.5361,-1.5471,-1.5558,-1.5624,-1.5614,-1.5395,-1.5089,-1.4879,-1.5137,-1.4886,0.0,-1.4327,-1.4241,-1.3981,0.0,0.0,0.0,-1.3393,0.0,0.0,0.0,0.0,0.0,0.0,0.0,0.0,0.0,0.0,0.0,0.0,0.0,0.0,0.0,0.0,-1.1166,0.0,0.0,0.0,0.0,0.0,0.0,0.0,0.0,-1.2871,-1.219,-1.1977,-1.2057,-1.2496,-1.2686,-1.3123,-1.3859,-1.4207,-1.4496,-1.4688,-1.5477,-1.6006,-1.6325,-1.7309,-1.7748,-1.774,-1.8555,-1.8764,-1.8593,-1.9168,-1.9576,-1.9846,-2.0092,-2.04,-2.068,-2.0928,-2.0817,-2.0594,-2.0829,-2.0929,-2.0978,-0.2181,-0.218,0.0,0.0,0.0,0.0,0.0,0.0,0.0,0.0,0.0,-0.6848,-0.9664,-0.9871,-0.9995,-1.0491,-1.1286,-1.1681,-1.1509,-1.1152,-1.1193,-1.1689,-1.0638,-1.0013,-0.9954,-0.9986,0.0,0.0,0.0,0.0,0.0,0.0,0.0,0.0,0.0,-1.1166,-1.2031,-1.266,-1.3649,-1.4842,-1.5424,-1.5889,-1.6138,0.0,-1.5673,-1.5786,-1.5605,0.0,0.0,-1.5706,-1.5379,0.0,0.0,0.0,0.0,0.0,0.0,0.0,0.0,0.0,0.0,-1.3375,0.0,0.0,0.0,0.0,-1.1186,0.0,0.0,0.0,0.0,0.0,0.0,0.0,0.0,0.0,0.0,0.0,0.0,0.0,0.0,0.0,0.0,-1.226,-1.1948,-1.1492,-1.1357,-1.1456,-1.1693,-1.2428,-1.3135,-1.3894,-1.4409,-1.4688,-1.4688,-1.5226,-1.5765,-1.6325,-1.6841,-1.7456,-1.8016,-1.8608,-1.8869,-1.8921,-1.9428,-1.9493,-1.9274,-2.0118,-2.0327,-2.0097,-2.0934,-2.1113,-2.0909,-2.12,-2.1302,-2.1302,-0.3303,0.0,0.0,0.0,0.0,0.0,0.0,-0.4791,-0.5621,-0.6231,-0.6503,-0.7574,-1.0058,-1.0474,-1.065,-1.0853,-1.173,-1.2045,-1.1477,-1.1332,-1.1607,-1.2322,-1.1163,-1.0825,-1.1434,-1.0906,0.0,0.0,0.0,0.0,0.0,0.0,0.0,0.0,0.0,-1.0763,0.0,0.0,0.0,0.0,0.0,-1.606,-1.6333,0.0,-1.5874,-1.5873,-1.5904,-1.567,0.0,-1.5621,-1.5551,-1.5265,-1.5211,-1.5164,-1.5082,-1.4669,-1.4555,-1.4452,0.0,0.0,-1.4449,-1.4113,0.0,0.0,0.0,0.0,0.0,0.0,0.0,0.0,0.0,0.0,0.0,0.0,0.0,0.0,0.0,0.0,0.0,0.0,0.0,0.0,0.0,0.0,0.0,-1.1182,-1.0991,-1.1024,-1.1228,-1.1923,-1.2585,-1.3135,-1.4169,-1.4783,-1.4987,-1.5696,-1.6216,-1.6563,-1.7319,-1.7825,-1.8016,-1.8608,-1.8921,-1.8921,-1.9272,-1.9456,-1.9477,-2.0,-2.0245,-2.0332,-2.0833,-2.0976,-2.0925,-2.1216,-2.1181,-2.113,-0.4011,-0.3094,0.0,0.0,0.0,0.0,0.0,-0.62,-0.7274,-0.7913,-0.8107,-0.8895,-1.094,-1.1424,-1.1681,-1.1743,-1.2463,-1.2692,-1.2141,-1.2021,-1.2151,-1.2561,-1.1729,-1.1534,-1.2126,-1.1676,-1.1589,0.0,0.0,-1.0695,0.0,0.0,0.0,0.0,0.0,-1.0468,-1.0831,0.0,-1.3439,0.0,0.0,-1.6094,0.0,0.0,-1.6193,-1.6135,0.0,-1.5958,-1.5696,-1.5821,-1.5824,-1.5787,-1.5584,-1.5565,-1.5611,-1.5319,-1.5139,-1.5026,-1.509,-1.5127,0.0,-1.4547,-1.4436,0.0,-1.377,0.0,-1.343,0.0,0.0,0.0,0.0,0.0,0.0,0.0,0.0,0.0,0.0,-1.2078,0.0,0.0,0.0,0.0,0.0,0.0,-1.1554,-1.0926,-1.0776,-1.0766,0.0,-1.1745,-1.2415,-1.278,-1.4121,-1.4977,-1.5223,-1.5937,-1.646,-1.6874,-1.7609,-1.8011,-1.8016,-1.8608,-1.8921,-1.8921,-1.9272,-1.9382,-1.931,-1.9954,-2.0183,-2.0108,-2.0683,-2.0925,-2.0925,-2.1062,-2.113,-2.113,-0.4364,-0.3462,-0.2642,0.0,-0.4208,-0.5927,-0.6634,-0.7686,-0.8968,-1.0409,-1.028,-1.0712,-1.2357,-1.2748,-1.2949,-1.3105,-1.3352,-1.3483,-1.3415,-1.3029,-1.2692,-1.2582,-1.2226,-1.2133,-1.2149,-1.2133,-1.2258,-1.2481,0.0,0.0,0.0,0.0,0.0,0.0,-1.0257,0.0,-1.0609,-1.232,-1.3322,-1.392,-1.5565,-1.6151,-1.6011,-1.6284,-1.6442,-1.6508,-1.6298,-1.6257,-1.6401,-1.6253,-1.6178,-1.615,-1.6012,-1.5936,-1.5782,-1.5366,-1.5243,-1.5262,-1.54,-1.5473,-1.531,-1.4648,-1.4633,0.0,0.0,0.0,-1.3199,0.0,0.0,0.0,0.0,0.0,0.0,0.0,0.0,0.0,0.0,0.0,0.0,0.0,0.0,0.0,0.0,-1.1607,-1.1176,-1.0776,-1.0733,0.0,0.0,0.0,-1.2552,-1.2734,-1.4227,-1.521,-1.5464,-1.6042,-1.663,-1.723,-1.777,-1.8001,-1.8016,-1.8608,-1.8869,-1.8921,-1.9428,-1.9328,-1.884,-2.0046,-2.0124,-1.9677,-2.0553,-2.0925,-2.0925,-2.0925,-2.1078,-2.1318,-0.437,-0.3491,-0.2992,-0.3712,-0.4881,-0.6023,-0.6984,-0.7488,-0.8577,-1.0747,-1.0324,-1.0581,-1.272,-1.3206,-1.3406,-1.3498,-1.3408,-1.3064,-1.2643,-1.245,-1.224,-1.1907,-1.1864,-1.2187,-1.2838,-1.2496,-1.2666,-1.3432,0.0,0.0,-1.1455,0.0,0.0,0.0,0.0,0.0,-1.0088,-1.1761,-1.3356,-1.4827,-1.5812,-1.6238,-1.6225,0.0,-1.5891,-1.6067,-1.6252,-1.6288,-1.6253,-1.623,-1.6178,-1.6169,-1.6122,-1.5989,-1.5879,-1.5555,-1.5356,-1.5224,-1.5243,-1.5186,-1.5146,-1.5391,-1.5505,-1.5476,0.0,0.0,0.0,0.0,0.0,0.0,0.0,0.0,0.0,0.0,0.0,0.0,0.0,0.0,0.0,-1.2881,0.0,-1.1981,-1.2017,-1.1748,-1.1564,-1.1456,-1.1111,0.0,0.0,0.0,0.0,-1.2002,-1.3449,-1.4617,-1.5412,-1.6232,-1.6923,-1.7424,-1.7843,-1.8,-1.8016,-1.8384,-1.8646,-1.8921,-1.9272,-1.9499,-1.9706,-2.0291,-2.0518,-2.0488,-2.1004,-2.1078,-2.0925,-2.0925,-2.1078,-2.1318,-0.4708,-0.385,-0.3454,-0.4199,0.0,-0.6962,-0.8382,-0.914,-1.0228,-1.2182,-1.1477,-1.1431,-1.3202,-1.3655,-1.3839,-1.3632,-1.3748,-1.3504,-1.2678,-1.2656,-1.2594,-1.2397,-1.2121,-1.2409,-1.3344,-1.2844,-1.3006,-1.3738,0.0,0.0,-1.1325,0.0,0.0,0.0,0.0,-1.0025,0.0,-1.2078,-1.3713,-1.5063,-1.584,-1.6253,0.0,-1.599,-1.5891,-1.5999,-1.5999,-1.5863,-1.5763,-1.6108,-1.6108,-1.5966,-1.6108,-1.6037,-1.5889,-1.5689,-1.5404,-1.5233,-1.5233,-1.5148,-1.5092,-1.5471,-1.5644,-1.5701,-1.5522,-1.5553,-1.5375,0.0,-1.5103,-1.5277,0.0,0.0,0.0,0.0,0.0,0.0,0.0,0.0,0.0,0.0,-1.2552,-1.2204,-1.2287,-1.2037,-1.1897,-1.2015,-1.1456,0.0,0.0,0.0,0.0,-1.2048,-1.3391,-1.4613,-1.5779,-1.6572,-1.7218,-1.7658,-1.825,-1.8331,-1.7859,-1.8475,-1.875,-1.8698,-1.9116,-1.9354,-1.9527,-2.0118,-2.0448,-2.0666,-2.1374,-2.142,-2.113,-2.1318,-2.1522,-2.1674,-0.5369,-0.4567,-0.4187,0.0,0.0,0.0,-1.0048,-1.1251,0.0,-1.3875,0.0,-1.2613,-1.3729,-1.4145,-1.4168,-1.3671,-1.4136,-1.4079,-1.3085,-1.317,-1.3155,-1.3091,-1.265,-1.272,-1.3583,-1.3232,-1.323,-1.366,0.0,0.0,0.0,0.0,0.0,0.0,0.0,0.0,0.0,-1.2867,-1.4193,-1.4944,-1.5803,-1.6178,-1.6178,-1.6108,-1.6108,-1.5966,-1.5683,-1.5399,-1.5266,-1.5895,-1.5895,-1.5753,-1.6108,-1.6056,-1.5857,-1.5699,-1.5441,-1.5309,-1.5281,-1.5252,-1.5243,-1.5271,-1.5394,-1.5413,-1.5026,-1.5092,-1.511,-1.4913,-1.5202,-1.5463,0.0,0.0,0.0,0.0,0.0,0.0,0.0,0.0,0.0,0.0,0.0,0.0,-1.2807,-1.2338,-1.21,-1.24,0.0,0.0,0.0,0.0,0.0,-1.2495,-1.3634,-1.4905,-1.6254,-1.6886,-1.7424,-1.7955,-1.889,-1.8698,-1.7687,-1.8845,-1.8988,-1.8422,-1.9107,-1.9258,-1.9131,-1.9913,-2.0378,-2.073,-2.1745,-2.1827,-2.1471,-2.1979,-2.2182,-2.2232,-0.6358,-0.6088,0.0,0.0,0.0,-1.1067,-1.0601,-1.0722,-1.1691,-1.3785,-1.3148,-1.3044,-1.4338,-1.4361,-1.4384,-1.4553,-1.3949,0.0,-1.2848,-1.2642,-1.2343,-1.2147,-1.2485,-1.2835,-1.319,-1.3387,-1.3637,-1.401,0.0,0.0,0.0,0.0,0.0,0.0,0.0,0.0,-1.2298,-1.343,0.0,-1.5137,-1.5859,-1.6178,-1.6178,-1.5824,-1.547,-1.5257,-1.5541,-1.5753,-1.5966,-1.5753,-1.5895,-1.6108,-1.6178,-1.616,-1.6056,-1.5737,-1.5649,-1.5715,-1.5545,-1.5375,-1.5271,-1.546,-1.5394,-1.5224,-1.4988,-1.5092,-1.511,-1.4913,-1.4931,-1.5014,-1.5154,0.0,0.0,0.0,0.0,0.0,0.0,0.0,0.0,0.0,0.0,-1.2982,-1.3542,-1.2628,-1.2166,0.0,0.0,0.0,0.0,0.0,0.0,0.0,-1.3449,0.0,0.0,0.0,-1.7526,-1.8245,-1.8942,-1.8803,-1.7978,-1.9127,-1.9204,-1.8436,-1.9338,-2.0016,-2.0523,-2.0688,-2.1183,-2.1828,-2.2249,-2.2232,-2.1979,-2.2316,-2.2736,-2.302,-0.6427,0.0,0.0,0.0,0.0,0.0,0.0,-1.2304,-1.3349,-1.4425,-1.3626,-1.3491,-1.4782,-1.4618,-1.4477,-1.4403,-1.3865,-1.3408,-1.2934,-1.3099,-1.3223,-1.3126,-1.3296,-1.3509,-1.3744,-1.38,-1.3893,-1.3971,0.0,0.0,0.0,0.0,0.0,0.0,0.0,-1.209,0.0,0.0,0.0,-1.5183,-1.5658,-1.6037,-1.6108,-1.5541,-1.5399,-1.5612,-1.5399,-1.5683,-1.6178,-1.5966,-1.5895,-1.5895,-1.6108,-1.6103,-1.598,-1.5841,-1.5775,-1.5775,-1.5784,-1.5564,-1.5432,-1.5604,-1.5394,-1.5177,-1.4978,-1.4941,-1.5054,-1.495,-1.4866,-1.493,-1.5105,-1.482,0.0,0.0,0.0,0.0,0.0,0.0,-1.3538,0.0,0.0,0.0,0.0,0.0,0.0,0.0,0.0,0.0,0.0,0.0,0.0,0.0,0.0,0.0,0.0,0.0,0.0,-1.8103,-1.9192,-1.9205,-1.8227,-1.9594,-1.9917,-1.9558,-1.9735,-2.0355,-2.1215,-2.145,-2.1827,-2.2333,-2.2636,-2.2585,-2.2384,-2.2787,-2.3038,-2.307,-0.6999,-0.6938,0.0,0.0,-0.9724,-1.1746,-1.2318,-1.3976,-1.5187,-1.5041,-1.4357,-1.4228,-1.5222,-1.4877,-1.4497,-1.4132,-1.3893,-1.3566,-1.3178,-1.3636,-1.3941,-1.398,-1.3956,-1.4049,-1.4237,-1.4281,-1.4239,0.0,0.0,0.0,0.0,0.0,0.0,0.0,0.0,0.0,0.0,0.0,-1.5303,-1.5436,-1.568,-1.596,-1.6102,-1.5533,-1.5631,-1.6016,-1.5435,-1.5639,-1.6174,-1.6197,-1.5966,-1.5753,-1.6108,-1.6065,-1.5993,-1.5946,-1.5851,-1.5706,-1.5851,-1.5746,-1.5623,-1.5498,-1.5328,-1.5063,-1.4969,-1.4866,-1.4866,-1.4866,-1.4866,-1.493,-1.5105,-1.4928,0.0,0.0,0.0,0.0,0.0,0.0,-1.3715,0.0,0.0,0.0,-1.3907,0.0,0.0,0.0,0.0,0.0,-1.2568,0.0,0.0,0.0,0.0,-1.5833,-1.6683,0.0,-1.8398,-1.8215,-1.9583,-1.968,-1.8698,-2.0121,-2.0612,-2.034,-2.0332,-2.0931,-2.1872,-2.2282,-2.2535,-2.2736,-2.3038,-2.2987,-2.2736,-2.3306,-2.3338,-2.3088,0.0,0.0,0.0,0.0,0.0,-1.4258,-1.3144,-1.4284,-1.5236,-1.5212,-1.5255,-1.5416,-1.5699,-1.4996,-1.4571,-1.4631,-1.3941,-1.348,-1.3736,-1.3424,-1.3244,-1.3184,-1.3689,-1.3841,-1.3596,-1.4489,-1.4935,0.0,0.0,-1.3169,0.0,0.0,0.0,0.0,0.0,0.0,0.0,-1.5609,-1.5942,-1.6396,-1.6434,-1.6246,-1.5957,-1.6237,-1.6067,-1.5674,-1.5963,-1.6016,-1.593,-1.6102,-1.6178,-1.6178,-1.6178,-1.6169,-1.6112,-1.5914,-1.5989,-1.6046,-1.5756,-1.5642,-1.5517,-1.5309,-1.5111,-1.4894,-1.4875,-1.4866,-1.4866,-1.4866,-1.4866,-1.493,-1.5105,-1.5167,-1.5094,0.0,0.0,0.0,0.0,0.0,-1.4129,-1.3931,0.0,0.0,-1.4136,-1.3701,0.0,0.0,-1.3237,0.0,0.0,0.0,0.0,-1.4574,0.0,-1.6811,-1.7036,-1.8477,-1.9155,-1.9078,-2.0082,-2.0219,-1.9635,-2.082,-2.0647,-1.9501,-2.1359,-2.2461,-2.2997,-2.3447,-2.3506,-2.3338,-2.3605,-2.3555,-2.3356,-2.3655,-2.3755,-2.3755,0.0,0.0,0.0,0.0,0.0,0.0,0.0,-1.4875,-1.548,-1.5268,-1.5398,-1.5585,-1.5756,-1.5213,-1.4792,-1.4754,-1.4356,-1.3937,-1.3742,-1.3982,-1.4112,-1.3971,-1.4501,-1.4548,-1.4176,-1.4676,-1.4891,0.0,0.0,0.0,0.0,0.0,0.0,0.0,0.0,-1.5747,-1.6339,-1.6339,-1.6383,-1.649,-1.6395,-1.6304,-1.6202,-1.5976,-1.5958,-1.614,-1.5926,-1.5951,-1.6078,-1.6136,-1.6178,-1.6178,-1.6178,-1.6178,-1.6169,-1.6075,-1.6112,-1.6122,-1.5889,-1.5718,-1.5508,-1.529,-1.5082,-1.4866,-1.4866,-1.4866,-1.4866,-1.4866,-1.4866,-1.4912,-1.4947,-1.4979,-1.4896,-1.4528,0.0,0.0,0.0,0.0,0.0,-1.4113,0.0,-1.4097,-1.4409,-1.4259,0.0,0.0,0.0,0.0,0.0,0.0,0.0,-1.4949,0.0,-1.7108,-1.7099,-1.8161,-1.8645,-1.8482,-1.9523,-1.9911,-1.9739,-2.0872,-2.1323,-2.1243,-2.3181,-2.3648,-2.3117,-2.3713,-2.372,-2.3406,-2.3506,-2.3506,-2.3456,-2.3705,-2.3805,-2.3854,-1.1315,0.0,-1.11,0.0,-1.2946,-1.3573,-1.4397,-1.5224,-1.5699,-1.5504,-1.5593,-1.5715,-1.5837,-1.5446,-1.5035,-1.4491,-1.4421,-1.4134,-1.3619,-1.4162,-1.4561,-1.4548,-1.4821,0.0,-1.4307,-1.4769,-1.479,-1.4291,-1.479,0.0,0.0,0.0,0.0,0.0,-1.5913,-1.6488,-1.6982,-1.6916,-1.6802,-1.6679,-1.6527,-1.6508,-1.6451,-1.6086,-1.6159,-1.6414,-1.6,-1.605,-1.6264,-1.6207,-1.6178,-1.6178,-1.6178,-1.6178,-1.6178,-1.6178,-1.6178,-1.6122,-1.5848,-1.5737,-1.5489,-1.5215,-1.5035,-1.4866,-1.4866,-1.4866,-1.4866,-1.4866,-1.4866,-1.4866,-1.4866,-1.4904,-1.4837,-1.4674,0.0,0.0,0.0,-1.4543,0.0,-1.4362,-1.4325,-1.4441,-1.4838,-1.4806,0.0,0.0,0.0,0.0,0.0,0.0,0.0,0.0,0.0,0.0,-1.7371,-1.8447,-1.8812,-1.8522,-1.9608,-2.0023,-1.9946,-2.0919,-2.195,-2.3081,-2.4034,-2.4122,-2.3598,-2.3919,-2.3907,-2.3655,-2.3655,-2.3605,-2.3555,-2.3805,-2.3805,-2.3755,-1.203,-1.2143,-1.2464,-1.3091,-1.3505,-1.3874,-1.4109,-1.5058,-1.5837,-1.5933,-1.5958,-1.5958,-1.5958,-1.5628,-1.4914,-1.3778,-1.3989,-1.3936,-1.3218,-1.3745,-1.4157,0.0,0.0,-1.4299,-1.3657,-1.4497,-1.4726,-1.4104,0.0,0.0,-1.321,0.0,-1.4846,-1.5771,-1.6841,-1.7416,-1.7407,-1.719,-1.7095,-1.7095,-1.7095,-1.688,-1.6505,-1.6946,-1.688,-1.6534,-1.6487,-1.6481,-1.6443,-1.6254,-1.6178,-1.6178,-1.6178,-1.6178,-1.6178,-1.6178,-1.6178,-1.6093,-1.5678,-1.5632,-1.546,-1.5044,-1.4866,-1.4866,-1.4866,-1.4866,-1.4866,-1.4866,-1.4866,-1.4866,-1.4866,-1.501,-1.5116,-1.5275,0.0,0.0,0.0,-1.4862,0.0,-1.4612,-1.4436,-1.4632,-1.543,-1.5233,0.0,0.0,0.0,0.0,0.0,0.0,0.0,-1.696,-1.8018,0.0,-1.8016,-1.9725,-2.0264,-1.9701,-2.0602,-2.0849,-2.0514,-2.1027,-2.2431,-2.4403,-2.3388,-2.3637,-2.4757,-2.4385,-2.4202,-2.4202,-2.4202,-2.4053,-2.3854,-2.4102,-2.3854,-2.3506,-1.2814,-1.3012,-1.3454,-1.4144,-1.4487,-1.4748,-1.4798,-1.549,-1.5894,-1.5707,-1.5894,-1.5966,-1.5966,-1.5883,-1.5575,0.0,-1.5136,-1.4931,0.0,-1.4205,-1.4359,-1.415,-1.4322,-1.4446,-1.4291,-1.4769,-1.4935,-1.4726,0.0,0.0,0.0,-1.5913,-1.6325,-1.685,-1.7217,-1.7426,-1.7426,-1.735,-1.7237,-1.7114,-1.7265,-1.7161,-1.688,-1.703,-1.6945,-1.6721,-1.6585,-1.6396,-1.6264,-1.6207,-1.6178,-1.6178,-1.6178,-1.6178,-1.6178,-1.6178,-1.6178,-1.6122,-1.5908,-1.5737,-1.5489,-1.5205,-1.4969,-1.4866,-1.4866,-1.4866,-1.4866,-1.4866,-1.4866,-1.4866,-1.4866,-1.5019,-1.5062,-1.4972,-1.5187,0.0,-1.5019,0.0,-1.5043,-1.4886,-1.4707,-1.4913,-1.5688,-1.5531,0.0,0.0,0.0,0.0,0.0,0.0,0.0,0.0,-1.8015,0.0,-1.8347,-1.9084,-1.9509,-1.9736,-2.0214,-2.081,-2.1462,-2.2038,-2.3005,-2.4246,-2.4333,-2.4578,-2.4869,-2.5013,-2.4657,-2.405,-2.4422,-2.4309,-2.3854,-2.4102,-2.4102,-2.399,-1.3347,-1.3188,-1.3289,-1.4206,-1.4479,-1.4639,-1.49,-1.5497,-1.5885,-1.5748,-1.591,-1.5966,-1.5966,-1.5966,0.0,-1.5146,-1.5449,-1.5186,-1.4011,-1.4375,-1.4584,-1.4415,-1.4553,-1.4672,-1.4703,-1.4837,0.0,-1.4737,-1.5198,-1.5735,-1.6348,-1.6348,-1.6577,-1.6968,-1.7121,-1.7197,-1.7197,-1.735,-1.735,-1.7237,-1.7369,-1.7341,-1.7227,-1.7227,-1.7048,-1.6783,-1.6651,-1.6424,-1.6178,-1.6178,-1.6178,-1.6178,-1.6178,-1.6178,-1.6178,-1.6178,-1.6178,-1.6131,-1.5923,-1.5841,-1.5621,-1.5413,-1.5196,-1.496,-1.495,-1.4866,-1.4866,-1.4866,-1.4866,-1.4931,-1.5071,-1.5216,-1.5224,-1.517,-1.5443,-1.55,-1.5157,0.0,-1.5311,0.0,0.0,0.0,0.0,-1.6258,-1.6599,0.0,0.0,0.0,0.0,0.0,0.0,-1.7834,-1.839,-1.8737,-1.8847,-1.925,-1.9528,-1.9722,-2.0131,-2.101,-2.2274,-2.2633,-2.3349,-2.4297,-2.4527,-2.472,-2.4893,-2.5145,-2.477,-2.4094,-2.4623,-2.4469,-2.3954,-2.4152,-2.4152,-2.4108,-1.3446,-1.2732,-1.2324,0.0,-1.3778,-1.3946,-1.4426,-1.5341,-1.5966,-1.5966,-1.5966,-1.5966,-1.5966,-1.5966,-1.5583,-1.4616,0.0,0.0,-1.3562,-1.432,-1.488,-1.4962,-1.5043,-1.5038,-1.4795,-1.4875,-1.4719,-1.44,-1.4761,-1.5138,-1.5607,-1.559,-1.582,-1.6203,-1.6577,-1.6806,-1.6806,-1.7197,-1.735,-1.7426,-1.7426,-1.7426,-1.7426,-1.7426,-1.7171,-1.6802,-1.6802,-1.6538,-1.6178,-1.6178,-1.6178,-1.6178,-1.6178,-1.6178,-1.6178,-1.6178,-1.6178,-1.6141,-1.5933,-1.5946,-1.5889,-1.5699,-1.5413,-1.5205,-1.4997,-1.495,-1.495,-1.4866,-1.4866,-1.4996,-1.5398,-1.5528,-1.5574,-1.5753,-1.5805,-1.5761,-1.5645,-1.5511,-1.5452,0.0,0.0,0.0,-1.6853,-1.7338,-1.7763,0.0,0.0,0.0,0.0,0.0,-1.8634,-1.8436,-1.9,-1.9358,-1.9427,-2.0019,-2.0188,-1.9921,-2.0398,-2.1456,-2.2889,-2.2739,-2.3334,-2.452,-2.4087,-2.431,-2.4929,-2.4947,-2.4731,-2.444,-2.4714,-2.4592,-2.4257,-2.4225,-2.4058,-2.3963,0.0,0.0,-1.3152,-1.3917,-1.4273,-1.4601,-1.5093,-1.5663,-1.5966,-1.5966,-1.5966,-1.5966,-1.5966,-1.5966,-1.5925,-1.5599,-1.5755,-1.5486,-1.446,-1.4865,-1.4673,-1.3661,-1.4516,-1.4594,-1.3909,-1.4875,-1.5154,-1.4671,-1.4382,-1.4633,-1.5327,-1.5187,-1.5505,-1.6203,-1.628,-1.651,-1.6806,-1.6883,-1.7121,-1.7426,-1.7426,-1.7426,-1.7426,-1.7426,-1.7171,-1.6802,-1.6802,-1.6538,-1.6178,-1.6178,-1.6178,-1.6178,-1.6178,-1.6178,-1.6178,-1.6178,-1.6178,-1.6169,-1.6122,-1.5989,-1.5917,-1.587,-1.5699,-1.5422,-1.5215,-1.5158,-1.512,-1.4903,-1.4866,-1.4996,-1.5398,-1.5724,-1.5832,-1.5815,-1.6002,-1.6075,-1.5711,-1.5816,-1.6034,0.0,-1.6704,-1.7109,-1.7715,-1.79,-1.8063,0.0,0.0,0.0,-1.8605,-1.9189,-1.9492,-1.9372,-1.9578,-1.9612,-1.9427,-1.9989,-2.0444,-2.0818,-2.1188,-2.1797,-2.2576,-2.2468,-2.293,-2.3925,-2.3804,-2.4245,-2.5094,-2.5397,-2.5398,-2.5217,-2.5323,-2.5045,-2.4666,-2.4703,-2.4681,-2.4637,-1.303,-1.3119,-1.3384,-1.3955,-1.439,-1.4878,-1.5298,-1.5711,-1.5966,-1.5966,-1.5966,-1.5966,-1.5966,-1.5883,-1.5719,-1.5719,-1.5883,-1.5711,-1.5051,-1.4959,-1.4743,-1.4259,-1.4578,-1.4777,-1.4695,-1.5189,-1.5231,-1.467,-1.4189,-1.4226,-1.461,-1.4671,-1.5053,-1.5667,-1.605,-1.6433,-1.6806,-1.6806,-1.6959,-1.7121,-1.7121,-1.7121,-1.7121,-1.735,-1.7171,-1.6802,-1.6582,-1.6393,-1.6178,-1.5966,-1.6037,-1.6178,-1.6178,-1.6178,-1.6178,-1.6178,-1.6178,-1.6178,-1.6178,-1.6093,-1.605,-1.5955,-1.5851,-1.564,-1.5432,-1.5309,-1.5205,-1.5092,-1.5128,-1.5267,-1.5658,-1.5974,-1.6154,-1.6076,-1.6215,-1.6178,-1.5787,-1.6069,-1.6466,-1.6662,-1.7197,-1.7779,-1.8229,-1.8516,-1.8655,-1.8704,-1.9079,0.0,-1.8933,-1.9459,-1.9752,-1.9552,-1.9975,-1.9991,-1.9576,-1.9899,-2.0358,-2.0925,-2.1376,-2.2009,-2.272,-2.2737,-2.3315,-2.4179,-2.3985,-2.436,-2.516,-2.5371,-2.5339,-2.5111,-2.538,-2.5214,-2.4863,-2.4907,-2.4905,-2.4866,-1.3146,-1.3173,-1.3384,-1.3873,-1.4307,-1.4796,-1.5216,-1.5628,-1.5883,-1.5883,-1.5966,-1.5966,-1.5801,-1.5546,-1.5381,-1.5298,-1.5628,-1.5628,-1.5216,-1.4968,-1.4886,-1.5051,-1.4803,-1.4961,-1.5554,-1.5298,-1.49,-1.4519,-1.4214,-1.405,-1.4106,-1.4478,-1.4846,-1.5198,-1.5897,-1.6357,-1.673,-1.673,-1.673,-1.6806,-1.673,-1.673,-1.6806,-1.7197,-1.702,-1.6582,-1.6278,-1.6094,-1.5966,-1.5683,-1.5824,-1.6108,-1.6178,-1.6178,-1.6178,-1.6178,-1.6178,-1.6178,-1.6178,-1.6178,-1.6141,-1.6021,-1.5984,-1.5927,-1.5718,-1.5441,-1.5271,-1.5243,-1.5402,-1.5658,-1.6039,-1.6364,-1.654,-1.645,-1.6508,-1.6369,-1.5892,0.0,-1.6859,-1.6879,-1.7622,-1.83,-1.8586,-1.9039,-1.9194,-1.9011,-1.9442,-1.9647,-1.9459,-1.9706,-1.9814,-1.9609,-2.0344,-2.0458,-1.9924,-1.9924,-2.0155,-2.0773,-2.136,-2.2116,-2.3006,-2.3194,-2.3778,-2.4706,-2.4347,-2.46,-2.5221,-2.5221,-2.5029,-2.4804,-2.5254,-2.5218,-2.493,-2.4932,-2.4966,-2.4966,-1.3146,-1.3173,-1.3302,-1.3459,-1.3901,-1.4315,-1.4713,-1.5216,-1.5463,-1.5463,-1.5801,-1.5711,-1.4961,-1.5216,-1.5216,-1.4878,-1.4878,-1.4721,-1.4315,-1.4886,-1.4803,-1.3728,-1.439,-1.439,-1.3811,-1.3728,-1.4045,-1.4676,-1.4482,-1.4486,-1.4669,-1.5355,-1.5812,-1.605,-1.6127,-1.6203,-1.628,-1.628,-1.651,-1.6806,-1.6433,-1.651,-1.6806,-1.6883,-1.6409,-1.5845,-1.6131,-1.5732,-1.5266,-1.5532,-1.5603,-1.5744,-1.6108,-1.6178,-1.6178,-1.6178,-1.6178,-1.6178,-1.6178,-1.6178,-1.6178,-1.6141,-1.6131,-1.6075,-1.5936,-1.5727,-1.546,-1.5271,-1.56,-1.6039,-1.6364,-1.6688,-1.6979,-1.7134,-1.7083,-1.6922,-1.6541,0.0,-1.7724,-1.7799,-1.8359,-1.8874,-1.9234,-1.9332,-1.9345,-1.9305,-1.9403,-1.955,-1.9743,-2.0056,-2.03,-2.0473,-2.0644,-2.0673,-2.0544,-2.0328,-2.05,-2.1146,-2.1489,-2.2173,-2.3006,-2.2973,-2.3502,-2.4462,-2.4292,-2.46,-2.5221,-2.5221,-2.5313,-2.548,-2.5316,-2.5179,-2.5058,-2.516,-2.5126,-2.5129,-1.3281,-1.3295,-1.3315,-1.339,-1.3818,-1.4149,-1.4307,-1.4721,-1.5043,-1.5043,-1.5216,-1.5133,-1.4713,-1.4721,-1.4638,-1.439,-1.4548,-1.4555,-1.4149,-1.4638,-1.4721,-1.4142,-1.4465,-1.4638,-1.4473,-1.4721,-1.4968,-1.5381,-1.5283,-1.5239,-1.5321,-1.5752,-1.6043,-1.6353,-1.6247,-1.6357,-1.651,-1.628,-1.628,-1.6433,-1.628,-1.628,-1.651,-1.673,-1.6334,-1.5624,-1.5836,-1.5514,-1.5052,-1.5186,-1.5399,-1.5673,-1.6037,-1.6178,-1.6178,-1.6178,-1.6178,-1.6178,-1.6178,-1.6178,-1.6178,-1.6178,-1.6178,-1.616,-1.6056,-1.5791,-1.5604,-1.5702,-1.5886,-1.6169,-1.6688,-1.7012,-1.7363,-1.7568,-1.7544,0.0,-1.7165,-1.7753,-1.825,-1.8249,-1.8769,-1.9301,-1.9591,-1.9649,-1.9649,-1.9649,-1.9649,-1.9764,-2.004,-1.9938,-2.0169,-2.096,-2.0673,-2.0544,-2.0716,-2.0443,-2.05,-2.096,-2.1432,-2.2093,-2.2777,-2.2758,-2.3368,-2.4371,-2.4156,-2.4522,-2.5328,-2.5328,-2.5384,-2.5569,-2.5778,-2.5538,-2.5211,-2.5677,-2.566,-2.5453,-1.3403,-1.3403,-1.3403,-1.3403,-1.3735,-1.3983,-1.4066,-1.439,-1.4555,-1.4555,-1.4631,-1.4631,-1.4383,-1.4232,-1.4066,-1.3983,-1.4307,-1.439,-1.4149,-1.4473,-1.4631,-1.4555,-1.4631,-1.4878,-1.5216,-1.5628,-1.5883,-1.5966,-1.5984,-1.5975,-1.5926,-1.6151,-1.6364,-1.6476,-1.6291,-1.6357,-1.6501,-1.6203,-1.605,-1.605,-1.5974,-1.5974,-1.6127,-1.6424,-1.6033,-1.5328,-1.5467,-1.5223,-1.4759,-1.4839,-1.5115,-1.5461,-1.5895,-1.6037,-1.6108,-1.6178,-1.6178,-1.6178,-1.6178,-1.6178,-1.6178,-1.6178,-1.6178,-1.6249,-1.632,-1.5927,-1.57,-1.6108,-1.6155,-1.6299,-1.7001,-1.74,-1.7682,-1.7866,0.0,-1.7959,-1.7712,-1.8269,-1.8669,-1.8612,-1.9052,-1.9475,-1.9707,-1.9707,-1.9707,-1.9707,-1.9707,-1.988,-2.0155,-1.9891,-2.025,-2.138,-2.0888,-2.0729,-2.0946,-2.08,-2.08,-2.0946,-2.1435,-2.1985,-2.2498,-2.2466,-2.3042,-2.4048,-2.3829,-2.4178,-2.4966,-2.4966,-2.499,-2.5013,-2.5598,-2.54,-2.4889,-2.5611,-2.568,-2.5417,-1.3403,-1.3403,-1.3403,-1.3403,-1.3403,-1.3569,-1.4066,-1.4149,-1.4149,-1.4149,-1.4473,-1.4383,-1.3562,-1.3901,-1.3901,-1.3486,-1.3901,-1.4149,-1.4066,-1.4473,-1.4555,-1.4149,-1.4473,-1.4713,-1.4713,-1.5216,-1.5628,-1.5966,-1.6435,-1.6506,-1.6338,-1.7013,-1.7045,-1.6476,-1.6291,-1.5974,-1.5659,-1.5667,-1.5659,-1.559,-1.5275,-1.5275,-1.5659,-1.5659,-1.5203,-1.458,-1.4958,-1.4642,-1.4047,-1.4403,-1.4546,-1.4688,-1.539,-1.5603,-1.5744,-1.6108,-1.6178,-1.6178,-1.6178,-1.6178,-1.6178,-1.6178,-1.6178,-1.6249,-1.6593,-1.6125,-1.5759,-1.6438,-1.6486,-1.6699,-1.7335,-1.7723,-1.8001,-1.8249,0.0,0.0,-1.8009,-1.8752,-1.9216,-1.89,-1.9171,-1.943,-1.943,-1.943,-1.943,-1.943,-1.943,-1.9533,-1.9809,-2.0375,-2.114,-2.2111,-2.1759,-2.1598,-2.1657,-2.1905,-2.1905,-2.1657,-2.1657,-2.1859,-2.2146,-2.2131,-2.2471,-2.3068,-2.311,-2.3282,-2.3638,-2.3638,-2.3641,-2.3693,-2.4045,-2.3949,-2.3662,-2.4045,-2.4333,-2.4535,-1.3526,-1.3546,-1.3566,-1.3654,-1.3675,-1.3675,-1.3928,-1.3928,-1.3928,-1.3928,-1.393,-1.3874,-1.3539,-1.3624,-1.3569,-1.3403,-1.4059,-1.4434,-1.4202,-1.4524,-1.4631,-1.4473,-1.4631,-1.4878,-1.5133,-1.6122,-1.6706,-1.6871,-1.7609,-1.7728,-1.7403,-1.7403,-1.7126,-1.666,-1.6112,-1.5744,-1.5582,-1.5582,-1.5582,-1.5582,-1.5429,-1.5429,-1.5582,-1.5582,-1.5202,-1.4661,-1.5,-1.4652,-1.4131,-1.4659,-1.4839,-1.4972,-1.5753,-1.5966,-1.5966,-1.6178,-1.6178,-1.6178,-1.6178,-1.6178,-1.6178,-1.6178,-1.6178,-1.632,-1.6593,-1.6263,-1.6108,-1.6855,-1.6883,-1.7012,-1.7723,-1.8109,-1.8581,-1.91,0.0,-1.9333,-1.9361,-1.9668,-1.9847,-1.9714,-1.9834,-1.9966,-2.0205,-1.9865,-1.9757,-1.9933,-1.9979,-1.9979,-2.0096,-2.0676,-2.1215,-2.1566,-2.1831,-2.1993,-2.1993,-2.2125,-2.2125,-2.1993,-2.1993,-2.2142,-2.2364,-2.2245,-2.2556,-2.3319,-2.3135,-2.3582,-2.4432,-2.4432,-2.4412,-2.451,-2.5044,-2.4714,-2.3885,-2.4695,-2.4743,-2.4464,-1.3668,-1.3695,-1.3729,-1.3824,-1.3838,-1.3824,-1.3783,-1.3777,-1.3777,-1.3777,-1.3688,-1.3648,-1.3688,-1.36,-1.3519,-1.3478,-1.418,-1.4558,-1.4287,-1.4438,-1.4524,-1.4473,-1.4796,-1.5051,-1.5381,-1.6706,-1.7363,-1.7191,-1.7937,-1.8019,-1.7592,-1.7262,-1.6836,-1.6378,-1.58,-1.5502,-1.5443,-1.5502,-1.5493,-1.5443,-1.5443,-1.5487,-1.5429,-1.5429,-1.5091,-1.4759,-1.4951,-1.4694,-1.4293,-1.4828,-1.491,-1.4981,-1.5753,-1.6108,-1.6197,-1.6254,-1.6235,-1.6178,-1.6178,-1.6249,-1.632,-1.6249,-1.6178,-1.632,-1.6805,-1.6481,-1.6312,-1.7193,-1.7148,-1.7195,-1.7905,-1.8302,-1.8808,-1.9425,-1.9624,-1.9784,-2.0037,-2.018,-2.0167,-2.0167,-2.0167,-2.0288,-2.053,-2.0174,-1.9993,-2.0232,-2.0291,-2.0392,-2.0727,-2.1002,-2.1387,-2.1752,-2.2122,-2.2374,-2.2476,-2.2476,-2.2418,-2.233,-2.233,-2.2374,-2.2476,-2.2271,-2.2465,-2.2913,-2.2826,-2.3338,-2.4236,-2.4374,-2.4493,-2.4595,-2.5266,-2.4677,-2.3696,-2.4637,-2.4577,-2.4024,-1.3817,-1.3844,-1.3844,-1.3759,-1.3759,-1.3797,-1.3654,-1.3634,-1.3634,-1.3634,-1.3634,-1.3682,-1.3824,-1.3838,-1.3783,-1.3641,-1.4188,-1.4465,-1.4301,-1.4294,-1.4223,-1.4073,-1.4893,-1.5381,-1.5381,-1.6706,-1.7191,-1.6698,-1.7191,-1.7191,-1.6689,-1.6512,-1.6085,-1.552,-1.5512,-1.5415,-1.5252,-1.5439,-1.5407,-1.5236,-1.5236,-1.513,-1.4968,-1.4968,-1.4862,-1.4759,-1.4951,-1.4694,-1.4301,-1.4828,-1.4768,-1.4617,-1.5399,-1.5895,-1.6226,-1.6424,-1.6339,-1.6178,-1.6178,-1.6452,-1.6593,-1.6249,-1.6178,-1.6391,-1.7097,-1.6698,-1.638,-1.7453,-1.7335,-1.7195,-1.7905,-1.8302,-1.8744,-1.9161,-1.9499,-1.9722,-1.9807,-2.0059,-2.0241,-2.0241,-2.0241,-2.0241,-2.0241,-2.0241,-2.018,-2.018,-2.018,-2.0666,-2.1642,-2.1362,-2.1779,-2.3029,-2.2798,-2.2769,-2.3106,-2.3106,-2.2945,-2.2623,-2.2623,-2.2476,-2.2184,-2.2184,-2.1982,-2.1642,-2.1963,-2.2319,-2.262,-2.2981,-2.3301,-2.3642,-2.3978,-2.3471,-2.2681,-2.3375,-2.3432,-2.312,-1.3973,-1.4,-1.4034,-1.4143,-1.4163,-1.4116,-1.396,-1.3939,-1.3899,-1.379,-1.3777,-1.379,-1.3838,-1.3838,-1.3824,-1.3783,-1.4508,-1.4942,-1.489,-1.4288,-1.4133,-1.4649,-1.478,-1.5216,-1.5793,-1.6213,-1.6534,-1.6698,-1.6862,-1.6862,-1.6689,-1.6512,-1.6151,-1.5691,-1.5569,-1.5488,-1.5439,-1.5496,-1.5407,-1.5236,-1.5236,-1.513,-1.4968,-1.4968,-1.4935,-1.4939,-1.5136,-1.5026,-1.4866,-1.5611,-1.565,-1.5561,-1.6203,-1.6437,-1.6405,-1.6462,-1.6339,-1.6178,-1.6178,-1.6249,-1.632,-1.6249,-1.6603,-1.7026,-1.7238,-1.7103,-1.7125,-1.7868,-1.7862,-1.784,-1.8302,-1.8699,-1.9112,-1.9738,-1.9916,-2.0143,-2.0618,-2.0793,-2.0842,-2.0842,-2.0842,-2.0842,-2.0842,-2.0668,-2.0548,-2.0548,-2.0548,-2.0978,-2.195,-2.1437,-2.1402,-2.2029,-2.2176,-2.2299,-2.24,-2.2864,-2.3062,-2.2959,-2.2959,-2.2792,-2.2457,-2.2457,-2.2267,-2.1978,-2.2328,-2.2786,-2.333,-2.3647,-2.4164,-2.465,-2.4779,-2.448,-2.4044,-2.4212,-2.4114,-2.3793,-1.4129,-1.4163,-1.419,-1.4285,-1.4299,-1.4251,-1.4095,-1.4021,-1.3946,-1.3851,-1.3838,-1.3865,-1.4184,-1.4073,-1.4087,-1.4198,-1.4535,-1.483,-1.4801,-1.4226,-1.4235,-1.5075,-1.4853,-1.5119,-1.5719,-1.603,-1.603,-1.5867,-1.6114,-1.6205,-1.6196,-1.6098,-1.5926,-1.5772,-1.574,-1.5683,-1.5626,-1.5691,-1.5618,-1.5447,-1.5374,-1.5236,-1.5065,-1.4992,-1.4968,-1.502,-1.5446,-1.5377,-1.5274,-1.6158,-1.6351,-1.6359,-1.6785,-1.6774,-1.6604,-1.6604,-1.6606,-1.6496,-1.641,-1.6532,-1.6603,-1.6461,-1.6744,-1.7087,-1.7238,-1.7241,-1.7328,-1.7868,-1.7993,-1.8033,-1.8302,-1.8752,-1.9328,-1.9979,-2.0106,-2.0361,-2.0982,-2.1109,-2.1109,-2.1109,-2.1109,-2.1109,-2.1109,-2.0949,-2.0842,-2.0842,-2.0842,-2.1235,-2.2041,-2.1562,-2.1514,-2.1948,-2.2196,-2.2319,-2.2319,-2.2817,-2.3179,-2.3296,-2.3296,-2.318,-2.2978,-2.2978,-2.2723,-2.229,-2.2742,-2.32,-2.3586,-2.4114,-2.4555,-2.4899,-2.5022,-2.4747,-2.4216,-2.4476,-2.4281,-2.3956,-1.4272,-1.4299,-1.4299,-1.4299,-1.4299,-1.4251,-1.4095,-1.3953,-1.3858,-1.3844,-1.3851,-1.4091,-1.467,-1.4474,-1.4421,-1.4807,-1.4444,-1.4237,-1.438,-1.4156,-1.4503,-1.5364,-1.5083,-1.5013,-1.5345,-1.5878,-1.5695,-1.4713,-1.5051,-1.5298,-1.5298,-1.5298,-1.5459,-1.5804,-1.5885,-1.5869,-1.5813,-1.5975,-1.5943,-1.5756,-1.5601,-1.5415,-1.522,-1.5057,-1.4984,-1.5097,-1.569,-1.5697,-1.5494,-1.6518,-1.684,-1.6887,-1.7076,-1.6991,-1.6904,-1.6831,-1.6981,-1.7119,-1.6822,-1.6996,-1.7218,-1.6815,-1.6744,-1.6895,-1.7238,-1.7241,-1.7328,-1.7655,-1.7862,-1.8033,-1.8033,-1.8623,-1.9328,-1.9979,-2.0106,-2.0297,-2.0982,-2.1109,-2.1109,-2.1109,-2.1109,-2.1109,-2.1109,-2.1109,-2.1109,-2.1109,-2.1109,-2.1362,-2.1978,-2.174,-2.1853,-2.248,-2.2543,-2.2543,-2.2606,-2.2947,-2.3296,-2.3588,-2.3588,-2.3571,-2.3485,-2.3485,-2.3093,-2.2504,-2.3121,-2.3397,-2.3528,-2.4245,-2.4535,-2.4615,-2.4925,-2.4535,-2.3767,-2.4435,-2.4239,-2.3782,-1.4292,-1.4299,-1.4299,-1.4299,-1.4299,-1.4251,-1.4095,-1.4041,-1.398,-1.3858,-1.3946,-1.4121,-1.4242,-1.4299,-1.4462,-1.4949,-1.4854,-1.478,-1.4815,-1.4419,-1.4503,-1.5364,-1.5046,-1.4936,-1.52,-1.5135,-1.4916,-1.4713,-1.4473,-1.4555,-1.4878,-1.4878,-1.511,-1.5491,-1.553,-1.5695,-1.5991,-1.6032,-1.5943,-1.5772,-1.5731,-1.5528,-1.5236,-1.5195,-1.509,-1.5113,-1.5845,-1.5961,-1.5896,-1.6759,-1.7152,-1.7303,-1.7341,-1.7444,-1.7421,-1.7113,-1.7414,-1.7709,-1.7129,-1.7188,-1.73,-1.6813,-1.7075,-1.7368,-1.7349,-1.7448,-1.7655,-1.7992,-1.807,-1.8098,-1.8442,-1.8828,-1.92,-1.9647,-1.9903,-2.0234,-2.0666,-2.0919,-2.1109,-2.1109,-2.1109,-2.1109,-2.1109,-2.1109,-2.1109,-2.1109,-2.1109,-2.1172,-2.1299,-2.1235,-2.1425,-2.1803,-2.2041,-2.2355,-2.2606,-2.3165,-2.353,-2.3588,-2.3588,-2.3443,-2.3093,-2.3093,-2.2766,-2.2136,-2.2484,-2.2792,-2.3126,-2.3856,-2.4399,-2.4937,-2.5018,-2.5143,-2.5115,-2.5048,-2.4914,-2.478,-1.4299,-1.4299,-1.4299,-1.4299,-1.4299,-1.4272,-1.419,-1.4122,-1.3954,-1.3614,-1.3674,-1.3807,-1.4068,-1.4035,-1.4122,-1.4646,-1.4911,-1.4911,-1.4646,-1.4569,-1.4696,-1.5221,-1.4894,-1.4822,-1.4995,-1.4747,-1.4496,-1.4173,-1.3936,-1.3983,-1.439,-1.439,-1.4638,-1.5051,-1.5051,-1.5298,-1.5711,-1.5711,-1.5745,-1.5894,-1.5813,-1.5827,-1.5797,-1.5623,-1.5646,-1.5778,-1.6307,-1.6514,-1.6651,-1.7105,-1.7331,-1.7426,-1.7426,-1.7578,-1.7764,-1.7517,-1.7857,-1.8308,-1.7937,-1.7885,-1.7885,-1.7541,-1.7623,-1.7796,-1.7359,-1.76,-1.793,-1.816,-1.8237,-1.8293,-1.8694,-1.8976,-1.9249,-1.9693,-1.9799,-2.003,-2.0539,-2.0729,-2.0919,-2.1109,-2.1109,-2.1109,-2.1109,-2.1109,-2.1109,-2.1109,-2.1235,-2.1416,-2.1565,-2.1556,-2.1801,-2.2217,-2.2321,-2.2489,-2.2835,-2.3325,-2.3749,-2.4057,-2.3862,-2.3694,-2.3476,-2.3262,-2.2928,-2.2418,-2.2916,-2.3256,-2.3475,-2.4092,-2.4436,-2.4505,-2.4878,-2.497,-2.4849,-2.5052,-2.5119,-2.5119,-1.4299,-1.4299,-1.4299,-1.4299,-1.4299,-1.4299,-1.4299,-1.419,-1.4022,-1.3672,-1.3497,-1.3672,-1.4196,-1.4041,-1.3945,-1.4299,-1.4734,-1.4734,-1.421,-1.4557,-1.4727,-1.4727,-1.4527,-1.4458,-1.4719,-1.4478,-1.4053,-1.3627,-1.3505,-1.3597,-1.3983,-1.3983,-1.4225,-1.4631,-1.4631,-1.4886,-1.5298,-1.5298,-1.5546,-1.5867,-1.5796,-1.5967,-1.6304,-1.6047,-1.6129,-1.6458,-1.6726,-1.7035,-1.7426,-1.7426,-1.7426,-1.7426,-1.7426,-1.7731,-1.8072,-1.782,-1.837,-1.899,-1.8759,-1.8644,-1.8613,-1.8341,-1.8279,-1.8144,-1.7561,-1.7795,-1.8172,-1.8237,-1.8406,-1.8688,-1.9017,-1.9167,-1.9419,-1.9911,-1.9869,-2.0029,-2.0489,-2.068,-2.0858,-2.1046,-2.1109,-2.1109,-2.1109,-2.1109,-2.1109,-2.1109,-2.1362,-2.1688,-2.2052,-2.2074,-2.2326,-2.3014,-2.2794,-2.2829,-2.3164,-2.3665,-2.4115,-2.4657,-2.4357,-2.4139,-2.412,-2.3777,-2.3364,-2.3102,-2.3622,-2.387,-2.3967,-2.4482,-2.444,-2.4136,-2.4705,-2.4673,-2.4309,-2.4863,-2.5119,-2.5119,-1.4299,-1.4299,-1.4299,-1.4299,-1.4299,-1.4299,-1.4299,-1.4285,-1.4441,-1.4699,-1.4088,-1.3912,-1.4787,-1.4808,-1.4646,-1.4299,-1.4734,-1.4646,-1.3768,-1.3768,-1.3761,-1.3748,-1.3388,-1.3552,-1.4346,-1.3847,-1.3561,-1.3627,-1.3607,-1.3532,-1.3486,-1.3486,-1.3735,-1.4149,-1.4149,-1.439,-1.4796,-1.4796,-1.5051,-1.5463,-1.544,-1.5665,-1.5909,-1.6023,-1.6005,-1.6078,-1.6572,-1.7035,-1.7426,-1.7426,-1.7426,-1.7426,-1.7426,-1.7883,-1.8481,-1.8072,-1.8819,-1.9596,-1.9,-1.8999,-1.9051,-1.8623,-1.8508,-1.8373,-1.8155,-1.8331,-1.8548,-1.8515,-1.8924,-1.9287,-1.9354,-1.9597,-1.9784,-1.9887,-2.0394,-2.0664,-2.0566,-2.1045,-2.1403,-2.1136,-2.1109,-2.1109,-2.1109,-2.1109,-2.1109,-2.1109,-2.1172,-2.142,-2.2052,-2.1832,-2.2097,-2.2948,-2.2944,-2.3111,-2.3414,-2.4436,-2.4973,-2.4993,-2.4858,-2.4778,-2.475,-2.4341,-2.4001,-2.3647,-2.3758,-2.3785,-2.3856,-2.4238,-2.4508,-2.4792,-2.486,-2.5077,-2.5295,-2.5154,-2.5119,-2.5119,-1.4299,-1.4299,-1.4299,-1.4299,-1.4299,-1.4299,-1.4299,-1.4564,-1.4557,-1.4292,-1.4115,-1.4027,-1.4204,-1.4469,-1.4564,-1.4299,-1.4469,-1.4292,-1.3679,-1.3584,-1.3578,-1.3584,-1.3407,-1.3584,-1.4292,-1.4055,-1.3914,-1.3878,-1.379,-1.3675,-1.3532,-1.3532,-1.3568,-1.3735,-1.3735,-1.3983,-1.439,-1.439,-1.4638,-1.5051,-1.5546,-1.5991,-1.6391,-1.6851,-1.7128,-1.7347,-1.7451,-1.7611,-1.7757,-1.7634,-1.7596,-1.7577,-1.7683,-1.8111,-1.8643,-1.8633,-1.9239,-1.9747,-1.9199,-1.9091,-1.9166,-1.8832,-1.8759,-1.8654,-1.8587,-1.8769,-1.896,-1.8958,-1.9288,-1.9625,-1.9828,-1.991,-1.9941,-2.0086,-2.0379,-2.063,-2.0702,-2.1072,-2.1303,-2.1376,-2.1203,-2.1239,-2.1592,-2.133,-2.1172,-2.1362,-2.1574,-2.1869,-2.2298,-2.2377,-2.2728,-2.3532,-2.321,-2.3328,-2.408,-2.4082,-2.4462,-2.5247,-2.4705,-2.4616,-2.4876,-2.4266,-2.391,-2.3781,-2.3941,-2.4008,-2.4022,-2.4327,-2.4648,-2.4828,-2.5045,-2.5383,-2.5783,-2.5637,-2.5593,-2.5564]}]]